[[{"header":{"parameterUnit":"m.s-1","parameterCategory":1,"la1":30.6,"la2":29.2853,"lo1":-89.7004,"lo2":-87.6739,"dy":0.0162,"dx":0.0183,"nx":112,"ny":82,"refTime":"2023-08-18T06:00:00:Z","depth":0,"parameterNumber":2,"parameterNumberName":"U-component_of_WINDS"},"data":[0.0,0.0,0.0,0.0,0.0,0.0,0.0,0.0,0.0,0.0,0.0,0.0,0.0,0.0,0.0,0.0,0.0,0.0,0.0,0.0,0.0,0.0,0.0,0.0,0.0,0.0,0.0,0.0,0.0,0.0,0.0,0.0,0.0,0.0,0.0,0.0,0.0,0.0,0.0,0.0,0.0,0.0,0.0,0.0,0.0,0.0,0.0,0.0,0.0,0.0,0.0,0.0,0.0,0.0,0.0,0.0,0.0,0.0,0.0,0.0,0.0,0.0,0.0,0.0,0.0,0.0,0.0,0.0,0.0,0.0,0.0,0.0,0.0,0.0,0.0,0.0,0.0,0.0,0.0,0.0,0.0,0.0,0.0,0.0,0.0,0.0,0.0,0.0,0.0,0.0,-0.2997,-0.3126,-0.3199,-0.3331,-0.3571,-0.3689,-0.4036,-0.4646,0.0,0.0,0.0,0.0,0.0,0.0,0.0,0.0,0.0,0.0,0.0,0.0,0.0,0.0,0.0,0.0,0.0,0.0,0.0,0.0,0.0,0.0,0.0,0.0,0.0,0.0,0.0,0.0,0.0,0.0,0.0,0.0,0.0,0.0,0.0,0.0,0.0,0.0,0.0,0.0,0.0,0.0,0.0,0.0,0.0,0.0,0.0,0.0,0.0,0.0,0.0,0.0,0.0,0.0,0.0,0.0,0.0,0.0,0.0,0.0,0.0,0.0,0.0,0.0,0.0,0.0,0.0,0.0,0.0,0.0,0.0,0.0,0.0,0.0,0.0,0.0,0.0,0.0,0.0,0.0,0.0,0.0,0.0,0.0,0.0,0.0,0.0,0.0,0.0,0.0,0.0,0.0,0.0,0.0,0.0,0.0,0.0,0.0,0.0,0.0,0.0,0.0,0.0,0.0,-0.1525,-0.0651,-0.1222,-0.2194,-0.3501,-0.3301,-0.3038,-0.2814,0.0,0.0,0.0,0.0,0.0,0.0,0.0,0.0,0.0,0.0,0.0,0.0,0.0,0.0,0.0,0.0,0.0,0.0,0.0,0.0,0.0,0.0,0.0,0.0,0.0,0.0,0.0,0.0,0.0,0.0,0.0,0.0,0.0,0.0,0.0,0.0,0.0,0.0,0.0,0.0,0.0,0.0,0.0,0.0,0.0,0.0,0.0,0.0,0.0,0.0,0.0,0.0,0.0,0.0,0.0,0.0,0.0,0.0,0.0,0.0,0.0,0.0,0.0,0.0,0.0,0.0,0.0,0.0,0.0,0.0,0.0,0.0,0.0,0.0,0.0,0.0,0.0,0.0,0.0,0.0,0.0,0.0,0.0,0.0,0.0,0.0,0.0,0.0,0.0,0.0,0.0,0.0,0.0,0.0,0.0,0.0,0.0,0.0,0.0,0.0,0.0,0.0,0.0,-0.126,-0.0559,-0.0064,-0.0346,-0.1283,-0.2988,-0.3228,-0.3122,-0.2713,-0.4887,0.0,0.0,0.0,0.0,0.0,0.0,0.0,0.0,0.0,0.0,0.0,0.0,0.0,0.0,0.0,0.0,0.0,0.0,0.0,0.0,0.0,0.0,0.0,0.0,0.0,0.0,0.0,0.0,0.0,0.0,0.0,0.0,0.0,0.0,0.0,0.0,0.0,0.0,0.0,0.0,0.0,0.0,0.0,0.0,0.0,0.0,0.0,0.0,0.0,0.0,0.0,0.0,0.0,0.0,0.0,0.0,0.0,0.0,0.0,0.0,0.0,0.0,0.0,0.0,0.0,0.0,0.0,0.0,0.0,0.0,0.0,0.0,0.0,0.0,0.0,0.0,0.0,0.0,0.0,0.0,0.0,0.0,0.0,0.0,0.0,0.0,0.0,0.0,0.0,0.0,0.0,0.0,0.0,0.0,0.0,0.0,0.0,0.0,0.0,0.0,0.0,0.0,-0.0652,-0.0,-0.0,-0.0,-0.057,-0.1931,-0.3093,-0.3488,-0.2841,-0.4866,0.0,0.0,0.0,0.0,0.0,0.0,0.0,0.0,0.0,0.0,0.0,0.0,0.0,0.0,0.0,0.0,0.0,0.0,0.0,0.0,0.0,0.0,0.0,0.0,0.0,0.0,0.0,0.0,0.0,0.0,0.0,0.0,0.0,0.0,0.0,0.0,0.0,0.0,0.0,0.0,0.0,0.0,0.0,0.0,0.0,0.0,0.0,0.0,0.0,0.0,0.0,0.0,0.0,0.0,0.0,0.0,0.0,0.0,0.0,0.0,0.0,0.0,0.0,0.0,0.0,0.0,0.0,0.0,0.0,0.0,0.0,0.0,0.0,0.0,0.0,0.0,0.0,0.0,0.0,0.0,0.0,0.0,0.0,0.0,0.0,0.0,0.0,0.0,0.0,0.0,0.0,0.0,0.0,0.0,0.0,0.0,0.0,0.0,0.0,0.0,0.0,0.0,-0.1273,-0.0,-0.0,-0.0,-0.0068,-0.0169,-0.2625,-0.3697,-0.2609,-0.5071,0.0,0.0,0.0,0.0,0.0,0.0,0.0,0.0,0.0,0.0,0.0,0.0,0.0,0.0,0.0,0.0,0.0,0.0,0.0,0.0,0.0,0.0,0.0,0.0,0.0,0.0,0.0,0.0,0.0,0.0,0.0,0.0,0.0,0.0,0.0,0.0,0.0,0.0,0.0,0.0,0.0,0.0,0.0,0.0,0.0,0.0,0.0,0.0,0.0,0.0,0.0,0.0,0.0,0.0,0.0,0.0,0.0,0.0,0.0,0.0,0.0,0.0,0.0,0.0,0.0,0.0,0.0,0.0,0.0,0.0,0.0,0.0,0.0,0.0,0.0,0.0,0.0,0.0,0.0,0.0,0.0,0.0,0.0,0.0,0.0,0.0,0.0,0.0,0.0,0.0,0.0,0.0,0.0,0.0,0.0,0.0,0.0,0.0,0.0,0.0,0.0,0.0,-0.1789,-0.1476,0.0,-0.0,-0.0,-0.0,-0.0987,-0.2286,-0.3967,0.0,0.0,0.0,0.0,0.0,0.0,0.0,0.0,0.0,0.0,0.0,0.0,0.0,0.0,0.0,0.0,0.0,0.0,0.0,0.0,0.0,0.0,0.0,0.0,0.0,0.0,0.0,0.0,0.0,0.0,0.0,0.0,0.0,0.0,0.0,0.0,0.0,0.0,0.0,0.0,0.0,0.0,0.0,0.0,0.0,0.0,0.0,0.0,0.0,0.0,0.0,0.0,0.0,0.0,0.0,0.0,0.0,0.0,0.0,0.0,0.0,0.0,0.0,0.0,0.0,0.0,0.0,0.0,0.0,0.0,0.0,0.0,0.0,0.0,0.0,0.0,0.0,0.0,0.0,0.0,0.0,0.0,0.0,0.0,0.0,0.0,0.0,0.0,0.0,0.0,0.0,0.0,0.0,0.0,0.0,0.0,0.0,0.0,0.0,0.0,0.0,0.0,-0.1015,-0.1633,-0.1613,0.0,-0.0,-0.0,-0.0,-0.0,-0.1165,-0.3927,0.0,0.0,0.0,0.0,0.0,0.0,0.0,0.0,0.0,0.0,0.0,0.0,0.0,0.0,0.0,0.0,0.0,0.0,0.0,0.0,0.0,0.0,0.0,0.0,0.0,0.0,0.0,0.0,0.0,0.0,0.0,0.0,0.0,0.0,0.0,0.0,0.0,0.0,0.0,0.0,0.0,0.0,0.0,0.0,0.0,0.0,0.0,0.0,0.0,0.0,0.0,0.0,0.0,0.0,0.0,0.0,0.0,0.0,0.0,0.0,0.0,0.0,0.0,0.0,0.0,0.0,0.0,0.0,0.0,0.0,0.0,0.0,0.0,0.0,0.0,0.0,0.0,0.0,0.0,0.0,0.0,0.0,0.0,0.0,0.0,0.0,0.0,0.0,0.0,0.0,0.0,0.0,0.0,0.0,0.0,0.0,0.0,0.0,0.0,0.0,0.0,0.0,-0.1691,-0.0659,-0.0,-0.0,-0.0,-0.0,-0.0,-0.0,-0.0636,0.0,0.0,0.0,0.0,0.0,0.0,0.0,0.0,0.0,0.0,0.0,0.0,0.0,0.0,0.0,0.0,0.0,0.0,0.0,0.0,0.0,0.0,0.0,0.0,0.0,0.0,0.0,0.0,0.0,0.0,0.0,0.0,0.0,0.0,0.0,0.0,0.0,0.0,0.0,0.0,0.0,0.0,0.0,0.0,0.0,0.0,0.0,0.0,0.0,0.0,0.0,0.0,0.0,0.0,0.0,0.0,0.0,0.0,0.0,0.0,0.0,0.0,0.0,0.0,0.0,0.0,0.0,0.0,0.0,0.0,0.0,0.0,0.0,0.0,0.0,0.0,0.0,0.0,0.0,0.0,0.0,0.0,0.0,0.0,0.0,0.0,0.0,0.0,0.0,0.0,0.0,0.0,0.0,0.0,0.0,0.0,0.0,0.0,0.0,0.0,0.0,0.0,0.0,-0.1411,-0.0503,-0.0,-0.0,-0.0,-0.0,-0.0,-0.0,-0.064,-0.2091,0.0,0.0,0.0,0.0,0.0,0.0,0.0,0.0,0.0,0.0,0.0,0.0,0.0,0.0,0.0,0.0,0.0,0.0,0.0,0.0,0.0,0.0,0.0,0.0,0.0,0.0,0.0,0.0,0.0,0.0,0.0,0.0,0.0,0.0,0.0,0.0,0.0,0.0,0.0,0.0,0.0,0.0,0.0,0.0,0.0,0.0,0.0,0.0,0.0,0.0,0.0,0.0,0.0,0.0,0.0,0.0,0.0,0.0,0.0,0.0,0.0,0.0,0.0,0.0,0.0,0.0,0.0,0.0,0.0,0.0,0.0,0.0,0.0,0.0,0.0,0.0,0.0,0.0,0.0,0.0,0.0,0.0,0.0,0.0,0.0,0.0,0.0,0.0,0.0,0.0,0.0,0.0,0.0,0.0,0.0,0.0,0.0,0.0,0.0,0.0,0.0,0.0,-0.1762,-0.0687,-0.0,-0.0,-0.0,-0.0,-0.0,0.0885,0.0884,-0.0373,0.0,0.0,0.0,0.0,0.0,0.0,0.0,0.0,0.0,0.0,0.0,0.0,0.0,0.0,0.0,0.0,0.0,0.0,0.0,0.0,0.0,0.0,0.0,0.0,0.0,0.0,0.0,0.0,0.0,0.0,0.0,0.0,0.0,0.0,0.0,0.0,0.0,0.0,0.0,0.0,0.0,0.0,0.0,0.0,0.0,0.0,0.0,0.0,0.0,0.0,0.0,0.0,0.0,0.0,0.0,0.0,0.0,0.0,0.0,0.0,0.0,0.0,0.0,0.0,0.0,0.0,0.0,0.0,0.0,0.0,0.0,0.0,0.0,0.0,0.0,0.0,0.0,0.0,0.0,0.0,0.0,0.0,0.0,0.0,0.0,0.0,0.0,0.0,0.0,0.0,0.0,0.0,0.0,0.0,0.0,0.0,0.0,0.0,0.0,0.0,0.0,0.0,-0.2277,-0.098,-0.0,-0.0,-0.0,-0.0,-0.0,0.2002,0.3009,0.2369,0.0,0.0,0.0,0.0,0.0,0.0,0.0,0.0,0.0,0.0,0.0,0.0,0.0,0.0,0.0,0.0,0.0,0.0,0.0,0.0,0.0,0.0,0.0,0.0,0.0,0.0,0.0,0.0,0.0,0.0,0.0,0.0,0.0,0.0,0.0,0.0,0.0,0.0,0.0,0.0,0.0,0.0,0.0,0.0,0.0,0.0,0.0,0.0,0.0,0.0,0.0,0.0,0.0,0.0,0.0,0.0,0.0,0.0,0.0,0.0,0.0911,0.0,0.0,0.0,0.0,0.0,0.0,0.0,0.0,0.0,0.0,0.0,0.0,0.0,0.0,0.0,0.0,0.0,0.0,0.0,0.0,0.0,0.0,0.0,0.0,0.0,0.0,0.0,0.0,0.0,0.0,0.0,0.0,0.0,0.0,0.0,0.0,0.0,0.0,0.0,0.0,0.0,-0.1107,-0.0448,-0.0,-0.0,-0.0,-0.0,-0.0,0.049,0.1506,0.3208,0.3242,0.0,0.0,0.0,0.0,0.0,0.0,0.0,0.0,0.0,0.0,0.0,0.0,0.0,0.0,0.0,0.0,0.0,0.0,0.0,0.0,0.0,0.0,0.0,0.0,0.0,0.0,0.0,0.0,0.0,0.0,0.0,0.0,0.0,0.0,0.0,0.0,0.0,0.0,0.0,0.0,0.0,0.0,0.0,0.0,0.0,0.0,0.0,0.0,0.0,0.0,0.0,0.0,0.0,0.0,0.0,0.0,0.0,0.0,0.0,0.0,0.047,0.0,0.0,0.0,0.0,0.0,0.0,0.0,0.0,0.0,0.0,0.0,0.0,0.0,0.0,0.0,0.0,0.0,0.0,0.0,0.0,0.0,0.0,0.0,0.0,0.0,0.0,0.0,0.0,0.0,0.0,0.0,0.0,0.0,0.0,0.0,0.0,0.0,0.0,0.0,0.0,-0.1124,-0.0434,-0.0,-0.0,-0.0,-0.0,-0.0,-0.0,0.0511,0.1802,0.2715,0.0,0.0,0.0,0.0,0.0,0.0,0.0,0.0,0.0,0.0,0.0,0.0,0.0,0.0,0.0,0.0,0.0,0.0,0.0,0.0,0.0,0.0,0.0,0.0,0.0,0.0,0.0,0.0,0.0,0.0,0.0,0.0,0.0,0.0,0.0,0.0,0.0,0.0,0.0,0.0,0.0,0.0,0.0,0.0,0.0,0.0,0.0,0.0,0.0,0.0,0.0,0.0,0.0,0.0464,0.0303,0.0436,0.0312,0.0514,0.0939,0.1112,0.011,-0.1487,-0.0527,0.0,0.0,0.0,0.0,0.0,0.0,0.0,0.0,0.0,0.0,0.0,0.0,0.0,0.0,0.0,0.0,0.0,0.0,0.0,0.0,0.0,0.0,0.0,0.0,-0.2785,-0.1724,0.0,0.0,0.0,0.0,0.0,0.0,0.0,0.0,0.0,0.0,0.0,0.0,-0.1579,-0.0659,-0.0,-0.0,-0.0,-0.0,-0.0,-0.0,-0.0,-0.0,0.091,0.1576,0.0,0.0,0.0,0.0,0.0,0.0,0.0,0.0,0.0,0.0,0.0,0.0,0.0,0.0,0.0,0.0,0.0,0.0,0.0,0.0,0.0,0.0,0.0,0.0,0.0,0.0,0.0,0.0,0.0,0.0,0.0,0.0,0.0243,0.0134,0.0,0.0,0.0,0.0,0.0,0.0,0.0,0.0,0.0,0.0,0.0,0.0,0.0,0.0805,0.1352,0.1165,0.0741,0.0145,0.0073,0.0074,0.0076,0.0228,0.0231,0.0158,0.0818,0.0,0.0651,-0.2489,0.0,0.0,0.0,0.0,0.0,0.0,0.0,0.0,0.0,0.0,0.0,0.0,0.0,0.0,0.0,0.0,0.0,0.0,0.0,0.0,0.0,0.0,-0.0752,-0.3621,-0.221,-0.0304,0.0,-0.151,-0.2389,-0.2311,-0.2411,0.0,0.0,0.0,0.0,0.0,0.0,0.0,-0.2058,-0.0875,-0.0,-0.0,-0.0,-0.0,-0.0,-0.0,-0.0,-0.0,0.0167,0.0279,0.028,-0.0271,0.0,0.0,0.0,0.0,0.0,0.0,0.0,0.0,0.0,0.0,0.0,0.0,0.0,0.0,0.0,0.0,0.0,0.0,0.0,0.0,0.0,0.0,0.0,0.0,0.0,0.0,0.0,0.0,0.0,0.1216,0.0534,0.0052,0.042,0.0923,0.0,0.0,0.0,0.0,0.0,0.0,0.0,0.0,0.0,0.2505,0.2021,0.1364,0.0589,0.0523,0.0308,-0.0,-0.0,-0.0,-0.0,0.0086,0.0087,-0.0,0.0345,0.0503,0.0484,-0.0907,-0.1347,-0.1115,0.0,0.0,0.0,0.0,0.0054,-0.0163,-0.0054,0.073,0.0,-0.0114,0.0,0.0,0.0,0.0,0.0,0.0,0.0,0.0,0.0,0.0,-0.1986,-0.1927,-0.0901,-0.0,-0.0,-0.0497,-0.0899,0.0,-0.1006,-0.1458,-0.2793,0.0,0.0,0.0,0.0,-0.1457,-0.104,-0.0379,-0.0,-0.0,-0.0,-0.0,-0.0,-0.0,-0.0,-0.0,-0.0,-0.0,-0.0,-0.0,-0.0384,0.0,0.0,0.0,0.0,0.0,0.0,0.0,0.0,0.0,0.0,0.0,0.0,0.0,0.0,0.0,0.0,0.0,0.0,0.0,0.0,0.0,0.0,0.0,0.0,0.0,0.0,0.0,0.0,0.1572,0.1094,0.0117,0.0594,0.1168,0.0,0.0,0.0,0.0,0.0,0.0,0.3133,0.2236,0.1793,0.2118,0.2151,0.1498,-0.0,-0.0,-0.0,-0.0,-0.0,-0.0,-0.0,-0.0,-0.0,-0.0,-0.0,-0.0,-0.0,0.048,-0.022,-0.1498,-0.0411,0.0266,0.0587,0.0518,0.0517,0.0388,-0.0517,0.0262,0.1333,-0.0463,0.0,-0.025,-0.1492,0.0,0.0,0.0,0.0,-0.471,-0.3753,-0.3136,-0.2244,-0.0396,-0.0,-0.0,-0.0,-0.0,-0.0,0.0,-0.0,-0.0182,-0.0864,0.0,0.0,0.0,0.0,-0.101,-0.0112,-0.0,-0.0,-0.0,-0.0,-0.0,-0.0,-0.0,-0.0,-0.0,-0.0,-0.0,-0.0,-0.0,-0.0,-0.0,0.0,0.0,0.0,0.0,0.0,0.0,0.0,0.0,0.0,0.0,0.0,0.0,0.0,0.0,0.0,0.0,0.0,0.0,0.0,0.0,0.0,0.0,0.0,0.0,0.0,0.0,0.0,0.0,0.0,0.0117,0.0065,0.0,0.0,0.0,0.0,0.0852,0.0832,0.1494,0.2879,0.4095,0.3344,0.0251,0.0174,0.009,-0.0,-0.0,-0.0,-0.0,-0.0,-0.0,-0.0,-0.0,-0.0,-0.0,-0.0,-0.0,-0.0,-0.0,-0.0,-0.0083,-0.0,-0.0,0.0075,0.0657,0.0506,-0.0,-0.0,-0.0,0.0073,-0.0,-0.0076,-0.0,-0.0068,-0.0199,0.0,0.0,-0.3736,-0.5266,-0.5274,-0.2722,-0.014,-0.0,-0.0,-0.0,-0.0,-0.0,-0.0,0.0,-0.0,-0.0,-0.0061,0.0,-0.1703,-0.5748,-0.2748,-0.0056,-0.0,-0.0,-0.0,-0.0,-0.0,-0.0,-0.0,-0.0,-0.0,-0.0,-0.0,-0.0,-0.0,-0.0,-0.0,-0.0,-0.0054,0.0,0.0,0.0,0.0,0.0,0.0,0.0,0.0,0.0,0.0,0.0,0.0,0.0,0.0,0.0,0.0,0.0,0.0,0.0,0.0,0.0,0.0,0.0,0.0,0.0,0.0,0.0,0.0,0.0919,0.0364,0.0,0.0935,0.2056,0.2575,0.2128,0.0979,0.0475,0.0983,0.1539,0.125,-0.0,-0.0,-0.0,-0.0,-0.0,-0.0,-0.0,-0.0,-0.0,-0.0,-0.0,-0.0,-0.0,-0.0,-0.0,-0.0,-0.0,-0.0,-0.0,-0.0,-0.0,-0.0,0.0252,0.0168,-0.0,-0.0,-0.0,-0.0,-0.0,-0.0,-0.0,-0.0,-0.0,-0.0135,-0.0625,-0.1323,-0.1887,-0.1896,-0.0958,-0.0,-0.0,-0.0,-0.0,-0.0,-0.0,-0.0,-0.0,-0.0,-0.0,-0.0,-0.0,-0.0546,-0.2064,-0.0962,-0.0,-0.0,-0.0,-0.0,-0.0,-0.0,-0.0,-0.0,-0.0,-0.0,-0.0,-0.0,-0.0,-0.0,-0.0,-0.0,-0.0,-0.0,-0.0326,0.0,0.0,0.0,0.0,0.0,0.0,0.0,0.0,0.0,0.0,0.0,0.0,0.0,0.0,0.0,0.0,0.0,0.0,0.0,0.0,0.0,0.0,0.0,0.0,0.0,0.0,0.0766,0.1175,0.048,-0.0,-0.0,0.1081,0.1842,0.1898,0.0701,-0.0,-0.0,-0.0,-0.0,-0.0,-0.0,-0.0,-0.0,-0.1834,-0.1829,-0.0,-0.0,-0.0,-0.0,-0.0,-0.0,-0.0,-0.0,-0.0,-0.0,-0.0,-0.0,-0.0,-0.0,-0.0,-0.0,-0.0,-0.0,-0.0,-0.0,-0.0,-0.0,-0.0,-0.0,-0.0,-0.0,-0.0,-0.0,-0.0,-0.0,-0.0,-0.0,-0.0,-0.0,-0.0,-0.0,-0.0,-0.0,-0.0,-0.0,-0.0,-0.0,-0.062,-0.257,-0.292,-0.2554,-0.1567,-0.1305,-0.1232,-0.1208,-0.0495,-0.0,-0.0,-0.0,-0.0,-0.0,-0.1317,-0.1494,-0.0112,-0.0,-0.0344,-0.1067,-0.1077,-0.1085,-0.1085,-0.0629,-0.0455,-0.0561,0.0,0.0,0.0,0.0,0.0,0.0,0.0,0.0,0.0,0.0,0.0,0.0,0.0,0.0,0.0,0.0,0.0,0.0,0.0,0.0,0.0,0.0,0.0,-0.2127,-0.0569,0.0541,0.0813,0.0347,-0.0,-0.0,-0.0,-0.0,-0.0,-0.0,-0.0,-0.0,-0.0,-0.0,-0.0,-0.0,-0.0106,-0.0208,-0.5199,-0.5255,-0.0202,-0.0101,-0.0,-0.0,-0.0,-0.0,-0.0,-0.0,-0.0,-0.0,-0.0,-0.0,-0.0,-0.0,-0.0,-0.0,-0.0,-0.0,-0.0,-0.0,-0.0,-0.0,-0.0,-0.0,-0.0,-0.0,-0.0,-0.0,-0.0,-0.0,-0.0,-0.0,-0.0,-0.0,-0.0,-0.0,-0.0,-0.0,-0.0,-0.0,-0.0,-0.0,-0.1754,-0.7377,-0.851,-0.7654,-0.4862,-0.4058,0.0,-0.3691,-0.1688,-0.0193,-0.0193,-0.0059,-0.0,-0.0,-0.3771,-0.4411,-0.045,-0.0059,-0.0956,-0.2992,-0.3138,-0.3191,-0.3191,-0.1847,-0.1087,-0.0923,0.0,0.0,0.0,0.0,0.0,0.0,0.0,0.0,0.0,0.0,0.0,0.0,0.0,0.0,0.0,0.0,0.0,0.0,0.0,0.0,0.0,0.0,-0.5125,-0.326,-0.1248,0.0171,0.0273,0.0097,-0.0,-0.0,-0.0,-0.0,-0.0,-0.0,-0.0,-0.0,-0.0,-0.0,-0.0,-0.0,-0.1902,-0.5723,-0.3427,-0.3396,-0.577,-0.1816,-0.0,-0.0,-0.0,-0.0,-0.0,-0.0,-0.0,-0.0,-0.0,-0.0,-0.0,-0.0,-0.0,-0.0,-0.0,-0.0,-0.0,-0.0,-0.0,-0.0,-0.0,-0.0,-0.0,-0.0,-0.0,-0.0,-0.0,-0.0,-0.0,-0.0,-0.0,-0.0,-0.0,-0.0,-0.0,-0.0,-0.0,-0.0,-0.0,-0.0,-0.0469,-0.211,-0.5802,-0.8311,-0.7535,-0.7275,0.0,-0.6214,-0.5557,-0.5178,-0.5137,-0.2069,-0.0,-0.0,-0.109,-0.2527,-0.4429,-0.1713,-0.0285,-0.0842,-0.2382,-0.3199,-0.3199,-0.2817,-0.238,0.0,0.0,0.0,0.0,0.0,0.0,0.0,0.0,0.0,0.0,0.0,0.0,0.0,0.0,0.0,0.0,0.0,0.0,0.0,0.0,0.0,0.0,-0.5335,-0.6439,-0.4903,-0.3529,-0.2002,-0.0199,-0.0,-0.0,-0.0,-0.0,-0.0,-0.0,-0.0,-0.0,-0.0,-0.0,-0.0,-0.0,-0.0,-0.1513,-0.4572,-0.3823,-0.379,-0.4656,-0.3722,-0.2161,-0.0,-0.0,-0.0,-0.0,-0.0,-0.0,-0.0,-0.0,-0.0,0.0,0.0,0.0,0.0,0.0,-0.0,-0.0,-0.0,-0.0,-0.0,-0.0,-0.0,-0.0,-0.0,-0.0,-0.0,-0.0,-0.0,-0.0,-0.0,-0.0,-0.0,-0.0,-0.0,-0.0,-0.0,-0.0,-0.0,-0.0,-0.0,0.0,-0.0,-0.278,-0.5396,-0.6626,-0.6801,-0.6607,-0.5988,-0.6604,-0.7094,-0.7096,-0.4646,-0.2187,-0.0182,-0.0,0.0,0.0,0.0,-0.1836,-0.0058,-0.117,0.0,0.0,0.0,-0.2565,-0.2608,0.0,0.0,0.0,-0.1787,-0.1954,0.0,0.0,0.0,0.0,0.0,0.0,0.0,0.0,0.0,0.0,0.0,0.0,0.0,0.0,0.0,0.0,-0.5687,-0.754,-0.6599,-0.6453,-0.4888,-0.0537,-0.0,-0.0,-0.0,-0.0,-0.0,-0.0,-0.0,-0.0,-0.0,0.0,0.0,0.0,0.0,-0.0334,-0.0985,-0.5043,-0.4998,-0.1066,-0.5771,-0.529,-0.0,-0.0,-0.0,-0.0,-0.0,-0.0,-0.0,-0.0606,-0.0909,-0.0808,-0.0202,-0.0,-0.0,-0.0,-0.0,-0.0,-0.0,0.0,0.0,-0.0,-0.0,-0.0,-0.0,-0.0,-0.0,-0.0,-0.0,-0.0,-0.0,-0.0,-0.0,-0.0,-0.0,-0.0,-0.0,-0.0,-0.0,-0.0,-0.0,-0.0,-0.0,-0.0,-0.0898,-0.339,-0.3818,-0.3786,-0.385,-0.5243,-0.6268,-0.6267,0.0,0.0,-0.1149,-0.0298,-0.1577,-0.538,-0.5589,-0.388,-0.0185,-0.0,-0.0439,-0.1409,-0.139,-0.1878,-0.2871,-0.2419,-0.1655,-0.0616,-0.0874,-0.1305,0.0,0.0,0.0,0.0,0.0,0.0,0.0,0.0,0.0,0.0,0.0,0.0,0.0,0.0,0.0,-0.3894,-0.5562,-0.6835,-0.7558,-0.7665,-0.5722,-0.0568,-0.0,-0.0,-0.0,-0.0,-0.0,-0.0,-0.0,-0.0,-0.0,-0.0,-0.2242,-0.6974,-0.2466,-0.2223,-0.679,-0.3282,-0.3362,-0.6828,0.0,0.0,-0.0,-0.0,-0.0,-0.0,-0.0,-0.0,-0.0303,-0.4663,-0.6497,-0.5974,-0.1716,-0.0,-0.0,-0.0,-0.0,-0.0,-0.0,-0.0,-0.0,-0.0,-0.0,-0.0,-0.0,-0.0,0.0,-0.0,-0.0,-0.0,-0.0,-0.0,-0.0,-0.0,-0.0,-0.0,-0.0,-0.0,-0.0,-0.0,-0.0,-0.0,-0.0,-0.0,-0.0165,-0.0719,-0.0795,-0.0861,-0.0823,-0.1156,-0.1348,-0.1359,-0.4776,-0.6757,-0.5773,-0.2219,-0.0356,-0.1179,-0.122,-0.0869,-0.0062,-0.0,-0.0127,-0.0311,-0.0328,-0.0395,-0.0628,-0.1665,-0.1464,-0.0123,-0.0176,-0.0283,0.0,0.0,0.0,0.0,0.0,0.0,0.0,0.0,0.0,0.0,0.0,-0.2934,0.0,0.0,-0.4062,-0.4097,-0.472,-0.5796,-0.7754,-0.5732,-0.3046,-0.0351,-0.0,-0.0,-0.0,-0.0,-0.0,-0.0,-0.2784,-0.447,-0.4433,-0.3037,-0.3582,-0.6621,-0.527,-0.5135,-0.6531,-0.3649,-0.3632,-0.6557,-0.8122,-0.7246,-0.4194,-0.2723,-0.196,-0.1912,-0.0604,-0.0,-0.0403,-0.5775,-0.8036,-0.7714,-0.5048,-0.3224,-0.1812,-0.0504,-0.0806,-0.1812,-0.0504,-0.0,-0.0,-0.0,-0.0,-0.0,-0.0,-0.0,-0.0,-0.0,-0.0,-0.0,-0.0,-0.0,-0.0,-0.0,-0.0,-0.0,-0.0,-0.0,-0.0,-0.0,-0.0,-0.0,-0.0,-0.0,-0.0,-0.0,-0.0,-0.0,-0.0,-0.0,-0.0,-0.0,-0.2113,-0.3551,-0.3542,-0.135,-0.0,-0.0,-0.0,-0.0,-0.0,-0.0,-0.0,-0.0,-0.0,-0.0,-0.0,-0.0711,-0.0705,-0.0,-0.0,-0.0,0.0,0.0,0.0,0.0,0.0,0.0,0.0,0.0,-0.1286,-0.3217,-0.4855,-0.5953,-0.6311,-0.7187,-0.7129,-0.5094,-0.5028,-0.56,-0.7158,-0.3616,-0.0991,-0.0954,-0.0365,-0.0,-0.0,-0.1086,-0.18,-0.1895,-0.5718,-0.8428,-0.8927,-0.6671,-0.5394,-0.5392,-0.7647,-0.775,-0.5367,-0.5369,-0.5369,-0.5367,-0.7744,-0.8746,-0.8481,-0.596,-0.4796,-0.4647,-0.1912,-0.0503,-0.0402,-0.5758,-0.8016,-0.8016,-0.7992,-0.6648,-0.4516,-0.2311,-0.2611,-0.3717,-0.2116,-0.1209,-0.0704,-0.0202,-0.0,-0.0,-0.0,-0.0,-0.0,-0.0,-0.0,-0.0,-0.0,-0.0,-0.0,-0.0,-0.0,-0.0,-0.0,-0.0,-0.0,-0.0,-0.0,-0.0,-0.0,-0.0,-0.0,-0.0,-0.0,-0.0,-0.0,-0.0,-0.0,-0.0,-0.0,-0.0,-0.0,-0.0,-0.0,-0.0,-0.0,-0.0,-0.0,-0.0,-0.0,-0.0,-0.0,-0.0,-0.0,-0.0,-0.0,-0.0,-0.0,-0.0,-0.4272,-0.4901,-0.5222,-0.3285,-0.386,-0.4641,0.0,0.0,-0.3794,-0.4902,-0.7385,-0.9325,-0.972,-1.0102,-1.0074,-0.9261,-0.9177,-0.8251,-0.5669,-0.4681,-0.4306,-0.4406,-0.1721,-0.0,-0.0,-0.4828,-0.811,-0.8708,-0.6636,-0.6483,-0.9232,-0.8752,-0.8486,-0.87,-0.8835,-0.8768,-0.8406,-0.8425,-0.8425,-0.8406,-0.8749,-0.8889,-0.8831,-0.8146,-0.7688,-0.7446,-0.4758,-0.2209,-0.0402,-0.5739,-0.7985,-0.7992,-0.7959,-0.7839,-0.7537,-0.726,-0.5739,-0.4318,-0.6353,-0.5539,-0.3112,-0.0804,-0.0,-0.0,-0.0,-0.0,-0.0,-0.0,-0.0,-0.0,-0.0,-0.0,-0.0,-0.0,-0.0,-0.0,-0.0,-0.0,-0.0,-0.0,-0.0,-0.0,-0.0,-0.0,-0.0,-0.0,-0.0,-0.0,-0.0,-0.0,-0.0,-0.0,-0.0,-0.0,-0.0,-0.0,-0.0,-0.0,-0.0,-0.0,-0.0,-0.0,-0.0,-0.0,-0.0,-0.0,-0.0,-0.0,-0.0,-0.0,-0.0,-0.0,-0.5206,-0.4933,0.0,0.0,-0.5908,-0.6312,-0.7024,-0.7382,-0.7771,-0.8084,-0.9262,-1.018,-1.0074,-1.0236,-1.0239,0.0,-0.9794,-0.9312,-0.7986,-0.7557,-0.7497,-0.7306,-0.599,-0.452,-0.2763,-0.4894,-0.7259,-0.9439,-0.8084,-0.7936,-0.9396,-0.9111,-0.8977,-0.9164,-0.9039,-0.8853,-0.8954,-0.8853,-0.8853,-0.8954,-0.8954,-0.8876,-0.8723,-0.8659,-0.8295,-0.7975,-0.6802,-0.5741,-0.4845,-0.7068,-0.7985,-0.7989,-0.7965,-0.7952,-0.8041,-0.7969,-0.7253,-0.6528,-0.7572,-0.7266,-0.6139,-0.5033,-0.3618,-0.231,-0.2313,-0.1208,-0.0,-0.0,-0.0,-0.0,-0.0,-0.0,-0.0,-0.0,-0.0,-0.0,-0.0,-0.0,-0.0,-0.0,-0.0,-0.0,-0.0,-0.0,-0.0,-0.0,-0.0,-0.0,-0.0,-0.0,-0.0,-0.0,-0.0,-0.0,-0.0,-0.0,-0.0,-0.0,-0.0,-0.0,-0.0,-0.0,-0.0,-0.0,-0.0,-0.0,-0.0,-0.0,-0.0,-0.0,-0.0,-0.0,-0.5485,0.0,0.0,-0.6966,-0.7392,-0.7725,-0.9356,-1.0058,-1.0262,-1.0278,-1.0386,-1.0308,-1.0103,-1.0076,-1.0036,-0.9992,-0.9875,-0.9761,-0.9761,-0.9615,-0.9349,-0.912,-0.8944,-0.801,-0.5835,-0.5693,-0.6618,-0.9136,-0.9175,-0.9188,-0.9462,-0.9249,-0.9171,-0.9276,-0.9137,-0.9062,-0.9062,-0.9062,-0.9039,-0.8998,-0.8998,-0.892,-0.8771,-0.8686,-0.8404,-0.8064,-0.8026,-0.7982,-0.8009,-0.7985,-0.7979,-0.7982,-0.7969,-0.7955,-0.8041,-0.7959,-0.7952,-0.8041,-0.7969,-0.7972,-0.7965,-0.7985,-0.6653,-0.5127,-0.5138,-0.3726,-0.1913,-0.0403,-0.0,-0.0,-0.0,-0.0,-0.0,-0.0,-0.0,-0.0,-0.0,-0.0,-0.0,-0.0,-0.0,-0.0,-0.0,-0.0,-0.0,-0.0,-0.0,-0.0,-0.0,-0.0,-0.0,-0.0,-0.0,-0.0,-0.0,-0.0,-0.0,-0.0,-0.0,-0.0,-0.0,-0.0,-0.0,-0.0,-0.0,-0.0,-0.0,-0.0,-0.0,-0.0,-0.0,-0.0,0.0,0.0,-0.5789,-0.6819,-0.7932,-0.9022,-0.9469,-0.992,-1.0283,-1.0429,-1.0466,-1.0432,-1.0297,-1.0151,-0.9998,-0.9852,-0.9829,-0.9829,-0.9829,-0.9581,-0.9395,-0.9388,-0.8998,-0.8618,0.0,-0.8553,-0.87,-0.9184,-0.9306,-0.9442,-0.9595,-0.9595,-0.9591,-0.9595,-0.9449,-0.9367,-0.9367,-0.9367,-0.9293,-0.9147,-0.9147,-0.9072,-0.892,-0.8625,-0.8411,-0.8262,-0.8106,-0.7952,-0.7972,-0.8048,-0.7955,-0.7972,-0.8048,-0.8038,-0.8038,-0.8038,-0.8038,-0.8038,-0.8041,-0.8041,-0.8045,-0.7979,-0.7982,-0.7879,-0.7834,-0.7834,-0.6687,-0.1515,-0.0,-0.0,-0.0,-0.0,-0.0,-0.0,-0.0,-0.0,-0.0,-0.0,-0.0,-0.0,-0.0,-0.0,-0.0,-0.0,-0.0,-0.0,-0.0,-0.0,-0.0,-0.0,-0.0,-0.0,-0.0,-0.0,-0.0,-0.0,-0.0,-0.0,-0.0,-0.0,-0.0,-0.0,-0.0,-0.0,-0.0,-0.0,-0.0,-0.0,-0.0,-0.0,-0.0,-0.0,0.0,0.0,-0.6923,-0.8175,-0.9,-0.9768,-1.0117,-1.0392,-1.0531,-1.0382,-0.981,-0.9205,-0.8885,-0.8286,-0.792,-0.8422,-0.8621,-0.8832,-0.9396,-0.953,-0.9384,-0.8984,-0.8801,0.0,0.0,0.0,0.0,-0.9001,-0.9062,-0.9242,-0.9591,-0.9513,-0.9503,-0.9605,-0.9459,-0.9381,-0.9381,-0.9381,-0.9303,-0.915,-0.9055,-0.8984,-0.893,-0.8726,-0.8554,-0.8404,-0.8255,-0.8147,-0.7972,-0.7965,-0.7965,-0.7972,-0.7965,-0.7962,-0.7959,-0.8045,-0.8048,-0.7959,-0.8045,-0.8048,-0.7962,-0.7975,-0.6751,-0.5634,-0.7491,-0.8019,-0.7613,-0.577,-0.2726,-0.0,-0.0,-0.0,-0.0,-0.0,-0.0,-0.0,-0.0,-0.0,-0.0,-0.0,-0.0,-0.0,-0.0,-0.0,-0.0,-0.0,-0.0,-0.0,-0.0,-0.0,-0.0,-0.0,-0.0,-0.0,-0.0,-0.0,-0.0,-0.0,-0.0,-0.0,-0.0,-0.0,-0.0,-0.0,-0.0,-0.0,-0.0,-0.0,-0.0,-0.0,-0.0,-0.0,-0.6397,-0.715,-0.7902,-0.9195,-0.9842,-1.0259,-1.0446,-1.0568,-1.0538,-0.9936,-0.9223,-0.8497,-0.7823,-0.6989,-0.6774,-0.7693,-0.7792,-0.8187,-0.9215,-0.9374,-0.9266,-0.8984,-0.8855,-0.8754,0.0,0.0,0.0,-0.8923,-0.9086,-0.9283,-0.9513,-0.9534,-0.9585,-0.9683,-0.9591,-0.9537,-0.9537,-0.9537,-0.9435,-0.9232,-0.9086,-0.8988,-0.8933,-0.8781,-0.8655,-0.8554,-0.8353,-0.8221,-0.814,-0.7985,-0.7962,-0.7962,-0.7962,-0.7965,-0.7972,-0.7955,-0.7962,-0.7975,-0.7959,-0.7962,-0.7975,-0.7985,-0.6145,-0.4119,-0.4937,-0.6475,-0.7613,-0.5667,-0.2625,-0.0,-0.0,-0.0,-0.0,-0.0,-0.0,-0.0,-0.0,-0.0,-0.0,-0.0,-0.0,-0.0,-0.0,-0.0,-0.0,-0.0,-0.0,-0.0,-0.0,-0.0,-0.0,-0.0,-0.0,-0.0,-0.0,-0.0,-0.0,-0.0,-0.0,-0.0,-0.0,-0.0,-0.0,-0.0,-0.0,-0.0,-0.0,-0.0,-0.0,-0.0,-0.0,-0.0,-0.7288,-0.8103,-0.8713,-0.9771,-1.0283,-1.049,-1.0483,-1.0463,-1.0189,-0.9246,-0.87,-0.802,0.0,0.0,-0.6508,-0.7379,-0.7446,-0.7796,-0.9151,-0.9147,-0.9079,0.0,0.0,0.0,0.0,0.0,0.0,-0.896,0.0,-0.9537,-0.9401,-0.9666,-0.9822,-0.9822,-0.9822,-0.9822,-0.9822,-0.9805,-0.9656,-0.9381,-0.9218,-0.9069,-0.8933,-0.8788,-0.8713,-0.8682,-0.8401,-0.8279,-0.8258,-0.8102,-0.8048,-0.8062,-0.8045,-0.7959,-0.7982,-0.7975,-0.7979,-0.7989,-0.7979,-0.7975,-0.7979,-0.8012,-0.6158,-0.3515,-0.0806,-0.3534,-0.6483,-0.1414,-0.0,-0.0,-0.0,-0.0,-0.0,-0.0,-0.0,-0.0,-0.0,-0.0,-0.0,-0.0,-0.0188,-0.028,-0.0,-0.0,-0.0,-0.0,-0.0,-0.0,-0.0,-0.0,-0.0,-0.0,-0.0,-0.0,-0.0,-0.0,-0.0,-0.0,-0.0,-0.0,-0.0,-0.0,-0.0,-0.0,-0.0,-0.0,-0.0,-0.0,-0.0,-0.0,-0.0,-0.0,-0.8504,-0.9302,-0.9881,-1.0304,-1.0436,-1.0463,-1.0358,-0.9824,-0.9074,-0.8433,-0.7169,-0.6019,0.0,0.0,0.0,-0.6293,-0.7058,0.0,-0.9037,-0.9432,0.0,-0.9242,0.0,-0.9347,-0.912,-0.9303,0.0,0.0,-0.9374,-0.9473,-0.9547,-0.9724,-0.9822,-0.9822,-0.9822,-0.9822,-0.9822,-0.9602,-0.9456,-0.9378,-0.9117,-0.8974,-0.8937,-0.8899,-0.8757,-0.8537,-0.8462,-0.8367,-0.8258,-0.8102,-0.817,-0.8347,-0.8126,-0.8016,-0.8011,-0.8012,-0.7979,-0.7992,-0.8006,-0.8002,-0.7985,-0.7995,-0.615,-0.3513,-0.0805,-0.0906,-0.1712,-0.0404,-0.0,-0.0,-0.0,-0.0,-0.0,-0.0,-0.0,-0.0,-0.0,-0.0,-0.0,-0.0,-0.3264,-0.4727,-0.0654,-0.0,-0.0,-0.0,-0.0,-0.0,-0.0,-0.0,-0.0,-0.0,-0.0,-0.0,-0.0,-0.0,-0.0,-0.0,-0.0,-0.0,-0.0,-0.0,-0.0,-0.0,-0.0,-0.0,-0.0,-0.0,-0.0,-0.0,-0.0,-0.0,-0.9364,-0.9951,-1.0409,-1.0555,-1.0493,-1.0324,-0.9921,-0.9225,-0.8444,-0.7452,-0.6263,0.0,0.0,0.0,0.0,0.0,0.0,0.0,-0.8769,-0.9286,-0.9486,0.0,-0.9561,0.0,-0.9462,-0.9663,-0.9741,0.0,-0.9635,-0.9656,-0.9612,-0.9808,-0.989,-0.9822,-0.9822,-0.9822,-0.9822,-0.9656,-0.9544,-0.9479,-0.9245,-0.91,-0.9028,-0.8967,-0.8845,-0.8676,0.0,-0.8476,-0.8442,-0.8157,-0.8177,-0.8367,-0.8133,-0.8002,-0.7978,-0.8009,-0.7992,-0.8009,-0.8032,-0.8026,-0.8009,-0.8019,-0.6983,-0.5445,-0.3937,-0.1916,-0.0,-0.0,-0.0,-0.0,-0.0,-0.0,-0.0,-0.0,-0.0,-0.0,-0.0,-0.0,-0.0703,-0.3054,-0.4022,-0.4263,-0.3637,-0.1583,-0.0,-0.0,-0.0,-0.0,-0.0,-0.0,-0.0,-0.0,-0.0,-0.0,-0.0,-0.0,-0.0,-0.0,-0.0,-0.0,-0.0,-0.0,-0.0,-0.0,-0.0,-0.0,-0.0,-0.0,-0.0,-0.0,-0.0,-0.0,-0.9798,-1.031,-1.0551,-1.0663,-1.0453,-1.009,-0.9357,-0.8667,-0.7792,-0.6325,0.0,-0.5036,-0.4485,0.0,-0.4545,-0.6093,0.0,-0.7059,-0.8508,-0.8998,-0.9289,-0.9578,-0.9751,-0.9842,-0.9822,-0.9961,-0.9985,-0.9832,-0.9964,-0.9927,-0.9652,-0.988,-0.9958,-0.9825,-0.9822,-0.9822,-0.9822,-0.9802,-0.973,-0.9608,-0.9435,-0.9283,-0.9147,-0.9005,-0.8927,-0.8893,-0.8628,0.0,-0.8652,-0.8258,-0.8191,-0.8316,-0.8157,-0.8109,-0.8026,-0.8019,-0.7811,-0.7403,-0.7012,-0.6905,-0.7098,-0.774,-0.773,-0.751,-0.7942,-0.476,-0.0909,-0.0202,-0.0,-0.0,-0.0,-0.0,-0.0,-0.0,-0.0,-0.0,-0.0,-0.0,-0.1406,-0.6046,-0.3796,-0.2284,-0.6225,-0.368,-0.0847,-0.009,-0.0,-0.0,-0.0,-0.0,-0.0,-0.0,-0.0,-0.0,-0.0,-0.0,-0.0,-0.0,-0.0,-0.0,-0.0,-0.0,-0.0,-0.0,-0.0,-0.0,-0.0,-0.0,-0.0,-0.0,-0.0,-0.0,-1.0314,-1.0544,-1.0656,-1.0558,-1.0212,-0.9597,-0.8795,-0.7682,0.0,0.0,0.0,-0.4346,-0.4342,-0.4468,0.0,-0.6225,0.0,0.0,0.0,0.0,-0.9408,0.0,0.0,0.0,0.0,0.0,0.0,0.0,0.0,-0.9971,-0.9795,-0.9832,-0.9849,-0.9822,-0.9822,-0.9822,-0.9822,-0.9703,-0.9635,-0.9605,-0.9327,-0.9178,-0.9147,-0.9005,-0.8869,-0.8747,-0.8696,0.0,-0.8516,-0.8438,-0.8496,-0.8618,-0.8465,-0.8408,-0.8397,-0.808,-0.663,-0.4423,-0.2113,-0.1409,-0.2114,-0.6586,-0.6472,-0.5135,-0.7299,-0.7308,-0.5667,-0.1212,-0.0,-0.0,-0.0,-0.0,-0.0,-0.0,-0.0,-0.0,-0.0,-0.0,-0.0303,-0.1207,-0.4236,-0.5494,-0.2006,-0.429,-0.5099,-0.0633,-0.0,-0.0,-0.0,-0.0,-0.0,-0.0,-0.0,-0.0,-0.0,-0.0,-0.0,-0.0,-0.0,-0.0,-0.0,-0.0,-0.0,-0.0,-0.0,-0.0,-0.0,-0.0,-0.0,-0.0,-0.0,-0.0,-1.0005,-1.0297,-1.0683,-1.0531,-1.0097,-0.9355,-0.8249,0.0,0.0,0.0,0.0,-0.4184,-0.4405,0.0,0.0,0.0,0.0,0.0,0.0,0.0,0.0,0.0,0.0,0.0,0.0,0.0,0.0,0.0,0.0,-0.9981,-0.9829,-0.9822,-0.9822,-0.9822,-0.9822,-0.9822,-0.9822,-0.9754,-0.9683,-0.9605,-0.9381,-0.9228,-0.9147,-0.9005,-0.8899,-0.8825,-0.8747,0.0,-0.8706,-0.8547,-0.8577,-0.8595,-0.8472,-0.8391,-0.8488,-0.8146,-0.7229,-0.5548,-0.1411,-0.0,-0.0403,-0.3027,-0.4847,-0.5754,-0.4343,-0.384,-0.3332,-0.0707,-0.0,-0.0,-0.0,-0.0,-0.0,-0.0,-0.0,-0.0,-0.0,-0.0,-0.0,-0.0,-0.2118,-0.3906,-0.4089,-0.394,-0.2929,-0.0367,-0.0,-0.0,-0.0,-0.0,-0.0,-0.0,-0.0,-0.0,-0.0,-0.0,-0.0,-0.0,-0.0,-0.0,-0.0,-0.0,-0.0,-0.0,-0.0,-0.0,-0.0,-0.0,-0.0,-0.0,-0.0,-0.0,-0.9638,-1.0139,-1.0636,-1.0483,-0.9998,-0.9161,-0.7788,-0.6816,0.0,0.0,-0.4204,-0.4132,-0.4556,0.0,0.0,0.0,0.0,0.0,0.0,0.0,0.0,0.0,0.0,0.0,0.0,0.0,0.0,0.0,0.0,0.0,-0.9829,-0.9822,-0.9822,-0.9822,-0.9822,-0.9822,-0.9822,-0.9822,-0.9751,-0.9608,-0.9456,-0.93,-0.9147,-0.9005,-0.894,-0.893,-0.8818,0.0,0.0,-0.8679,-0.8528,-0.8464,-0.7722,-0.7513,-0.757,-0.7373,-0.7532,-0.7409,-0.3131,-0.101,-0.0,-0.0,-0.2827,-0.5464,-0.1313,-0.0,-0.0,-0.0,-0.0,-0.0,-0.0,-0.0,-0.0,-0.0,-0.0,-0.0,-0.0,-0.0,-0.0,-0.0,-0.0,-0.1305,-0.5527,-0.2811,-0.0,-0.0,-0.0,-0.0,-0.0,-0.0,-0.0,-0.0,-0.0,-0.0,-0.0,-0.0,-0.0,-0.0,-0.0,-0.0,-0.0,-0.0,-0.0,-0.0,-0.0,-0.0,-0.0,-0.0,-0.0,-0.0,-0.0,-0.0,-0.992,-1.0266,-1.0477,-1.0334,-0.9846,-0.898,-0.7521,0.0,0.0,-0.4579,-0.4219,-0.4167,-0.4538,-0.4439,0.0,0.0,0.0,0.0,0.0,0.0,0.0,0.0,0.0,0.0,0.0,0.0,0.0,0.0,0.0,0.0,-0.9822,-0.9822,-0.9822,-0.9822,-0.9822,-0.9822,-0.9822,-0.9822,-0.9751,-0.9608,-0.9456,-0.93,-0.9147,-0.9005,-0.894,-0.894,-0.8833,0.0,0.0,-0.8793,-0.8696,-0.8252,-0.5836,-0.4892,-0.4856,-0.4848,-0.6146,-0.7922,-0.7406,-0.4043,-0.0,-0.0,-0.0303,-0.0606,-0.0101,-0.0,-0.0,-0.0,-0.0,-0.0,-0.0,-0.0,-0.0,-0.0,-0.0,-0.0,-0.0,-0.0,-0.0,-0.0,-0.0,-0.0201,-0.0689,-0.0294,-0.0,-0.0,-0.0,-0.0,-0.0,-0.0,-0.0,-0.0,-0.0,-0.0,-0.0,-0.0,-0.0,-0.0,-0.0,-0.0,-0.0,-0.0,-0.0,-0.0,-0.0,-0.0,-0.0,-0.0,-0.0,-0.0,-0.0,-0.0,-0.8954,-0.9656,-1.0327,-1.0178,-0.9755,-0.9085,-0.745,0.0,0.0,-0.4244,-0.3964,-0.3895,-0.4003,-0.4009,-0.4125,0.0,0.0,0.0,0.0,0.0,0.0,0.0,0.0,0.0,0.0,0.0,0.0,0.0,0.0,0.0,-0.9822,-0.9822,-0.9822,-0.9822,-0.9822,-0.9822,-0.9822,-0.9822,-0.9703,-0.9469,-0.9412,-0.9256,-0.9022,-0.8964,-0.8947,-0.885,-0.886,0.0,0.0,-0.6267,-0.72,-0.8676,-0.756,-0.4938,-0.1758,-0.184,-0.2333,-0.3232,-0.3232,-0.1817,-0.0,-0.0,-0.0,-0.0,-0.0,-0.0,-0.0,-0.0,-0.0,-0.0,-0.0,-0.0,-0.0,-0.0,-0.0,-0.0,-0.0,-0.0,-0.0,-0.0,-0.0,-0.0,-0.0,-0.0,-0.0,-0.0,-0.0,-0.0,-0.0,-0.0,-0.0,-0.0,-0.0,-0.0,-0.0,-0.0,-0.0,-0.0,-0.0,-0.0,-0.0,-0.0,-0.0,-0.0,-0.0,-0.0,-0.0,-0.0,-0.0,-0.0,-0.0,-0.0,-0.8099,-0.8994,-0.9876,-0.9812,-0.9512,-0.8649,0.0,0.0,0.0,-0.3957,-0.368,-0.3588,-0.3681,-0.3815,-0.3908,0.0,0.0,0.0,0.0,0.0,0.0,0.0,0.0,0.0,0.0,0.0,0.0,0.0,0.0,0.0,-0.9822,-0.9822,-0.9822,-0.9822,-0.9829,-0.9832,-0.9832,-0.9842,-0.97,-0.9521,-0.9401,-0.9245,-0.885,-0.885,-0.8944,-0.8916,-0.8923,0.0,0.0,-0.3897,-0.4402,-0.6253,-0.6279,-0.3727,-0.0,-0.0,-0.0,-0.0,-0.0,-0.0,-0.0,-0.0,-0.0,-0.0,-0.0,-0.0,-0.0,-0.0,-0.0,-0.0,-0.0,-0.0,-0.0,-0.0,-0.0,-0.0,-0.0,-0.0,-0.0,-0.0,-0.0,-0.0,-0.0,-0.0,-0.0,-0.0,-0.0,-0.0,-0.0,-0.0,-0.0,-0.0,-0.0,-0.0,-0.0,-0.0,-0.0,-0.0,-0.0,-0.0,-0.0,-0.0,-0.0,-0.0,-0.0,-0.0,-0.0,-0.0,-0.0,-0.0,-0.0,-0.0,-0.7712,-0.8387,-0.9022,-0.9394,-0.8862,-0.7601,0.0,0.0,0.0,-0.3783,-0.3439,-0.3382,-0.3666,-0.3875,-0.3977,-0.3839,-0.4279,0.0,0.0,0.0,0.0,0.0,0.0,0.0,0.0,0.0,0.0,0.0,0.0,0.0,-0.9822,-0.9822,-0.9822,-0.9822,-0.9842,-0.9856,-0.9856,-0.9767,-0.9754,-0.9813,-0.9569,-0.9178,-0.8897,-0.8897,-0.8927,0.0,0.0,0.0,0.0,-0.2453,-0.0106,-0.0104,-0.0104,-0.0103,-0.0,-0.0,-0.0,-0.0,-0.0,-0.0,-0.0,-0.0,-0.0,-0.0,-0.0,-0.0,-0.0,-0.0,-0.0,-0.0,-0.0,-0.0,-0.0,-0.0,-0.0,-0.0,-0.0,-0.0,-0.0,-0.0,-0.0,-0.0,-0.0,-0.0,-0.0,-0.0,-0.0,-0.0,-0.0,-0.0,-0.0,-0.0,-0.0,-0.0,-0.0,-0.0,-0.0,-0.0,-0.0,-0.0,-0.0,-0.0,-0.0,-0.0,-0.0,-0.0,-0.0,-0.0,-0.0,-0.0,-0.0,-0.0,-0.6684,-0.7155,-0.7548,-0.7691,-0.659,-0.5378,-0.4945,0.0,0.0,-0.3249,-0.3107,-0.3083,-0.328,-0.3467,-0.3675,-0.3848,-0.4094,0.0,0.0,0.0,0.0,0.0,0.0,0.0,0.0,0.0,0.0,0.0,0.0,0.0,-0.9846,-0.9771,-0.9764,-0.9842,-0.9852,-0.8696,-0.6415,-0.6422,-0.6444,-0.6472,-0.6355,-0.6173,-0.5933,-0.5863,-0.704,0.0,0.0,0.0,0.0,-0.0733,-0.0,-0.0,-0.0,-0.0,-0.0,-0.0,-0.0,-0.0,-0.0,-0.0,-0.0,-0.0,-0.0,-0.0,-0.0,-0.0,-0.0,-0.0,-0.0,-0.0,-0.0,-0.0,-0.0,-0.0,-0.0,-0.0,-0.0,-0.0,-0.0,-0.0,-0.0,-0.0,-0.0,-0.0,-0.0,-0.0,-0.0,-0.0,-0.0,-0.0,-0.0,-0.0,-0.0,-0.0,-0.0,-0.0,-0.0,-0.0,-0.0,-0.0,-0.0,-0.0,-0.0,-0.0,-0.0,-0.0,-0.0,-0.0,-0.0,-0.0,-0.0,-0.0,0.0,-0.616,-0.6344,-0.6195,-0.5138,0.0,0.0,0.0,0.0,0.0,-0.2757,-0.2815,-0.3012,-0.33,-0.3558,-0.3729,-0.391,0.0,0.0,0.0,0.0,0.0,0.0,0.0,0.0,0.0,0.0,0.0,0.0,0.0,-0.8052,-0.7993,-0.8462,-0.9717,-0.984,-0.8818,-0.681,-0.4292,-0.3058,-0.3093,-0.3073,-0.2927,-0.2769,-0.2831,-0.3774,0.0,0.0,0.0,0.0,-0.0,-0.0,-0.0,-0.0,-0.0,-0.0,-0.0,-0.0,-0.0,-0.0,-0.0,-0.0,-0.0,-0.0,-0.0,-0.0,-0.0,-0.0,-0.0,-0.0,-0.0,-0.0,-0.0,-0.0,-0.0,-0.0,-0.0,-0.0,-0.0,-0.0,-0.0,-0.0,-0.0,-0.0,-0.0,-0.0,-0.0,-0.0,-0.0,-0.0,-0.0,-0.0,-0.0,-0.0,-0.0,-0.0,-0.0,-0.0,-0.0,-0.0,-0.0,-0.0,-0.0,-0.0,-0.0,-0.0,-0.0,-0.0,-0.0,-0.0,-0.0,-0.0,-0.0,0.0,0.0,0.0,0.0,0.0,0.0,0.0,0.0,0.0,0.0,0.0,0.0,0.0,-0.3239,-0.3567,-0.351,0.0,0.0,0.0,0.0,0.0,0.0,0.0,0.0,0.0,0.0,0.0,0.0,0.0,0.0,-0.5402,-0.5033,-0.6442,-0.9717,-0.9824,-0.9583,-0.9111,-0.3058,-0.0,-0.0,-0.0,-0.0,-0.0,-0.0,-0.0,0.0,0.0,0.0,0.0,-0.0,-0.0,-0.0,-0.0,-0.0,-0.0,-0.0,-0.0,-0.0,-0.0,-0.0,-0.0,-0.0,-0.0,-0.0,-0.0,-0.0,-0.0,-0.0,-0.0,-0.0,-0.0,-0.0,-0.0,-0.0,-0.0,-0.0,-0.0,-0.0,-0.0,-0.0,-0.0,-0.0,-0.0,-0.0,-0.0,-0.0,-0.0,-0.0,-0.0,-0.0,-0.0,-0.0,-0.0,-0.0,-0.0,-0.0,-0.0,-0.0,-0.0,-0.0,-0.0,-0.0,-0.0,-0.0,-0.0,-0.0,-0.0,-0.0,-0.0,-0.0,-0.0,-0.0,-0.3524,0.0,-0.4033,-0.3851,0.0,0.0,0.0,0.0,0.0,0.0,0.0,0.0,0.0,0.0,0.0,0.0,0.0,0.0,0.0,0.0,0.0,0.0,0.0,0.0,0.0,0.0,0.0,0.0,0.0,-0.9449,-0.8685,-0.6217,-0.6406,-0.9697,-0.9813,-0.7347,-0.2312,-0.0809,-0.0,-0.0,-0.0,-0.0,-0.0,-0.0,-0.0,0.0,0.0,0.0,-0.0,-0.0,-0.0,-0.0,-0.0,-0.0,-0.0,-0.0,-0.0,-0.0,-0.0,-0.0,-0.0,-0.0,-0.0,-0.0,-0.0,-0.0,-0.0,-0.0,-0.0,-0.0,-0.0,-0.0,-0.0,-0.0,-0.0,-0.0,-0.0,-0.0,-0.0,-0.0,-0.0,-0.0,-0.0,-0.0,-0.0,-0.0,-0.0,-0.0,-0.0,-0.0,-0.0,-0.0,-0.0,-0.0,-0.0,-0.0,-0.0,-0.0,-0.0,-0.0,-0.0,-0.0,-0.0,-0.0,-0.0,-0.0,-0.0,-0.0,-0.0,-0.0,-0.0,-0.0,-0.2794,-0.3083,-0.3415,-0.3141,-0.2826,-0.2427,0.0,0.0,0.0,0.0,0.0,0.0,0.0,0.0,0.0,0.0,0.0,0.0,0.0,0.0,0.0,0.0,0.0,0.0,0.0,0.0,0.0,0.0,0.0,-0.5291,-0.5251,-0.3585,-0.3443,-0.5248,-0.5278,-0.3572,-0.0,-0.0,-0.0,-0.0,-0.0,-0.0,-0.0,-0.0,-0.0,0.0,0.0,0.0,-0.0,-0.0,-0.0,-0.0,-0.0,-0.0,-0.0,-0.0,-0.0,-0.0,-0.0,-0.0,-0.0,-0.0,-0.0,-0.0,-0.0,-0.0,-0.0,-0.0,-0.0,-0.0,-0.0,-0.0,-0.0,-0.0,-0.0,-0.0,-0.0,-0.0,-0.0,-0.0,-0.0,-0.0,-0.0,-0.0,-0.0,-0.0,-0.0,-0.0,-0.0,-0.0,-0.0,-0.0,-0.0,-0.0,-0.0,-0.0,-0.0,-0.0,-0.0,-0.0,-0.0,-0.0,-0.0,-0.0,-0.0,-0.0,-0.0,-0.0,-0.0,-0.0,-0.0,-0.0,-0.2317,-0.2616,-0.2891,-0.2592,-0.2477,-0.2301,0.0,0.0,0.0,0.0,0.0,0.0,0.0,0.0,0.0,0.0,0.0,0.0,0.0,0.0,0.0,0.0,0.0,0.0,0.0,0.0,0.0,0.0,0.0,-0.0,-0.0,-0.0,-0.0,-0.0,-0.0,-0.0,-0.0,-0.0,-0.0,-0.0,-0.0,-0.0,-0.0,-0.0,-0.0,-0.0,0.0,0.0,-0.0,-0.0,-0.0,-0.0,-0.0,-0.0,-0.0,-0.0,-0.0,-0.0,-0.0,-0.0,-0.0101,-0.0909,-0.0707,-0.0,-0.0,-0.0,-0.0,-0.0,-0.0,-0.0,-0.0,-0.0,-0.0,-0.0,-0.0,-0.0,-0.0,-0.0,-0.0,-0.0,-0.0,-0.0,-0.0,-0.0,-0.0,-0.0,-0.0,-0.0,-0.0,-0.0,-0.0,-0.0,-0.0,-0.0,-0.0,-0.0,-0.0,-0.0,-0.0,-0.0,-0.0,-0.0,-0.0,-0.0,-0.0,-0.0,-0.0,-0.0,-0.0,-0.0,-0.0,-0.0,-0.1431,-0.1429,-0.1586,-0.1908,-0.1828,-0.1587,0.0,0.0,0.0,0.0,0.0,0.0,0.0,0.0,0.0,0.0,0.0,0.0,0.0,0.0,0.0,0.0,0.0,0.0,0.0,0.0,0.0,0.0,0.0,-0.0,-0.0,-0.0,-0.0,-0.0,-0.0,-0.0,-0.0,-0.0,-0.0,-0.0,-0.0,-0.0,-0.0,-0.0,-0.0,-0.0,0.0,-0.0,-0.0,-0.0,-0.0,-0.0,-0.0,-0.0,-0.0,-0.0,-0.0,-0.0,-0.0,-0.0,-0.0707,-0.526,-0.3739,-0.0,-0.0,-0.0,-0.0,-0.0,-0.0,-0.0,-0.0,-0.0,-0.0,-0.0,-0.0,-0.0,-0.0,-0.0,-0.0,-0.0,-0.0,-0.0,-0.0,-0.0,-0.0,-0.0,-0.0,-0.0,-0.0,-0.0,-0.0,-0.0,-0.0,-0.0,-0.0,-0.0,-0.0,-0.0,-0.0,-0.0,-0.0,-0.0,-0.0,-0.0,-0.0,-0.0,-0.0,-0.0,-0.0,-0.0,-0.0,-0.0,-0.0942,-0.1034,-0.119,-0.1131,-0.1194,-0.1201,0.0,0.0,0.0,0.0,0.0,0.0,0.0,0.0,0.0,0.0,0.0,0.0,0.0,0.0,0.0,0.0,0.0,0.0,0.0,0.0,0.0,0.0,0.0,0.0,-0.0,-0.0,-0.0,-0.0,-0.0,-0.0,-0.0,-0.0,-0.0,-0.0,-0.0,-0.0,-0.0,-0.0,-0.0,-0.0,0.0,-0.0,-0.0,-0.0,-0.0,-0.0,-0.0,-0.0,-0.0,-0.0,-0.0,-0.0,-0.0,-0.0,-0.0404,-0.2828,-0.3945,-0.3745,-0.0908,-0.0,-0.0,-0.0,-0.0,-0.0,-0.0,-0.0,-0.0,-0.0,-0.0,-0.0,-0.0,-0.0,-0.0,-0.0,-0.0,-0.0,-0.0,-0.0,-0.0,-0.0,-0.0,-0.0,-0.0,-0.0,-0.0,-0.0,-0.0,-0.0,-0.0,-0.0,-0.0,-0.0,-0.0,-0.0,-0.0,-0.0,-0.0,-0.0,-0.0,-0.0,-0.0,-0.0,-0.0,-0.0,-0.0,-0.0,-0.0764,-0.0905,-0.0965,-0.0627,0.0,-0.0926,-0.051,0.0,0.0,0.0,0.0,0.0,0.0,0.0,0.0,0.0,0.0,0.0,0.0,0.0,0.0,0.0,0.0,0.0,0.0,0.0,0.0,0.0,0.0,0.0,-0.0,-0.0,-0.0,-0.0,-0.0,-0.0,-0.0,-0.0,-0.0,-0.0,-0.0,-0.0,-0.0,-0.0,-0.0,-0.0,-0.0,-0.0,-0.0,-0.0,-0.0,-0.0,-0.0,-0.0,-0.0,-0.0,-0.0,-0.0,-0.0,-0.0,-0.0,-0.0,-0.2729,-0.5581,-0.2729,-0.101,-0.0,-0.0,-0.0,-0.0,-0.0,-0.0,-0.0,-0.0,-0.0,-0.0,-0.0,-0.0,-0.0,-0.0,-0.0,-0.0,-0.0,-0.0,-0.0,-0.0,-0.0,-0.0,-0.0,-0.0,-0.0,-0.0,-0.0,-0.0,-0.0,-0.0,-0.0,-0.0,-0.0,-0.0,-0.0,-0.0,-0.0,-0.0,-0.0,-0.0,-0.0,-0.0,-0.0,-0.0,-0.0,-0.0,-0.09,-0.0714,-0.0656,-0.0962,0.0,0.0,-0.0802,0.0,0.0,0.0,0.0,0.0,0.0,0.0,0.0,0.0,0.0,0.0,0.0,0.0,0.0,0.0,0.0,0.0,0.0,0.0,0.0,0.0,0.0,0.0,-0.0,-0.0,-0.0,-0.0,-0.0,-0.0,-0.0,-0.0,-0.0,-0.0,-0.0,-0.0,-0.0,-0.0,-0.0,-0.0,-0.0,-0.0,-0.0,-0.0,-0.0,-0.0,-0.0,-0.0,-0.0,-0.0,-0.0,-0.0,-0.0,-0.0,-0.0,-0.0,-0.0302,-0.1414,-0.6075,-0.394,-0.0,-0.0,-0.0,-0.0,-0.0,-0.0,-0.0,-0.0,-0.0,-0.0,-0.0,-0.0,-0.0,-0.0,-0.0,-0.0,-0.0,-0.0,-0.0,-0.0,-0.0,-0.0,-0.0,-0.0,-0.0,-0.0,-0.0,-0.0,-0.0,-0.0,-0.0,-0.0,-0.0,-0.0,-0.0,-0.0,-0.0,-0.0,-0.0,-0.0,-0.0,-0.0,-0.0,-0.0,-0.0,-0.0,-0.1113,-0.1022,-0.0863,-0.0972,0.0,0.0,0.0,0.0,0.0,0.0,0.0,0.0,0.0,0.0,0.0,0.0,0.0,0.0,0.0,0.0,0.0,0.0,0.0,0.0,0.0,0.0,0.0,0.0,0.0,0.0,-0.0,-0.0,-0.0,-0.0,-0.0,-0.0,-0.0,-0.0,-0.0,-0.0,-0.0,-0.0,-0.0,-0.0,-0.0,-0.0,-0.0,-0.0,-0.0,-0.0,-0.0,-0.0,-0.0,-0.0,-0.0,-0.0,-0.0,-0.0,-0.0,-0.0,-0.0,-0.0,-0.0,-0.0404,-0.2424,-0.1615,-0.0,-0.0,-0.0,-0.0,-0.0,-0.0,-0.0,-0.0,-0.0,-0.0,-0.0,-0.0,-0.0,-0.0,-0.0,-0.0,-0.0,-0.0,-0.0,-0.0,-0.0,-0.0,-0.0,-0.0,-0.0,-0.0,-0.0,-0.0,-0.0,-0.0,-0.0,-0.0,-0.0,-0.0,-0.0,-0.0,-0.0,-0.0,-0.0,-0.0,-0.0,-0.0,-0.0,-0.0,-0.0,-0.0,-0.121,-0.1214,-0.1163,0.0,0.0,0.0,0.0,0.0,0.0,0.0,0.0,0.0,0.0,0.0,0.0,0.0,0.0,0.0,0.0,0.0,0.0,0.0,0.0,0.0,0.0,0.0,0.0,0.0,0.0,0.0,0.0,-0.0,-0.0,-0.0,-0.0,-0.0,-0.0,-0.0,-0.0,-0.0,-0.0,-0.0,-0.0,-0.0,-0.0,-0.0,-0.0,-0.0,-0.0,-0.0,-0.0,-0.0,-0.0,-0.0,-0.0,-0.0,-0.0,-0.0,-0.0,-0.0,-0.0,-0.0,-0.0,-0.0,-0.0,-0.0,-0.0,-0.0,-0.0,-0.0,-0.0,-0.0,-0.0,-0.0,-0.0,-0.0,-0.0,-0.0,-0.0,-0.0,-0.0,-0.0,-0.0,-0.0,-0.0,-0.0,-0.0,-0.0,-0.0,-0.0,-0.0,-0.0,-0.0,-0.0,-0.0,-0.0,-0.0,-0.0,-0.0,-0.0,-0.0,-0.0,-0.0,-0.0,-0.0,-0.0,-0.0,-0.0,-0.0,-0.0,-0.0,-0.0,-0.106,-0.1193,0.0,0.0,0.0,0.0,0.0,0.0,0.0,0.0,0.0,0.0,0.0,0.0,0.0,0.0,0.0,0.0,0.0,0.0,0.0,0.0,0.0,0.0,0.0,0.0,0.0,0.0,0.0,0.0,0.0,-0.0,-0.0,-0.0,-0.0,-0.0,-0.0,-0.0,-0.0,-0.0,-0.0,-0.0,-0.0,-0.0,-0.0,-0.0,-0.0,-0.0,-0.0,-0.0,-0.0,-0.0,-0.0,-0.0,-0.0,-0.0,-0.0,-0.0,-0.0,-0.0,-0.0,-0.0,-0.0,-0.0,-0.0,-0.0,-0.0,-0.0,-0.0,-0.0,-0.0,-0.0,-0.0,-0.0,-0.0,-0.0,-0.0,-0.0,-0.0,-0.0,-0.0,-0.0,-0.0,-0.0,-0.0,-0.0,-0.0,-0.0,-0.0,-0.0,-0.0,-0.0,-0.0,-0.0,-0.0,-0.0,-0.0,-0.0,-0.0,-0.0,-0.0,-0.0,-0.0,-0.0,-0.0,-0.0,-0.0,-0.0,-0.0,-0.0,-0.0,0.0086,-0.1189,0.0,0.0,0.0,0.0,0.0,0.0,0.0,0.0,0.0,0.0,0.0,0.0,0.0,0.0,0.0,0.0,0.0,0.0,0.0,0.0,0.0,0.0,0.0,0.0,0.0,0.0,0.0,0.0,0.0,0.0,-0.0,-0.0,-0.0,-0.0,-0.0,-0.0,-0.0,-0.0,-0.0,-0.0,-0.0,-0.0,-0.0,-0.0,-0.0,-0.0,-0.0,-0.0,-0.0,-0.0,-0.0,-0.0,-0.0,-0.0,-0.0,-0.0,-0.0,-0.0,-0.0,-0.0,-0.0,-0.0,-0.0,-0.0,-0.0,-0.0,-0.0,-0.0,-0.0,-0.0,-0.0,-0.0,-0.0,-0.0,-0.0,-0.0,-0.0,-0.0,-0.0,-0.0,-0.0,-0.0,-0.0,-0.0,-0.0,-0.0,-0.0,-0.0,-0.0,-0.0,-0.0,-0.0,-0.0,-0.0,-0.0,-0.0,-0.0,-0.0,-0.0,-0.0,-0.0,-0.0,-0.0,-0.0,-0.0,-0.0,-0.0,-0.0,0.0088,0.3007,0.4459,-0.1093,0.0,0.0,0.0,0.0,0.0,0.0,0.0,0.0,0.0,0.0,0.0,0.0,0.0,0.0,0.0,0.0,0.0,0.0,0.0,0.0,0.0,0.0,0.0,0.0,0.0,0.0,0.0,0.0,0.0,0.0,-0.0,-0.0,-0.0,-0.0,-0.0,-0.0,-0.0,-0.0,-0.0,-0.0,-0.0,-0.0,-0.0,-0.0,-0.0,-0.0,-0.0,-0.0,-0.0,-0.0,-0.0,-0.0,-0.0,-0.0,-0.0,-0.0,-0.0,-0.0,-0.0,-0.0,-0.0,-0.0,-0.0,-0.0,-0.0,-0.0,-0.0,-0.0,-0.0,-0.0,-0.0,-0.0,-0.0,-0.0,-0.0,-0.0,-0.0,-0.0,-0.0,-0.0,-0.0,-0.0,-0.0,-0.0,-0.0,-0.0,-0.0,-0.0,-0.0,-0.0,-0.0,-0.0,-0.0,-0.0,-0.0,-0.0,-0.0,-0.0,-0.0,-0.0,-0.0,-0.0,-0.0,-0.0,-0.0,-0.0,0.1671,0.2523,0.2522,0.425,0.5496,0.0,0.0,0.0,0.0,0.0,0.0,0.0,0.0,0.0,0.0,0.0,0.0,0.0,0.0,0.0,0.0,0.0,0.0,0.0,0.0,0.0,0.0,0.0,0.0,0.0,0.0,0.0,0.0,0.0,0.0,0.0,-0.0,-0.0,-0.0,-0.0,-0.0,-0.0,-0.0,-0.0,-0.0,-0.0,-0.0,-0.0,-0.0,-0.0,-0.0,-0.0,-0.0,-0.0,-0.0,-0.0,-0.0,-0.0,-0.0,-0.0,-0.0,-0.0,-0.0,-0.0,-0.0,-0.0,-0.0,-0.0,-0.0,-0.0,-0.0,-0.0,-0.0,-0.0,-0.0,-0.0,-0.0,-0.0,-0.0,-0.0,-0.0,-0.0,-0.0,-0.0,-0.0,-0.0,-0.0,-0.0,-0.0,-0.0,-0.0,-0.0,-0.0,-0.0,-0.0,-0.0,-0.0,-0.0,-0.0,-0.0,-0.0,-0.0,-0.0,-0.0,-0.0,-0.0,-0.0,-0.0,-0.0,-0.0,-0.0,-0.0,0.4204,0.6337,0.6248,0.43,0.4454,0.0,0.0,0.0,0.0,0.0,0.0,0.0,0.0,0.0,0.0,0.0,0.0,0.0,0.0,0.0,0.0,0.0,0.0,0.0,0.0,0.0,0.0,0.0,0.0,0.0,0.0,0.0,0.0,0.0,0.0,-0.0,-0.0,-0.0,-0.0,-0.0,-0.0,-0.0,-0.0,-0.0,0.0,-0.0,-0.0,-0.0,-0.0,-0.0,-0.0,-0.0,-0.0,-0.0,-0.0,-0.0,-0.0,-0.0,-0.0,-0.0,-0.0,-0.0,-0.0,-0.0,-0.0,-0.0,-0.0,-0.0,-0.0,-0.0,-0.0,-0.0,-0.0,-0.0,-0.0,-0.0,-0.0,-0.0,-0.0,-0.0,-0.0,-0.0,-0.0,-0.0,-0.0,-0.0,-0.0,-0.0,-0.0,-0.0,-0.0,-0.0,-0.0,-0.0,-0.0,-0.0,-0.0,-0.0,-0.0,-0.0,-0.0,-0.0,-0.0,-0.0,-0.0,-0.0,-0.0,-0.0,-0.0,-0.0,-0.0,-0.0,0.4221,0.6315,0.6309,0.5808,0.5874,0.0,0.0,0.0,0.0,0.0,0.0,0.0,0.0,0.0,0.0,0.0,0.0,0.0,0.0,0.0,0.0,0.0,0.0,0.0,0.0,0.0,0.0,0.0,0.0,0.0,0.0,0.0,0.0,0.0,-0.0,-0.0,-0.0,-0.0,-0.0,-0.0,-0.0,-0.0,-0.0,-0.0,-0.0,-0.0,-0.0,-0.0,-0.0,-0.0,-0.0,-0.0,-0.0,-0.0,-0.0,-0.0,-0.0,-0.0,-0.0,-0.0,-0.0,-0.0,-0.0,-0.0,-0.0,-0.0,-0.0,-0.0,-0.0,-0.0,-0.0,-0.0,-0.0,-0.0,-0.0,-0.0,-0.0,-0.0,-0.0,-0.0,-0.0,-0.0,-0.0,-0.0,-0.0,-0.0,-0.0,-0.0,-0.0,-0.0,-0.0,-0.0,-0.0,-0.0,-0.0,-0.0,-0.0,-0.0,-0.0,-0.0,-0.0,-0.0,-0.0,-0.0,-0.0,-0.0,0.2156,0.2335,-0.0,-0.0,0.0957,0.3045,0.4161,0.5294,0.628,0.627,0.6271,0.0,0.0,0.0,0.0,0.0,0.0,0.0,0.0,0.0,0.0,0.0,0.0,0.0,0.0,0.0,0.0,0.0,0.0,0.0,0.0,0.0,0.0,0.0,0.0,0.0,0.0,0.0,0.0,0.0,-0.0,-0.0,-0.0,-0.0,-0.0,-0.0,-0.0,-0.0,-0.0,-0.0,-0.0,-0.0,-0.0,-0.0,-0.0,-0.0,-0.0,-0.0,-0.0,-0.0,-0.0,-0.0,-0.0,-0.0,-0.0,-0.0,-0.0,-0.0,-0.0,-0.0,-0.0,-0.0,-0.0,-0.0,-0.0,-0.0,-0.0,-0.0,-0.0,-0.0,-0.0,-0.0,-0.0,-0.0,-0.0,-0.0,-0.0,-0.0,-0.0,-0.0,-0.0,-0.0,-0.0,-0.0,-0.0,-0.0,-0.0,-0.0,-0.0,-0.0,-0.0,-0.0,-0.0,-0.0,-0.0,-0.0,-0.0,-0.0,-0.0,-0.0,0.0359,0.1168,0.5041,0.522,0.1346,0.0788,0.2247,0.572,0.4371,0.4591,0.6301,0.6325,0.6338,0.0,0.0,0.0,0.0,0.0,0.0,0.0,0.0,0.0,0.0,0.0,0.0,0.0,0.0,0.0,0.0,0.0,0.0,0.0,0.0,0.0,0.0,0.0,0.0,0.0,0.0,0.0,0.0,-0.0,-0.0,-0.0,-0.0,-0.0,-0.0,-0.0,-0.0,-0.0,-0.0,-0.0,-0.0,-0.0,-0.0,-0.0,-0.0,-0.0,-0.0,-0.0,-0.0,-0.0,-0.0,-0.0,-0.0,-0.0,-0.0,-0.0,-0.0,-0.0,-0.0,-0.0,-0.0,-0.0,-0.0,-0.0,-0.0,-0.0,-0.0,-0.0,-0.0,-0.0,-0.0,-0.0,-0.0,-0.0,-0.0,-0.0,-0.0,-0.0,-0.0,-0.0,-0.0,-0.0,-0.0,-0.0,-0.0,-0.0,-0.0,-0.0,-0.0,-0.0,-0.0,-0.0,-0.0,-0.0,-0.0,-0.0,-0.0,-0.0,-0.0,-0.0,0.1887,0.595,0.677,0.6761,0.6198,0.3871,0.2946,0.3535,0.5074,0.5989,0.6308,0.6278,0.6338,0.0,0.0,0.0,0.0,0.0,0.0,0.0,0.0,0.0,0.0,0.0,0.0,0.0,0.0,0.0,0.0,0.0,0.0,0.0,0.0,0.0,0.0,0.0,0.0,0.0,0.0,0.0,0.0,-0.0,-0.0,-0.0,-0.0,-0.0,-0.0,-0.0,-0.0,-0.0,-0.0,-0.0,-0.0,-0.0,-0.0,-0.0,-0.0,-0.0,-0.0,-0.0,-0.1374,-0.3378,-0.0943,-0.0,-0.0,-0.0,-0.0,-0.0,-0.0,-0.0,-0.0,-0.0,-0.0,-0.0,-0.0,-0.0,-0.0,-0.0,-0.0,-0.0,-0.0,-0.0,-0.0,-0.0,-0.0,-0.0,-0.0,-0.0,-0.0,-0.0,-0.0,-0.0,-0.0,-0.0,-0.0,-0.0,-0.0,-0.0,-0.0,-0.0,-0.0,-0.0,-0.0,-0.0,-0.0,-0.0,-0.0,-0.0,-0.0,-0.0,-0.0,0.2516,0.4949,0.7045,0.7118,0.7061,0.6967,0.5726,0.5155,0.5209,0.6053,0.6479,0.6386,0.6383,0.6335,0.0,0.0,0.0,0.0,0.0,0.0,0.0,0.0,0.0,0.0,0.0,0.0,0.0,0.0,0.0,0.0,0.0,0.0,0.0,0.0,0.0,0.0,0.0,0.0,0.0,0.0,0.0,0.0,-0.0,-0.0,-0.0,-0.0,-0.0,-0.0,-0.0,-0.0,-0.0,-0.0,-0.0,-0.0,-0.0,-0.0,-0.0,-0.1076,-0.1573,-0.1573,-0.1582,-0.3352,-0.608,-0.2926,-0.1253,-0.0754,-0.0168,-0.0,-0.0,-0.0,-0.0,-0.0,-0.0,-0.0,-0.0,-0.0,-0.0,-0.0,-0.0,-0.0,-0.0,-0.0,-0.0,-0.0,-0.0,-0.0,-0.0,-0.0,-0.0,-0.0,-0.0,-0.0,-0.0,-0.0,-0.0,-0.0,-0.0,-0.0,-0.0,-0.0,-0.0,-0.0,-0.0,-0.0,-0.0,-0.0,-0.0,-0.0,-0.0,0.1078,0.1797,0.1797,0.4582,0.6483,0.7032,0.7098,0.7031,0.6907,0.678,0.6723,0.6739,0.661,0.6478,0.642,0.6461,0.64,0.0,0.0,0.0,0.0,0.0,0.0,0.0,0.0,0.0,0.0,0.0,0.0,0.0,0.0,0.0,0.0,0.0,0.0,0.0,0.0,0.0,0.0,0.0,0.0,0.0,0.0,0.0,0.0,-0.0,-0.0,-0.0,-0.0,-0.0,-0.0,-0.0,-0.0,-0.0,-0.0,-0.0,-0.0,-0.0,-0.0,-0.0158,-0.411,-0.5949,-0.5959,-0.6009,-0.6055,-0.6244,-0.6097,-0.4779,-0.2762,-0.0754,-0.0,-0.0,-0.0,-0.0,-0.0,-0.0,-0.0,-0.0,-0.0,-0.0,-0.0,-0.0,-0.0,-0.0,-0.0,-0.0,-0.0,-0.0,-0.0,-0.0,-0.0,-0.0,-0.0,-0.0,-0.0,-0.0,-0.0,-0.0,-0.0,-0.0,-0.0,-0.0,-0.0,-0.0,-0.0,-0.0,-0.0,-0.0,-0.0,-0.0,-0.0,-0.0,0.4137,0.677,0.677,0.4839,0.4736,0.6999,0.7088,0.7071,0.7044,0.6993,0.678,0.6495,0.6418,0.6344,0.6274,0.6351,0.6334,0.0,0.0,0.0,0.0,0.0,0.0,0.0,0.0,0.0,0.0,0.0,0.0,0.0,0.0,0.0,0.0,0.0,0.0,0.0,0.0,0.0,0.0,0.0,0.0,0.0,0.0,0.0,0.0,0.0,-0.0,-0.0,-0.0,-0.0,-0.0,-0.0,-0.0,-0.0,-0.0,-0.0,-0.0,-0.0,-0.0,-0.0153,-0.4387,-0.6314,-0.6332,-0.6284,-0.6324,-0.6288,-0.6331,-0.5851,-0.5068,-0.4355,-0.2416,-0.0,-0.0,-0.0,-0.0,-0.0,-0.0,-0.0,-0.0,-0.0,-0.0,-0.0,-0.0,-0.0,-0.0,-0.0,-0.0,-0.0,-0.0,-0.0,-0.0,-0.0,-0.0,-0.0,-0.0,-0.0,-0.0,-0.0,-0.0,-0.0,-0.0,-0.0,-0.0,-0.0,-0.0,-0.0,-0.0,-0.0,-0.0,-0.0,0.1258,0.4318,0.6132,0.7128,0.7115,0.6278,0.618,0.7084,0.7071,0.7021,0.6927,0.6873,0.6875,0.6766,0.6592,0.6549,0.6396,0.6458,0.6403,0.0,0.0,0.0,0.0,0.0,0.0,0.0,0.0,0.0,0.0,0.0,0.0,0.0,0.0,0.0,0.0,0.0,0.0,0.0,0.0,0.0,0.0,0.0,0.0,0.0,0.0,0.0,0.0,0.0,0.0,-0.0,-0.0,-0.0576,-0.1797,-0.0642,-0.0,-0.0,-0.1217,-0.179,-0.1822,-0.1226,-0.0873,-0.1044,-0.4494,-0.6067,-0.609,-0.6186,-0.6227,-0.6281,-0.6302,-0.6305,-0.6291,-0.6318,-0.4567,-0.196,-0.0549,-0.047,-0.094,-0.0235,-0.0,-0.0,-0.0,-0.0,-0.0,-0.0,-0.0,-0.0,-0.0,-0.0,-0.0,-0.0,-0.0,-0.0,-0.0,-0.0,-0.0,-0.0,-0.0,-0.0,-0.0,-0.0,-0.0,-0.0,-0.0,-0.0,-0.0,-0.0,-0.0,-0.0,-0.0,-0.0,-0.0,-0.0,0.1887,0.6681,0.7128,0.7118,0.7098,0.7081,0.7074,0.7074,0.7068,0.7021,0.6924,0.6477,0.6427,0.6851,0.6672,0.6522,0.6403,0.6458,0.6403,0.0,0.0,0.0,0.0,0.0,0.0,0.0,0.0,0.0,0.0,0.0,0.0,0.0,0.0,0.0,0.0,0.0,0.0,0.0,0.0,0.0,0.0,0.0,0.0,0.0,0.0,0.0,0.0,-0.0076,-0.0148,-0.0141,-0.007,-0.1678,-0.5193,-0.1976,-0.0138,-0.0072,-0.3515,-0.5339,-0.54,-0.3604,-0.2755,-0.2828,-0.4798,-0.5686,-0.5696,-0.5899,-0.6122,-0.6271,-0.6278,-0.6278,-0.6281,-0.6291,-0.6295,-0.5817,-0.1722,-0.1407,-0.2734,-0.0862,-0.0078,-0.0,-0.0,-0.0,-0.0,-0.0,-0.0,-0.0,-0.0,-0.0,-0.0,-0.0,-0.0,-0.0,-0.0,-0.0,-0.0,-0.0,-0.0,-0.0,-0.0,-0.0,-0.0,-0.0,-0.0,-0.0,-0.0,-0.0,-0.0,-0.0,-0.0,-0.0,-0.0,-0.0,0.1887,0.6496,0.7025,0.7098,0.7084,0.7064,0.7139,0.7139,0.7071,0.7071,0.7044,0.5614,0.5499,0.6695,0.6463,0.6319,0.6264,0.6261,0.6331,-0.0304,0.0,0.0,0.0,0.0,0.0,0.0,0.0,0.0,0.0,0.0,0.0,0.0,0.0,0.0,0.0,0.0,0.0,0.0,0.0,0.0,0.0,0.0,0.0,0.0,0.0,0.0,0.0,-0.2047,-0.3237,-0.3253,-0.22,-0.2044,-0.3066,-0.3366,-0.2929,-0.1612,-0.2607,-0.3867,-0.5376,-0.492,-0.4678,-0.4678,-0.5387,-0.5728,-0.5696,-0.5899,-0.6061,-0.6118,-0.624,-0.6291,-0.6291,-0.6312,-0.6312,-0.6139,-0.4959,-0.2981,-0.1174,-0.37,-0.2595,-0.0,-0.0,-0.0,-0.0,-0.0,-0.0,-0.0,-0.0,-0.0,-0.0,-0.0,-0.0,-0.0,-0.0,-0.0,-0.0,-0.0,-0.0,-0.0,-0.0,-0.0,-0.0,-0.0,-0.0,-0.0,-0.0,-0.0,-0.0,-0.0,-0.0,-0.0,-0.0,-0.0,0.0539,0.188,0.5109,0.7098,0.7084,0.7064,0.7139,0.7139,0.7058,0.6474,0.5229,0.6028,0.643,0.6407,0.6496,0.6471,0.6264,0.6308,0.6305,0.0,0.0,0.0,0.0,0.0,0.0,-0.0902,-0.0652,-0.0331,0.0,0.0,0.0,0.0,0.0,0.0,0.0,0.0,0.0,0.0,0.0,0.0,0.0,0.0,0.0,0.0,-0.0,-0.0489,-0.1771,-0.3489,-0.4472,-0.4523,-0.3675,-0.3199,-0.3258,-0.4198,-0.4262,-0.3322,-0.3258,-0.3915,-0.5147,-0.5265,-0.5254,-0.5282,-0.5477,-0.5552,-0.5574,-0.5786,-0.5854,-0.5878,-0.5423,-0.5708,-0.6298,-0.6322,-0.6315,-0.6298,-0.6322,-0.4164,-0.1486,-0.3146,-0.3228,-0.2357,-0.055,-0.0,-0.0,-0.0,-0.0,-0.0,-0.0,-0.0,-0.0,-0.0,-0.0,-0.0,-0.0,-0.0,-0.0,-0.0,-0.0,-0.0,-0.0,-0.0,-0.0,-0.0,-0.0,-0.0,-0.0,-0.0,-0.0,-0.0,-0.0,-0.0,-0.0,0.1797,0.2601,0.1608,0.4921,0.7088,0.7071,0.7058,0.7139,0.7139,0.7061,0.6662,0.5602,0.6595,0.6554,0.5522,0.628,0.6498,0.6338,0.6338,0.6338,0.0,0.0,0.0,0.0,0.0,0.0,-0.1143,-0.108,-0.1001,-0.1005,0.0,0.0,0.0,0.0,0.0,0.0,0.0,0.0,0.0,0.0,0.0,0.0,0.0,0.0,-0.0467,-0.0467,-0.1587,-0.4277,-0.4507,-0.4493,-0.4473,-0.4524,-0.4585,-0.476,-0.4585,-0.4585,-0.476,-0.476,-0.477,-0.4786,-0.4964,-0.5098,-0.5135,-0.5274,-0.5411,-0.5435,-0.5521,-0.5596,-0.562,-0.4528,-0.4941,-0.6271,-0.6213,-0.6288,-0.6274,-0.6315,-0.5104,-0.3117,-0.0784,-0.2435,-0.4969,-0.1256,-0.0,-0.0,-0.0,-0.0,-0.0,-0.0,-0.0,-0.0,-0.0,-0.0,-0.0,-0.0,-0.0,-0.0,-0.0,-0.0,-0.0,-0.0,-0.0,-0.0,-0.0,-0.0,-0.0,-0.0,-0.0,-0.0,-0.0,-0.0,0.018,0.0719,0.4589,0.6212,0.4198,0.5908,0.7078,0.7058,0.7143,0.7139,0.7139,0.7071,0.7064,0.7031,0.7031,0.6091,0.432,0.5801,0.6486,0.6338,0.6338,0.6338,0.0,0.0,0.0,0.0,0.0,0.0,-0.148,-0.1503,-0.1475,0.0,0.0,0.0,0.0,0.0,0.0,0.0,0.0,0.0,0.0,0.0,0.0,0.0,0.0,0.0,-0.3409,-0.3595,-0.3838,-0.4448,-0.4511,-0.4494,-0.4519,-0.4505,-0.4498,-0.4555,-0.4498,-0.4498,-0.4555,-0.4555,-0.4616,-0.4738,-0.4765,-0.4901,-0.5131,-0.5162,-0.5243,-0.5435,-0.5521,-0.5527,-0.5474,-0.5405,-0.5635,-0.6023,-0.5964,-0.6039,-0.6273,-0.6274,-0.6012,-0.5143,-0.1325,-0.055,-0.1099,-0.0236,-0.0,-0.0,-0.0,-0.0,-0.0,-0.0,-0.0,-0.0,-0.0,-0.0,-0.0,-0.0,-0.0,-0.0,-0.0,-0.0,-0.0,-0.0,-0.0,-0.0,-0.0,-0.0,-0.0,-0.0,-0.0,-0.0,-0.0,-0.0,0.1438,0.5313,0.6588,0.6943,0.6462,0.6818,0.7084,0.7078,0.7061,0.7139,0.7139,0.7058,0.7007,0.6897,0.6595,0.5398,0.3405,0.5375,0.6302,0.6338,0.6338,0.6338,0.0,0.0,0.0,-0.112,0.0,0.0,0.0,-0.1786,-0.1917,-0.2342,0.0,0.0,0.0,0.0,0.0,0.0,0.0,0.0,0.0,0.0,0.0,0.0,0.0,0.0,-0.3304,-0.3358,-0.3653,-0.4426,-0.4525,-0.4498,-0.4477,-0.4522,-0.4519,-0.4519,-0.4519,-0.4519,-0.4519,-0.4519,-0.4556,-0.4579,-0.4653,-0.4769,-0.4914,-0.5064,-0.5172,-0.5254,-0.541,-0.5481,-0.543,-0.5503,-0.5627,-0.5706,-0.5949,-0.6115,-0.6057,-0.3904,-0.3142,-0.2885,-0.0768,-0.0,-0.0,-0.0,-0.0,-0.0,-0.0,-0.0,-0.0,-0.0,-0.0,-0.0,-0.0,-0.0,-0.0,-0.0,-0.0,-0.0,-0.0,-0.0,-0.0,-0.0,-0.0,-0.0,-0.0,-0.0,-0.0,-0.0,-0.0,-0.0,-0.0,0.2066,0.4497,0.6863,0.7121,0.7104,0.7094,0.7078,0.7068,0.7068,0.7058,0.7139,0.7139,0.7139,0.663,0.5714,0.6242,0.5907,0.4698,0.5755,0.6274,0.6338,0.6338,0.6338,0.0,0.0,0.0,0.0,0.0,-0.1569,0.0,0.0,0.0,0.0,0.0,0.0,0.0,0.0,0.0,0.0,0.0,0.0,0.0,0.0,0.0,0.0,0.0,0.0,0.0,-0.2623,-0.3181,-0.4418,-0.4477,-0.4473,-0.4519,-0.4519,-0.4519,-0.4519,-0.4519,-0.4519,-0.4519,-0.4519,-0.4519,-0.4519,-0.4585,-0.4663,-0.4701,-0.4907,-0.5044,-0.5142,-0.5298,-0.5372,-0.5382,-0.504,-0.5113,-0.5467,-0.5901,-0.6166,-0.5771,-0.1564,-0.0,-0.0,-0.0,-0.0,-0.0,-0.0,-0.0,-0.0,-0.0,-0.0,-0.0,-0.0,-0.0,-0.0,-0.0,-0.0,-0.0,-0.0,-0.0,-0.0,-0.0,-0.0,-0.0,-0.0,-0.0,-0.0,-0.0,-0.0,-0.0,-0.0,-0.0,-0.0,-0.0,0.4127,0.7135,0.7128,0.7101,0.7084,0.7078,0.7061,0.7139,0.7139,0.7143,0.7132,0.7105,0.7082,0.6291,0.4522,0.5882,0.6505,0.6298,0.6335,0.6271,0.6338,0.6338,0.6338,0.0,0.0,0.0,0.0,-0.1569,0.0,0.0,0.0,-0.2523,-0.2842,0.0,0.0,0.0,0.0,0.0,0.0,0.0,0.0,0.0,0.0,0.0,0.0,0.0,0.0,0.0,-0.4258,-0.4304,-0.4467,-0.4519,-0.4519,-0.4519,-0.4519,-0.4519,-0.4519,-0.4519,-0.4519,-0.4519,-0.4519,-0.4519,-0.4519,-0.4536,-0.4558,-0.4697,-0.4813,-0.4961,-0.5091,-0.5318,-0.5393,-0.5256,-0.3687,-0.3971,-0.5386,-0.5484,-0.5828,-0.5761,-0.1522,-0.0,-0.0,-0.0,-0.0,-0.0,-0.0,-0.0,-0.0,-0.0,-0.0,-0.0,-0.0,-0.0,-0.0,-0.0,-0.0,-0.0,-0.0,-0.0,-0.0,-0.0,-0.0,-0.0,-0.0,-0.0,-0.0,-0.0,-0.0,-0.0,-0.0,-0.0,-0.0,-0.0,0.4178,0.7128,0.7108,0.7094,0.7078,0.7058,0.7143,0.7139,0.7139,0.7071,0.7112,0.7066,0.713,0.6303,0.4568,0.5705,0.6368,0.6305,0.6278,0.6264,0.6338,0.6338,0.6338,0.0,0.0,0.0,0.0,0.0,0.0,-0.2518,0.0,-0.2909,0.0,0.0,0.0,0.0,0.0,0.0,0.0,-0.5193,0.0,0.0,0.0,0.0,0.0,0.0,0.0,0.0,0.0,0.0,0.0,-0.4301,-0.4301,-0.4301,-0.4463,-0.4519,-0.4519,-0.4519,-0.4519,-0.4519,-0.4519,-0.4519,-0.4519,-0.4525,-0.4507,-0.4575,-0.4587,-0.4159,-0.3448,-0.3685,-0.4438,-0.5329,-0.4572,-0.4731,-0.5373,-0.5433,-0.4267,-0.2408,-0.0636,-0.0,-0.0,-0.0,-0.0,-0.0,-0.0,-0.0,-0.0,-0.0,-0.0,-0.0,-0.0,-0.0,-0.0,-0.0,-0.0,-0.0,-0.0,-0.0,-0.0,-0.0,-0.0,-0.0,-0.0,-0.0,-0.0,-0.0,-0.0,-0.0,-0.0,-0.0,0.1014,0.3732,0.4649,0.5579,0.6992,0.7004,0.7027,0.7017,0.6943,0.6932,0.6934,0.5799,0.5048,0.5106,0.6357,0.6255,0.4534,0.5767,0.643,0.6268,0.6264,0.6338,0.6338,0.6338,0.6338,-0.2419,0.0,0.0,0.0,0.0,0.0,0.0,0.0,0.0,0.0,0.0,0.0,0.0,0.0,0.0,0.0,0.0,-0.5053,0.0,0.0,0.0,0.0,0.0,0.0,0.0,0.0,0.0,-0.4338,-0.4354,-0.4316,-0.4356,-0.4467,-0.4519,-0.4519,-0.4519,-0.4519,-0.4519,-0.4519,-0.4519,-0.4522,-0.4477,-0.4252,-0.3866,-0.4323,-0.3872,-0.2804,-0.2232,-0.269,-0.3931,-0.3888,-0.3921,-0.3931,-0.3931,-0.2297,-0.0,-0.0,-0.0,-0.0,-0.0,-0.0,-0.0,-0.0,-0.0,-0.0,-0.0,-0.0,-0.0,-0.0,-0.0,-0.0,-0.0,-0.0,-0.0,-0.0,-0.0,-0.0,-0.0,-0.0,-0.0,-0.0,-0.0,-0.0,-0.0,-0.0,-0.0,-0.0,-0.0,0.1761,0.6529,0.5597,0.5195,0.6897,0.6981,0.691,0.6824,0.6783,0.682,0.6895,0.5392,0.3976,0.2658,0.4222,0.5178,0.5109,0.6058,0.641,0.6325,0.6285,0.6338,0.6338,0.6338,0.6338,0.0,0.0,0.0,-0.3039,0.0,0.0,0.0,0.0,-0.3138,0.0,0.0,0.0,0.0,0.0,0.0,0.0,0.0,0.0,0.0,0.0,0.0,0.0,0.0,0.0,0.0,0.0,-0.4735,-0.4752,-0.4666,-0.4634,-0.468,-0.4574,-0.4519,-0.4519,-0.4519,-0.4519,-0.4519,-0.4519,-0.4522,-0.448,-0.448,-0.3744,-0.2348,-0.3846,-0.4457,-0.429,-0.1362,-0.0133,-0.0194,-0.02,-0.0202,-0.0202,-0.0202,-0.0135,-0.0,-0.0,-0.0,-0.0,-0.0,-0.0,-0.0,-0.0,-0.0,-0.0,-0.0,-0.0,-0.0,-0.0,-0.0,-0.0,-0.0,-0.0,-0.0,-0.0,-0.0,-0.0,-0.0,-0.0,-0.0,-0.0,-0.0,-0.0,-0.0,-0.0,-0.0,-0.0,-0.0,0.1737,0.6467,0.7021,0.7005,0.7101,0.7088,0.6989,0.6729,0.6695,0.683,0.7045,0.7058,0.4897,0.0325,0.0159,0.2224,0.6522,0.6458,0.6287,0.6331,0.6335,0.6338,0.6338,0.6338,0.6338,0.0,0.0,-0.3663,-0.3758,0.0,0.0,0.0,0.0,0.0,0.0,0.0,0.0,0.0,0.0,0.0,0.0,0.0,0.0,0.0,0.0,0.0,0.0,0.0,0.0,0.0,0.0,0.0,-0.4472,-0.4431,-0.4415,-0.4367,-0.4424,-0.4466,-0.4515,-0.4519,-0.4522,-0.4473,-0.4473,-0.448,-0.449,-0.4497,-0.4216,-0.3658,-0.2172,-0.1504,-0.1461,-0.044,-0.0,-0.0,-0.0,-0.1391,-0.3303,-0.0943,-0.0,-0.0,-0.0,-0.0,-0.0,-0.0,-0.0,-0.0,-0.0,-0.0,-0.0,-0.0,-0.0,-0.0,-0.0,-0.0,-0.0,-0.0,-0.0,-0.0,-0.0,-0.0,-0.0,-0.0,-0.0,-0.0,-0.0,-0.0,-0.0,-0.0,-0.0,-0.0,-0.0,-0.0,0.0599,0.2165,0.5188,0.7128,0.7131,0.5735,0.4782,0.4615,0.5782,0.5245,0.2553,0.237,0.1695,0.0079,-0.0,0.073,0.222,0.4131,0.5517,0.6274,0.6291,0.6338,0.6342,0.6359,0.64,-0.4142,-0.4167,0.0,-0.4225,-0.3941,0.0,-0.3579,0.0,0.0,0.0,0.0,0.0,0.0,0.0,0.0,0.0,0.0,0.0,0.0,-0.4643,0.0,0.0,0.0,0.0,0.0,0.0,-0.4664,-0.4528,-0.4451,-0.437,0.0,0.0,-0.4467,-0.4512,-0.4522,-0.4473,-0.448,-0.3968,-0.3978,-0.4504,-0.4511,-0.3943,-0.2813,-0.0881,-0.0722,-0.1947,-0.1948,-0.1552,-0.0992,-0.0984,-0.2713,-0.5138,-0.2831,-0.1144,-0.0,-0.0,-0.0,-0.0,-0.0,-0.0,-0.0,-0.0,-0.0,-0.0,-0.0,-0.0,-0.0,-0.0,-0.0,-0.0,-0.0,-0.0,-0.0,-0.0,-0.0,-0.0,-0.0,-0.0,-0.0,-0.0,-0.0,-0.0,-0.0,-0.0,-0.0,-0.0,-0.0,-0.0,-0.0,0.4157,0.7066,0.7076,0.5705,0.4177,0.2433,0.3417,0.2921,0.0161,-0.0,-0.0,-0.0,-0.0,-0.0,-0.0,0.2609,0.4796,0.6281,0.6369,0.6335,0.6339,0.6485,0.6552]},{"header":{"parameterUnit":"m.s-1","parameterCategory":1,"la1":30.6,"la2":29.2853,"lo1":-89.7004,"lo2":-87.6739,"dy":0.0162,"dx":0.0183,"nx":112,"ny":82,"refTime":"2023-08-18T06:00:00:Z","depth":0,"parameterNumber":3,"parameterNumberName":"V-component_of_WINDS"},"data":[0.0,0.0,0.0,0.0,0.0,0.0,0.0,0.0,0.0,0.0,0.0,0.0,0.0,0.0,0.0,0.0,0.0,0.0,0.0,0.0,0.0,0.0,0.0,0.0,0.0,0.0,0.0,0.0,0.0,0.0,0.0,0.0,0.0,0.0,0.0,0.0,0.0,0.0,0.0,0.0,0.0,0.0,0.0,0.0,0.0,0.0,0.0,0.0,0.0,0.0,0.0,0.0,0.0,0.0,0.0,0.0,0.0,0.0,0.0,0.0,0.0,0.0,0.0,0.0,0.0,0.0,0.0,0.0,0.0,0.0,0.0,0.0,0.0,0.0,0.0,0.0,0.0,0.0,0.0,0.0,0.0,0.0,0.0,0.0,0.0,0.0,0.0,0.0,0.0,0.0,-1.3519,-1.3149,-1.5214,-1.6941,-1.775,-1.8981,-1.859,-1.5938,0.0,0.0,0.0,0.0,0.0,0.0,0.0,0.0,0.0,0.0,0.0,0.0,0.0,0.0,0.0,0.0,0.0,0.0,0.0,0.0,0.0,0.0,0.0,0.0,0.0,0.0,0.0,0.0,0.0,0.0,0.0,0.0,0.0,0.0,0.0,0.0,0.0,0.0,0.0,0.0,0.0,0.0,0.0,0.0,0.0,0.0,0.0,0.0,0.0,0.0,0.0,0.0,0.0,0.0,0.0,0.0,0.0,0.0,0.0,0.0,0.0,0.0,0.0,0.0,0.0,0.0,0.0,0.0,0.0,0.0,0.0,0.0,0.0,0.0,0.0,0.0,0.0,0.0,0.0,0.0,0.0,0.0,0.0,0.0,0.0,0.0,0.0,0.0,0.0,0.0,0.0,0.0,0.0,0.0,0.0,0.0,0.0,0.0,0.0,0.0,0.0,0.0,0.0,0.0,-1.4215,-1.4908,-1.5969,-1.6948,-1.7804,-1.7385,-1.6798,-1.6163,0.0,0.0,0.0,0.0,0.0,0.0,0.0,0.0,0.0,0.0,0.0,0.0,0.0,0.0,0.0,0.0,0.0,0.0,0.0,0.0,0.0,0.0,0.0,0.0,0.0,0.0,0.0,0.0,0.0,0.0,0.0,0.0,0.0,0.0,0.0,0.0,0.0,0.0,0.0,0.0,0.0,0.0,0.0,0.0,0.0,0.0,0.0,0.0,0.0,0.0,0.0,0.0,0.0,0.0,0.0,0.0,0.0,0.0,0.0,0.0,0.0,0.0,0.0,0.0,0.0,0.0,0.0,0.0,0.0,0.0,0.0,0.0,0.0,0.0,0.0,0.0,0.0,0.0,0.0,0.0,0.0,0.0,0.0,0.0,0.0,0.0,0.0,0.0,0.0,0.0,0.0,0.0,0.0,0.0,0.0,0.0,0.0,0.0,0.0,0.0,0.0,0.0,0.0,-1.4045,-1.4227,-1.4648,-1.5836,-1.6767,-1.7164,-1.6802,-1.6643,-1.6893,-1.7474,0.0,0.0,0.0,0.0,0.0,0.0,0.0,0.0,0.0,0.0,0.0,0.0,0.0,0.0,0.0,0.0,0.0,0.0,0.0,0.0,0.0,0.0,0.0,0.0,0.0,0.0,0.0,0.0,0.0,0.0,0.0,0.0,0.0,0.0,0.0,0.0,0.0,0.0,0.0,0.0,0.0,0.0,0.0,0.0,0.0,0.0,0.0,0.0,0.0,0.0,0.0,0.0,0.0,0.0,0.0,0.0,0.0,0.0,0.0,0.0,0.0,0.0,0.0,0.0,0.0,0.0,0.0,0.0,0.0,0.0,0.0,0.0,0.0,0.0,0.0,0.0,0.0,0.0,0.0,0.0,0.0,0.0,0.0,0.0,0.0,0.0,0.0,0.0,0.0,0.0,0.0,0.0,0.0,0.0,0.0,0.0,0.0,0.0,0.0,0.0,0.0,0.0,-1.4223,-1.418,-1.4375,-1.5547,-1.6318,-1.6312,-1.649,-1.677,-1.7208,-1.7399,0.0,0.0,0.0,0.0,0.0,0.0,0.0,0.0,0.0,0.0,0.0,0.0,0.0,0.0,0.0,0.0,0.0,0.0,0.0,0.0,0.0,0.0,0.0,0.0,0.0,0.0,0.0,0.0,0.0,0.0,0.0,0.0,0.0,0.0,0.0,0.0,0.0,0.0,0.0,0.0,0.0,0.0,0.0,0.0,0.0,0.0,0.0,0.0,0.0,0.0,0.0,0.0,0.0,0.0,0.0,0.0,0.0,0.0,0.0,0.0,0.0,0.0,0.0,0.0,0.0,0.0,0.0,0.0,0.0,0.0,0.0,0.0,0.0,0.0,0.0,0.0,0.0,0.0,0.0,0.0,0.0,0.0,0.0,0.0,0.0,0.0,0.0,0.0,0.0,0.0,0.0,0.0,0.0,0.0,0.0,0.0,0.0,0.0,0.0,0.0,0.0,0.0,-1.4554,-1.4414,-1.5215,-1.541,-1.5488,-1.5487,-1.6116,-1.6505,-1.6474,-1.7686,0.0,0.0,0.0,0.0,0.0,0.0,0.0,0.0,0.0,0.0,0.0,0.0,0.0,0.0,0.0,0.0,0.0,0.0,0.0,0.0,0.0,0.0,0.0,0.0,0.0,0.0,0.0,0.0,0.0,0.0,0.0,0.0,0.0,0.0,0.0,0.0,0.0,0.0,0.0,0.0,0.0,0.0,0.0,0.0,0.0,0.0,0.0,0.0,0.0,0.0,0.0,0.0,0.0,0.0,0.0,0.0,0.0,0.0,0.0,0.0,0.0,0.0,0.0,0.0,0.0,0.0,0.0,0.0,0.0,0.0,0.0,0.0,0.0,0.0,0.0,0.0,0.0,0.0,0.0,0.0,0.0,0.0,0.0,0.0,0.0,0.0,0.0,0.0,0.0,0.0,0.0,0.0,0.0,0.0,0.0,0.0,0.0,0.0,0.0,0.0,0.0,0.0,-1.5404,-1.4986,0.0,-1.5391,-1.5391,-1.5391,-1.6142,-1.6798,-1.7185,0.0,0.0,0.0,0.0,0.0,0.0,0.0,0.0,0.0,0.0,0.0,0.0,0.0,0.0,0.0,0.0,0.0,0.0,0.0,0.0,0.0,0.0,0.0,0.0,0.0,0.0,0.0,0.0,0.0,0.0,0.0,0.0,0.0,0.0,0.0,0.0,0.0,0.0,0.0,0.0,0.0,0.0,0.0,0.0,0.0,0.0,0.0,0.0,0.0,0.0,0.0,0.0,0.0,0.0,0.0,0.0,0.0,0.0,0.0,0.0,0.0,0.0,0.0,0.0,0.0,0.0,0.0,0.0,0.0,0.0,0.0,0.0,0.0,0.0,0.0,0.0,0.0,0.0,0.0,0.0,0.0,0.0,0.0,0.0,0.0,0.0,0.0,0.0,0.0,0.0,0.0,0.0,0.0,0.0,0.0,0.0,0.0,0.0,0.0,0.0,0.0,0.0,-1.659,-1.5873,-1.5345,0.0,-1.5644,-1.5801,-1.5801,-1.6836,-1.7774,-1.8474,0.0,0.0,0.0,0.0,0.0,0.0,0.0,0.0,0.0,0.0,0.0,0.0,0.0,0.0,0.0,0.0,0.0,0.0,0.0,0.0,0.0,0.0,0.0,0.0,0.0,0.0,0.0,0.0,0.0,0.0,0.0,0.0,0.0,0.0,0.0,0.0,0.0,0.0,0.0,0.0,0.0,0.0,0.0,0.0,0.0,0.0,0.0,0.0,0.0,0.0,0.0,0.0,0.0,0.0,0.0,0.0,0.0,0.0,0.0,0.0,0.0,0.0,0.0,0.0,0.0,0.0,0.0,0.0,0.0,0.0,0.0,0.0,0.0,0.0,0.0,0.0,0.0,0.0,0.0,0.0,0.0,0.0,0.0,0.0,0.0,0.0,0.0,0.0,0.0,0.0,0.0,0.0,0.0,0.0,0.0,0.0,0.0,0.0,0.0,0.0,0.0,0.0,-1.6437,-1.5885,-1.543,-1.543,-1.6191,-1.6719,-1.6719,-1.8184,-1.9443,0.0,0.0,0.0,0.0,0.0,0.0,0.0,0.0,0.0,0.0,0.0,0.0,0.0,0.0,0.0,0.0,0.0,0.0,0.0,0.0,0.0,0.0,0.0,0.0,0.0,0.0,0.0,0.0,0.0,0.0,0.0,0.0,0.0,0.0,0.0,0.0,0.0,0.0,0.0,0.0,0.0,0.0,0.0,0.0,0.0,0.0,0.0,0.0,0.0,0.0,0.0,0.0,0.0,0.0,0.0,0.0,0.0,0.0,0.0,0.0,0.0,0.0,0.0,0.0,0.0,0.0,0.0,0.0,0.0,0.0,0.0,0.0,0.0,0.0,0.0,0.0,0.0,0.0,0.0,0.0,0.0,0.0,0.0,0.0,0.0,0.0,0.0,0.0,0.0,0.0,0.0,0.0,0.0,0.0,0.0,0.0,0.0,0.0,0.0,0.0,0.0,0.0,0.0,-1.8442,-1.7747,-1.7227,-1.7227,-1.7461,-1.7617,-1.7617,-1.8613,-1.956,-2.0322,0.0,0.0,0.0,0.0,0.0,0.0,0.0,0.0,0.0,0.0,0.0,0.0,0.0,0.0,0.0,0.0,0.0,0.0,0.0,0.0,0.0,0.0,0.0,0.0,0.0,0.0,0.0,0.0,0.0,0.0,0.0,0.0,0.0,0.0,0.0,0.0,0.0,0.0,0.0,0.0,0.0,0.0,0.0,0.0,0.0,0.0,0.0,0.0,0.0,0.0,0.0,0.0,0.0,0.0,0.0,0.0,0.0,0.0,0.0,0.0,0.0,0.0,0.0,0.0,0.0,0.0,0.0,0.0,0.0,0.0,0.0,0.0,0.0,0.0,0.0,0.0,0.0,0.0,0.0,0.0,0.0,0.0,0.0,0.0,0.0,0.0,0.0,0.0,0.0,0.0,0.0,0.0,0.0,0.0,0.0,0.0,0.0,0.0,0.0,0.0,0.0,0.0,-1.9177,-1.8503,-1.8008,-1.8008,-1.8301,-1.8516,-1.8516,-1.9296,-2.0254,-2.1364,0.0,0.0,0.0,0.0,0.0,0.0,0.0,0.0,0.0,0.0,0.0,0.0,0.0,0.0,0.0,0.0,0.0,0.0,0.0,0.0,0.0,0.0,0.0,0.0,0.0,0.0,0.0,0.0,0.0,0.0,0.0,0.0,0.0,0.0,0.0,0.0,0.0,0.0,0.0,0.0,0.0,0.0,0.0,0.0,0.0,0.0,0.0,0.0,0.0,0.0,0.0,0.0,0.0,0.0,0.0,0.0,0.0,0.0,0.0,0.0,0.0,0.0,0.0,0.0,0.0,0.0,0.0,0.0,0.0,0.0,0.0,0.0,0.0,0.0,0.0,0.0,0.0,0.0,0.0,0.0,0.0,0.0,0.0,0.0,0.0,0.0,0.0,0.0,0.0,0.0,0.0,0.0,0.0,0.0,0.0,0.0,0.0,0.0,0.0,0.0,0.0,0.0,-1.9241,-1.8705,-1.8301,-1.8477,-1.9121,-1.957,-1.9668,-2.0331,-2.1411,-2.3023,0.0,0.0,0.0,0.0,0.0,0.0,0.0,0.0,0.0,0.0,0.0,0.0,0.0,0.0,0.0,0.0,0.0,0.0,0.0,0.0,0.0,0.0,0.0,0.0,0.0,0.0,0.0,0.0,0.0,0.0,0.0,0.0,0.0,0.0,0.0,0.0,0.0,0.0,0.0,0.0,0.0,0.0,0.0,0.0,0.0,0.0,0.0,0.0,0.0,0.0,0.0,0.0,0.0,0.0,0.0,0.0,0.0,0.0,0.0,0.0,-1.8141,0.0,0.0,0.0,0.0,0.0,0.0,0.0,0.0,0.0,0.0,0.0,0.0,0.0,0.0,0.0,0.0,0.0,0.0,0.0,0.0,0.0,0.0,0.0,0.0,0.0,0.0,0.0,0.0,0.0,0.0,0.0,0.0,0.0,0.0,0.0,0.0,0.0,0.0,0.0,0.0,0.0,-2.1123,-2.0522,-2.0566,-2.1934,-2.1641,-2.1621,-2.2305,-2.2475,-2.2978,-2.3966,-2.3823,0.0,0.0,0.0,0.0,0.0,0.0,0.0,0.0,0.0,0.0,0.0,0.0,0.0,0.0,0.0,0.0,0.0,0.0,0.0,0.0,0.0,0.0,0.0,0.0,0.0,0.0,0.0,0.0,0.0,0.0,0.0,0.0,0.0,0.0,0.0,0.0,0.0,0.0,0.0,0.0,0.0,0.0,0.0,0.0,0.0,0.0,0.0,0.0,0.0,0.0,0.0,0.0,0.0,0.0,0.0,0.0,0.0,0.0,0.0,0.0,-1.9584,0.0,0.0,0.0,0.0,0.0,0.0,0.0,0.0,0.0,0.0,0.0,0.0,0.0,0.0,0.0,0.0,0.0,0.0,0.0,0.0,0.0,0.0,0.0,0.0,0.0,0.0,0.0,0.0,0.0,0.0,0.0,0.0,0.0,0.0,0.0,0.0,0.0,0.0,0.0,0.0,-2.2374,-2.2086,-2.2187,-2.3066,-2.2754,-2.2676,-2.3164,-2.3144,-2.3432,-2.4249,-2.4302,0.0,0.0,0.0,0.0,0.0,0.0,0.0,0.0,0.0,0.0,0.0,0.0,0.0,0.0,0.0,0.0,0.0,0.0,0.0,0.0,0.0,0.0,0.0,0.0,0.0,0.0,0.0,0.0,0.0,0.0,0.0,0.0,0.0,0.0,0.0,0.0,0.0,0.0,0.0,0.0,0.0,0.0,0.0,0.0,0.0,0.0,0.0,0.0,0.0,0.0,0.0,0.0,0.0,-2.6578,-2.7733,-2.8571,-2.8572,-2.9449,-3.0728,-2.6813,-2.5254,-2.521,-2.1966,0.0,0.0,0.0,0.0,0.0,0.0,0.0,0.0,0.0,0.0,0.0,0.0,0.0,0.0,0.0,0.0,0.0,0.0,0.0,0.0,0.0,0.0,0.0,0.0,-2.5434,-2.5449,0.0,0.0,0.0,0.0,0.0,0.0,0.0,0.0,0.0,0.0,0.0,0.0,-2.3306,-2.3233,-2.3281,-2.3535,-2.3418,-2.3418,-2.3613,-2.3594,-2.3848,-2.4492,-2.4534,-2.4872,0.0,0.0,0.0,0.0,0.0,0.0,0.0,0.0,0.0,0.0,0.0,0.0,0.0,0.0,0.0,0.0,0.0,0.0,0.0,0.0,0.0,0.0,0.0,0.0,0.0,0.0,0.0,0.0,0.0,0.0,0.0,0.0,-1.8553,-2.0527,0.0,0.0,0.0,0.0,0.0,0.0,0.0,0.0,0.0,0.0,0.0,0.0,0.0,-2.6355,-2.95,-2.9645,-3.087,-3.3164,-3.3398,-3.3965,-3.4805,-3.4804,-3.5351,-3.6171,-3.4072,0.0,-2.9817,-2.7093,0.0,0.0,0.0,0.0,0.0,0.0,0.0,0.0,0.0,0.0,0.0,0.0,0.0,0.0,0.0,0.0,0.0,0.0,0.0,0.0,0.0,0.0,-2.6513,-2.661,-2.7313,-2.783,0.0,-2.56,-2.3728,-2.295,-2.294,0.0,0.0,0.0,0.0,0.0,0.0,0.0,-2.4131,-2.3577,-2.3691,-2.5195,-2.4687,-2.4531,-2.5312,-2.5352,-2.5391,-2.5508,-2.5527,-2.5565,-2.5682,-2.4842,0.0,0.0,0.0,0.0,0.0,0.0,0.0,0.0,0.0,0.0,0.0,0.0,0.0,0.0,0.0,0.0,0.0,0.0,0.0,0.0,0.0,0.0,0.0,0.0,0.0,0.0,0.0,0.0,0.0,-1.9885,-2.224,-2.3984,-2.4078,-2.3497,0.0,0.0,0.0,0.0,0.0,0.0,0.0,0.0,0.0,-2.9366,-2.9834,-3.124,-3.3745,-3.4254,-3.5292,-3.6894,-3.7871,-3.8789,-3.9609,-3.9609,-4.0078,-4.082,-3.9569,-3.8395,-3.6989,-3.1979,-2.9383,-2.8376,0.0,0.0,0.0,0.0,-2.4922,-2.4921,-2.4922,-2.5732,0.0,-2.6152,0.0,0.0,0.0,0.0,0.0,0.0,0.0,0.0,0.0,0.0,-2.8407,-2.845,-2.9498,-3.0215,-2.9238,-2.8492,-2.7466,0.0,-2.5605,-2.5681,-2.5001,0.0,0.0,0.0,0.0,-2.4703,-2.5076,-2.4802,-2.4844,-2.5625,-2.5352,-2.5293,-2.5664,-2.5703,-2.5703,-2.5703,-2.5703,-2.5703,-2.5703,-2.5332,-2.5134,0.0,0.0,0.0,0.0,0.0,0.0,0.0,0.0,0.0,0.0,0.0,0.0,0.0,0.0,0.0,0.0,0.0,0.0,0.0,0.0,0.0,0.0,0.0,0.0,0.0,0.0,0.0,0.0,-2.2484,-2.5054,-2.6797,-2.72,-2.6752,0.0,0.0,0.0,0.0,0.0,0.0,-2.7498,-2.9231,-3.157,-3.4623,-3.5169,-3.6121,-3.7617,-3.8496,-3.9375,-4.0254,-4.1543,-4.2598,-4.3398,-4.3398,-4.375,-4.4316,-4.3437,-4.3066,-4.2598,-3.6637,-3.3632,-3.268,-3.1403,-3.0507,-2.9916,-2.9683,-2.9605,-2.9607,-2.9605,-3.0038,-3.0537,-3.0348,0.0,-2.8651,-2.7323,0.0,0.0,0.0,0.0,-2.7054,-2.8031,-2.9227,-3.019,-3.0251,-3.1406,-3.2148,-3.0859,-3.1074,-3.0703,0.0,-2.7773,-2.7734,-2.6392,0.0,0.0,0.0,0.0,-2.5703,-2.5703,-2.5703,-2.5703,-2.5703,-2.5703,-2.5703,-2.5703,-2.5703,-2.5703,-2.5703,-2.5703,-2.5703,-2.5703,-2.5703,-2.5703,-2.5703,0.0,0.0,0.0,0.0,0.0,0.0,0.0,0.0,0.0,0.0,0.0,0.0,0.0,0.0,0.0,0.0,0.0,0.0,0.0,0.0,0.0,0.0,0.0,0.0,0.0,0.0,0.0,0.0,0.0,-2.6797,-2.9883,0.0,0.0,0.0,0.0,-2.7878,-2.9344,-3.1097,-3.2902,-3.4602,-3.639,-3.828,-3.9941,-4.1211,-4.207,-4.2949,-4.3828,-4.4687,-4.4766,-4.5254,-4.6094,-4.6094,-4.6133,-4.6113,-4.5254,-4.4863,-4.459,-4.0996,-3.9004,-3.7969,-3.543,-3.4414,-3.4277,-3.3451,-3.3141,-3.3144,-3.3144,-3.3164,-3.3476,-3.5098,-3.5019,-3.3848,-3.1308,-3.0429,0.0,0.0,-3.0986,-3.0645,-3.1515,-3.1915,-3.207,-3.207,-3.2715,-3.332,-3.3223,-3.3242,-3.2266,0.0,-2.8262,-2.8223,-2.8008,0.0,-2.688,-2.6753,-2.6145,-2.5703,-2.5703,-2.5703,-2.5703,-2.5703,-2.5703,-2.5703,-2.5703,-2.5703,-2.5703,-2.5703,-2.5703,-2.5703,-2.5703,-2.5703,-2.5703,-2.5703,-2.4844,0.0,0.0,0.0,0.0,0.0,0.0,0.0,0.0,0.0,0.0,0.0,0.0,0.0,0.0,0.0,0.0,0.0,0.0,0.0,0.0,0.0,0.0,0.0,0.0,0.0,0.0,0.0,0.0,-3.0084,-3.3357,0.0,-3.2975,-3.3609,-3.3652,-3.2469,-3.4498,-3.6305,-3.7526,-3.9169,-4.0899,-4.2656,-4.332,-4.4043,-4.4902,-4.5215,-4.5527,-4.584,-4.584,-4.5996,-4.6308,-4.6308,-4.6308,-4.6289,-4.5976,-4.584,-4.5742,-4.4512,-4.2832,-4.0898,-3.9453,-3.8887,-3.8848,-3.8534,-3.8418,-3.8418,-3.8418,-3.8047,-3.7402,-3.6348,-3.5039,-3.3594,-3.2148,-3.1289,-3.1015,-3.1849,-3.1887,-3.1995,-3.3384,-3.3775,-3.3945,-3.4512,-3.4863,-3.4922,-3.4355,-3.4238,-3.3711,-3.1934,-3.0703,-2.9785,-2.918,-2.8379,-2.7827,-2.7775,-2.7542,-2.7168,-2.6602,-2.6543,-2.6328,-2.5762,-2.5703,-2.5703,-2.5703,-2.5703,-2.5703,-2.5703,-2.5703,-2.5703,-2.5703,-2.5703,-2.5703,-2.5703,-2.5391,-2.49,0.0,0.0,0.0,0.0,0.0,0.0,0.0,0.0,0.0,0.0,0.0,0.0,0.0,0.0,0.0,0.0,0.0,0.0,0.0,0.0,0.0,0.0,0.0,0.0,0.0,0.0,-3.1924,-3.3651,-3.6676,-3.8262,-3.7402,-3.809,-3.8354,-3.7784,-4.017,-4.1894,-4.2461,-4.3828,-4.5117,-4.6289,-4.6328,-4.6445,-4.6738,-4.6683,-4.6546,-4.6308,-4.625,-4.6269,-4.6308,-4.6308,-4.6308,-4.6308,-4.6308,-4.6308,-4.6308,-4.6308,-4.5273,-4.3633,-4.2812,-4.248,-4.2441,-4.2148,-4.2031,-4.1992,-4.1719,-4.123,-4.0351,-3.8066,-3.6523,-3.5449,-3.4609,-3.3965,-3.3613,-3.4199,-3.4355,-3.4629,-3.5723,-3.6016,-3.6152,-3.6738,-3.6875,-3.6641,-3.5762,-3.5586,-3.5312,-3.4453,-3.291,-3.1556,-3.0928,-3.0328,-2.995,-2.99,-2.9893,-2.9701,-2.9135,-2.8335,-2.7598,-2.7012,-2.6191,-2.5703,-2.5703,-2.6217,-2.6305,-2.5742,-2.623,-2.6287,-2.572,-2.5974,-2.6149,-2.6149,-2.6223,-2.609,-2.5716,0.0,0.0,0.0,0.0,0.0,0.0,0.0,0.0,0.0,0.0,0.0,0.0,0.0,0.0,0.0,0.0,0.0,0.0,0.0,0.0,0.0,0.0,0.0,-2.9494,-3.2593,-3.5445,-3.7276,-3.9803,-4.1074,-4.0254,-4.2402,-4.3867,-4.3867,-4.6211,-4.7637,-4.7637,-4.8437,-4.8906,-4.8906,-4.8906,-4.8476,-4.7597,-4.747,-4.7031,-4.6289,-4.6172,-4.6172,-4.6308,-4.6308,-4.6308,-4.6308,-4.6308,-4.6308,-4.6308,-4.6308,-4.6308,-4.6211,-4.5371,-4.5039,-4.4941,-4.4082,-4.3789,-4.3652,-4.2773,-4.248,-4.2207,-4.0527,-3.9961,-3.9785,-3.8906,-3.8613,-3.8594,-3.8594,-3.8594,-3.8613,-3.8633,-3.8613,-3.8613,-3.8633,-3.8613,-3.8379,-3.7519,-3.7344,-3.707,-3.6211,-3.4687,-3.347,-3.3274,-3.3204,-3.3151,-3.3023,-3.3052,0.0,-3.3037,-3.0911,-2.9413,-2.9433,-2.7246,-2.5781,-2.5801,-2.726,-2.746,-2.5797,-2.7226,-2.7386,-2.5764,-2.6514,-2.696,-2.696,-2.7262,-2.7674,-2.8188,0.0,0.0,0.0,0.0,0.0,0.0,0.0,0.0,0.0,0.0,0.0,0.0,0.0,0.0,0.0,0.0,0.0,0.0,0.0,0.0,0.0,0.0,-3.3299,-3.2375,-3.574,-3.9199,-4.1659,-4.4258,-4.5996,-4.6387,-4.7051,-4.7461,-4.7461,-4.8144,-4.8535,-4.8535,-4.8769,-4.8906,-4.8906,-4.8906,-4.842,-4.7469,-4.7513,-4.7085,-4.6164,-4.6214,-4.6269,-4.6308,-4.6308,-4.6308,-4.6308,-4.6308,-4.6308,-4.6308,-4.6308,-4.6308,-4.6289,-4.6035,-4.5937,-4.5918,-4.5664,-4.5586,-4.5469,-4.459,-4.4297,-4.4004,-4.2266,-4.1328,-4.0684,-3.9805,-3.9101,-3.8594,-3.8594,-3.8594,-3.875,-3.9375,-3.9062,-3.8769,-3.9394,-3.9062,-3.8535,-3.8281,-3.8242,-3.7988,-3.7109,-3.6562,-3.5817,-3.4506,-3.3763,-3.3335,-3.3299,-3.2816,0.0,-3.1602,-3.0355,-2.9748,-3.029,-2.8695,-2.7793,-2.834,-2.7732,-2.6854,-2.5775,-2.6135,-2.617,-2.5728,-2.5926,-2.6054,-2.6054,-2.7375,-2.7201,0.0,0.0,0.0,0.0,0.0,0.0,0.0,0.0,0.0,0.0,0.0,0.0,0.0,0.0,0.0,0.0,0.0,0.0,0.0,0.0,0.0,0.0,-3.5697,-3.9003,-3.9226,-4.1373,-4.3665,-4.5644,-4.7832,-4.9394,-4.9902,-4.9941,-5.0098,-5.0469,-5.0156,-4.9941,-4.9941,-4.9941,-4.9941,-4.9941,-4.9941,-4.9508,-4.8594,-4.858,-4.8152,-4.7271,-4.7295,-4.7138,-4.6836,-4.6836,-4.6641,-4.6308,-4.6308,-4.6308,-4.6308,-4.6308,-4.6308,0.0,0.0,0.0,0.0,0.0,-4.6308,-4.6172,-4.5293,-4.5,-4.4766,-4.3398,-4.2637,-4.2148,-4.1641,-4.1133,-4.0664,-4.0293,-4.0195,-4.0234,-4.0391,-4.0078,-3.9824,-4.0312,-4.0059,-3.959,-3.9219,-3.9141,-3.8887,-3.8008,-3.7832,0.0,-3.6035,-3.532,-3.5056,-3.5321,-3.499,-3.4391,-3.3532,-3.2101,-3.1035,-3.0734,-2.8926,-2.7785,-2.7831,-2.7637,0.0,0.0,0.0,-2.7106,-2.6797,-2.6791,0.0,0.0,0.0,-2.8596,-2.7082,0.0,0.0,0.0,-2.4779,-2.3513,0.0,0.0,0.0,0.0,0.0,0.0,0.0,0.0,0.0,0.0,0.0,0.0,0.0,0.0,0.0,0.0,-4.0462,-4.5057,-4.771,-4.8203,-4.8543,-4.9255,-5.0644,-5.1582,-5.168,-5.1699,-5.2012,-5.2793,-5.2031,-5.1543,-5.1543,0.0,0.0,0.0,0.0,-5.0995,-5.0166,-5.0079,-4.9632,-4.8855,-4.8761,-4.8305,-4.7578,-4.7578,-4.7109,-4.6308,-4.6308,-4.6308,-4.6308,-4.6305,-4.628,-4.6282,-4.6289,-4.6308,-4.6308,-4.6308,-4.6308,-4.6191,-4.541,0.0,0.0,-4.4121,-4.3848,-4.3828,-4.373,-4.3691,-4.3535,-4.2754,-4.2558,-4.2363,-4.1543,-4.1348,-4.1308,-4.1211,-4.1191,-4.0996,-4.0215,-4.0059,-3.9766,-3.8789,-3.8594,-3.832,-3.7441,-3.7285,-3.7391,-3.7797,-3.7914,-3.7603,-3.6634,-3.4565,-3.2626,-3.1153,0.0,0.0,-2.6323,-2.7362,-2.7768,-2.7048,-2.842,-2.898,-2.8339,-2.8398,-2.8747,-2.9341,-3.032,-3.0704,-3.051,-2.9902,-2.9152,-2.8216,-2.5024,-2.391,0.0,0.0,0.0,0.0,0.0,0.0,0.0,0.0,0.0,0.0,0.0,0.0,0.0,0.0,0.0,-4.238,-4.6131,-4.9412,-5.1341,-5.2865,-5.3327,-5.2106,-5.2246,-5.2715,-5.3437,-5.3496,-5.3574,-5.373,-5.2949,-5.2441,-5.2441,-5.1777,-5.1357,-5.1246,-5.1347,-5.0908,-4.9892,-5.0068,-4.9632,-4.8585,0.0,0.0,-4.7441,-4.7441,-4.7012,-4.6308,-4.6308,-4.6308,-4.6307,-4.6309,-4.6225,-4.6158,-4.6257,-4.6308,-4.6308,-4.6308,-4.6308,-4.6289,-4.6113,-4.6055,-4.5898,-4.5039,-4.4746,-4.4629,-4.3906,-4.3691,0.0,-4.3496,-4.3457,-4.3242,-4.2383,-4.2168,-4.1992,-4.1348,-4.1191,-4.1152,-4.0976,-4.0957,-4.0488,-3.8906,-3.8594,-3.832,-3.7441,-3.7851,-3.7871,-3.6594,-3.6417,-3.5868,-3.4287,-3.3105,-3.2511,-3.2765,-3.0586,-2.9269,-2.9698,-2.8194,-2.7166,-2.7005,-2.7942,-2.8444,-2.8301,-2.8984,-2.9082,-2.8533,-3.0076,-3.0193,-2.8782,-2.9328,-2.9143,-2.8261,-2.6894,-2.5955,0.0,0.0,0.0,0.0,0.0,0.0,0.0,0.0,0.0,0.0,0.0,-3.6268,0.0,0.0,-4.4208,-4.6833,-5.0169,-5.2926,-5.4312,-5.5702,-5.5796,-5.3612,-5.4121,-5.4648,-5.4648,-5.4648,-5.4473,-5.4023,-5.313,-5.2407,-5.1979,-5.1492,-5.1222,-5.1155,-5.1214,-5.0992,-5.0458,-5.0591,-5.0357,-4.9804,-4.987,-4.9215,-4.7942,-4.795,-4.7264,-4.6093,-4.6168,-4.6191,-4.6209,-4.6203,-4.6161,-4.6097,-4.6091,-4.6098,-4.6117,-4.6189,-4.6165,-4.6117,-4.6247,-4.6269,-4.6133,-4.5762,-4.5644,-4.5566,-4.5137,-4.5,-4.4902,-4.4473,-4.4355,-4.4043,-4.2734,-4.2402,-4.2207,-4.1387,-4.1191,-4.1191,-4.1191,-4.1191,-4.0937,-4.0078,-3.9902,-3.9492,-3.8184,-3.8672,-3.8652,-3.6914,-3.6289,-3.5527,-3.4219,-3.332,-3.2617,-3.2148,-3.0219,-2.8923,-2.8846,-2.8112,-2.7832,-2.8262,-2.8711,-2.8945,-2.8945,-2.9375,-2.9394,-2.8965,-3.0234,-3.0469,-2.9609,-2.9601,-2.9386,-2.8926,-2.8066,-2.7422,0.0,0.0,0.0,0.0,0.0,0.0,0.0,0.0,-3.4664,-3.6774,-3.8838,-4.1055,-4.3529,-4.6024,-4.8423,-5.0584,-5.3436,-5.5617,-5.6265,-5.7073,-5.6788,-5.4679,-5.5702,-5.6269,-5.5371,-5.5282,-5.497,-5.4264,-5.3288,-5.2472,-5.1953,-5.1543,-5.1319,-5.1299,-5.117,-5.1095,-5.1066,-5.1086,-5.1086,-5.1066,-5.1057,-5.024,-4.872,-4.8542,-4.763,-4.6153,-4.6093,-4.6071,-4.6092,-4.6067,-4.6046,-4.6046,-4.5911,-4.5849,-4.5852,-4.6016,-4.5981,-4.5944,-4.6143,-4.6156,-4.6088,-4.621,-4.6269,-4.6269,-4.6289,-4.6308,-4.6152,-4.5449,-4.5254,-4.4883,-4.3301,-4.291,-4.2656,-4.168,-4.1426,-4.1387,-4.123,-4.1191,-4.1152,-4.0976,-4.0957,-4.0508,-3.9082,-3.9297,-3.9062,-3.7305,-3.6582,-3.5879,-3.4824,-3.3945,-3.2812,-3.1309,-2.959,-2.8203,-2.7324,-2.8047,-2.8848,-2.9551,-2.9766,-2.9844,-2.9844,-2.9844,-2.9844,-2.9844,-3.0547,-3.0898,-3.0898,-3.0195,-2.9844,-2.9844,-2.9121,-2.8613,-3.139,-3.0092,-2.9998,-3.1254,-3.3234,-3.5853,0.0,0.0,-4.5663,-4.6638,-4.9412,-5.1566,-5.1195,-5.321,-5.5023,-5.5344,-5.6347,-5.6905,-5.6297,-5.6329,-5.6281,-5.5979,-5.6341,-5.6269,-5.5371,-5.518,-5.509,-5.4979,-5.4047,-5.3771,-5.4437,-5.3013,-5.2106,-5.1992,-5.1414,-5.1029,-5.0912,-5.1028,-5.1028,-5.0912,-5.0914,-5.0414,-4.9452,-4.8678,-4.7863,-4.7012,-4.624,-4.5982,-4.6092,-4.5912,-4.5873,-4.5911,-4.5719,-4.562,-4.5651,-4.5835,-4.5912,-4.5891,-4.593,-4.5937,-4.5949,-4.6087,-4.6113,-4.6133,-4.6269,-4.6308,-4.6289,-4.6172,-4.6152,-4.5937,-4.4961,-4.4707,-4.4297,-4.2656,-4.2266,-4.207,-4.1348,-4.1191,-4.0976,-4.0195,-4.0059,-3.998,-3.9785,-3.9199,-3.8144,-3.6406,-3.6719,-3.6562,-3.4902,-3.3945,-3.3047,-3.2148,-3.0488,-2.9101,-2.8223,-2.8945,-2.9492,-2.959,-3.0332,-3.0742,-3.0742,-3.0742,-3.0742,-3.0742,-3.0859,-3.0898,-3.0898,-3.0801,-3.0742,-3.0742,-3.0644,-2.9785,-3.5361,-3.4019,0.0,0.0,-3.8949,-4.1614,-4.4349,-4.7279,-4.9768,-5.1043,-5.3204,-5.4924,-5.5023,-5.5907,-5.6621,0.0,-5.6997,-5.7176,-5.6824,-5.6449,-5.6004,-5.5498,-5.4692,-5.4402,-5.5009,-5.4566,-5.4223,-5.4223,-5.3297,-5.3102,-5.3973,-5.2338,-5.1568,-5.1972,-5.126,-5.0856,-5.0779,-5.0856,-5.0856,-5.0779,-5.0779,-5.0337,-4.9471,-4.9106,-4.8277,-4.7024,-4.6201,-4.5932,-4.6094,-4.5924,-4.5873,-4.5892,-4.5757,-4.568,-4.5605,-4.5776,-4.5796,-4.5728,-4.5863,-4.5873,-4.586,-4.5956,-4.5971,-4.5997,-4.6055,-4.6117,-4.6172,-4.6172,-4.623,-4.6094,-4.5234,-4.5,-4.4687,-4.3457,-4.3164,-4.293,-4.207,-4.1894,-4.1641,-4.082,-4.0664,-4.0508,-3.998,-3.918,-3.8359,-3.7617,-3.7383,-3.668,-3.4922,-3.3945,-3.2695,-3.0879,-3.0039,-2.9453,-2.9082,-2.9394,-2.9824,-3.0312,-3.0703,-3.0898,-3.0898,-3.0898,-3.0898,-3.0898,-3.0898,-3.0898,-3.0898,-3.0898,-3.0898,-3.0898,-3.0898,-3.0508,-3.7255,0.0,0.0,-4.1074,-4.4171,-4.6788,-4.8699,-5.1149,-5.3418,-5.4786,-5.6038,-5.7005,-5.73,-5.7146,-5.6915,-5.6665,-5.6725,-5.6804,-5.6804,-5.5957,-5.5131,-5.4496,-5.2743,-5.2043,-5.3275,-5.3055,-5.2947,-5.3166,-5.2703,-5.278,-5.3664,-5.2452,-5.201,-5.2606,-5.1818,-5.1395,-5.1395,-5.1395,-5.126,-5.1029,-5.1029,-5.0587,-4.974,-4.926,-4.8278,-4.6929,-4.6103,-4.5853,-4.6007,-4.5873,-4.5834,-4.5853,-4.5776,-4.5699,-4.5605,-4.5719,-4.568,-4.5605,-4.5776,-4.5796,-4.5757,-4.5873,-4.5887,-4.5886,-4.5983,-4.606,-4.6113,-4.6131,-4.623,-4.6152,-4.5527,-4.5351,-4.5137,-4.4277,-4.4062,-4.375,-4.2637,-4.2402,-4.2168,-4.1367,-4.1191,-4.0996,-4.0371,-3.9746,-3.9141,-3.8672,-3.8066,-3.7129,-3.5605,-3.4453,-3.2969,-3.0879,-3.0449,-3.0312,-3.0312,-3.0098,-3.0234,-3.0859,-3.0898,-3.0898,-3.0898,-3.0898,-3.0898,-3.0898,-3.0898,-3.0898,-3.0898,-3.0898,-3.0898,-3.0898,-3.0898,-3.0898,0.0,0.0,-3.9322,-4.4302,-4.8041,-5.1164,-5.3703,-5.6261,-5.8319,-5.9146,-5.9358,-5.9165,-5.8396,-5.7569,-5.6703,-5.5876,-5.5742,-5.5742,-5.5742,-5.4337,-5.328,-5.3241,-5.1029,-4.9509,0.0,-5.0432,-5.1299,-5.2087,-5.2779,-5.3549,-5.4414,-5.4414,-5.4395,-5.4414,-5.3587,-5.3126,-5.3126,-5.3126,-5.2702,-5.1875,-5.1875,-5.1452,-5.0587,-4.8913,-4.7702,-4.6855,-4.597,-4.568,-4.5796,-4.5643,-4.5699,-4.5796,-4.5643,-4.5586,-4.5586,-4.5586,-4.5586,-4.5586,-4.5605,-4.5605,-4.5624,-4.5834,-4.5853,-4.5851,-4.6196,-4.6196,-4.6119,-4.6264,-4.6308,-4.6289,-4.6269,-4.6269,-4.6035,-4.5176,-4.4961,-4.4492,-4.2773,-4.2402,-4.2168,-4.1367,-4.1191,-4.1191,-4.1172,-4.1133,-4.0547,-3.8848,-3.8574,-3.8242,-3.7344,-3.5723,-3.4316,-3.3379,-3.2598,-3.2129,-3.2129,-3.1348,-3.0879,-3.0898,-3.0898,-3.0898,-3.0898,-3.0898,-3.0898,-3.0898,-3.0898,-3.0898,-3.0898,-3.0898,-3.0898,-3.0898,-3.0898,-3.0898,0.0,0.0,-4.4978,-4.8852,-5.2377,-5.5395,-5.7376,-5.8934,-5.9723,-5.8877,-5.7846,-5.6521,-5.4555,-5.3068,-5.2215,-5.2433,-5.2935,-5.3494,-5.3973,-5.4049,-5.3222,-5.0952,-4.9913,0.0,0.0,0.0,0.0,-5.1048,-5.1395,-5.2414,-5.4395,-5.3953,-5.3895,-5.4472,-5.3645,-5.3203,-5.3203,-5.3203,-5.276,-5.1895,-5.1356,-5.0952,-5.0644,-4.949,-4.8509,-4.7663,-4.6817,-4.6201,-4.5796,-4.5757,-4.5757,-4.5796,-4.5757,-4.5738,-4.5719,-4.5624,-4.5643,-4.5719,-4.5624,-4.5643,-4.5738,-4.5815,-4.5853,-4.5886,-4.5995,-4.6065,-4.6114,-4.6164,-4.6228,-4.6308,-4.6308,-4.6308,-4.623,-4.5937,-4.5859,-4.5547,-4.4375,-4.4121,-4.3691,-4.2266,-4.1992,-4.1836,-4.1289,-4.0723,-3.9941,-3.8789,-3.7129,-3.5918,-3.5605,-3.4551,-3.373,-3.3437,-3.3164,-3.3008,-3.3008,-3.2246,-3.1992,-3.2539,-3.1523,-3.1152,-3.1738,-3.1211,-3.0898,-3.0898,-3.0898,-3.0898,-3.0898,-3.0898,-3.0898,-3.0898,-3.0898,-3.0898,-4.0968,-4.514,-4.9194,-5.2819,-5.5818,-5.8184,-5.9242,-5.9935,-5.9762,-5.7824,-5.5865,-5.3648,-5.0827,-4.8957,-4.8198,-4.9266,-4.9903,-5.0968,-5.2934,-5.3164,-5.2549,-5.0952,-5.0221,-4.9644,0.0,0.0,0.0,-5.0606,-5.1529,-5.2645,-5.3953,-5.4068,-5.4357,-5.4914,-5.4395,-5.4087,-5.4087,-5.4087,-5.351,-5.2356,-5.1529,-5.0971,-5.0664,-4.9798,-4.9086,-4.8509,-4.7375,-4.6624,-4.6163,-4.5873,-4.5738,-4.5738,-4.5738,-4.5757,-4.5796,-4.5699,-4.5738,-4.5815,-4.5719,-4.5738,-4.5815,-4.5873,-4.5899,-4.5929,-4.6005,-4.6071,-4.6114,-4.6157,-4.6234,-4.6308,-4.6308,-4.6308,-4.6308,-4.6308,-4.6308,-4.6055,-4.5195,-4.5,-4.457,-4.3144,-4.2617,-4.2324,-4.2129,-4.1133,-4.0078,-3.9199,-3.7363,-3.6094,-3.6094,-3.5059,-3.4453,-3.4766,-3.4238,-3.3867,-3.3867,-3.3105,-3.2734,-3.2969,-3.1953,-3.1484,-3.1738,-3.1191,-3.0898,-3.0898,-3.0898,-3.0898,-3.0898,-3.0898,-3.0898,-3.0898,-3.0898,-3.0898,-4.5375,-4.9082,-5.2069,-5.6128,-5.8319,-5.9492,-5.9454,-5.9338,-5.8534,-5.6,-5.3417,-5.0638,0.0,0.0,-4.4882,-4.6587,-4.7012,-4.8538,-5.2569,-5.1875,-5.1491,0.0,0.0,0.0,0.0,0.0,0.0,-5.0818,0.0,-5.4087,-5.3318,-5.4818,-5.5703,-5.5703,-5.5703,-5.5703,-5.5703,-5.5607,-5.4761,-5.3203,-5.2279,-5.1433,-5.0664,-4.9837,-4.9413,-4.924,-4.7644,-4.6951,-4.6836,-4.5951,-4.5643,-4.572,-4.5624,-4.5719,-4.5853,-4.5815,-4.5834,-4.5892,-4.5834,-4.5815,-4.5834,-4.6026,-4.5996,-4.594,-4.6204,-4.6193,-4.6129,-4.6267,-4.6308,-4.6308,-4.6308,-4.6308,-4.6308,-4.6308,-4.6308,-4.6074,-4.5254,-4.5078,-4.4805,-4.3945,-4.3066,-4.2714,-4.3496,-4.2305,-4.0957,-4.0098,-3.9219,-3.8633,-3.8535,-3.709,-3.6367,-3.7148,-3.5742,-3.4766,-3.4766,-3.3926,-3.3086,-3.2363,-3.2207,-3.1777,-3.0996,-3.0918,-3.0898,-3.0898,-3.0898,-3.0898,-3.0898,-3.0898,-3.0898,-3.0898,-3.0898,-3.0898,-4.9489,-5.3435,-5.6763,-5.8434,-5.9184,-5.9338,-5.8742,-5.717,-5.4959,-5.1779,-4.8694,-4.5719,0.0,0.0,0.0,-4.4775,-4.7229,0.0,-5.1914,-5.3491,0.0,-5.2414,0.0,-5.301,-5.1722,-5.276,0.0,0.0,-5.3164,-5.3722,-5.4145,-5.5145,-5.5703,-5.5703,-5.5703,-5.5703,-5.5703,-5.4453,-5.3626,-5.3183,-5.1702,-5.0894,-5.0683,-5.0471,-4.9663,-4.8413,-4.799,-4.7451,-4.6836,-4.5951,-4.6336,-4.7336,-4.6086,-4.6046,-4.6621,-4.6026,-4.5834,-4.5911,-4.5988,-4.5969,-4.5873,-4.593,-4.5938,-4.592,-4.6106,-4.6124,-4.614,-4.6268,-4.6308,-4.6308,-4.6308,-4.6308,-4.6308,-4.6308,-4.6308,-4.623,-4.6016,-4.5976,-4.5703,-4.4844,-4.3922,-4.316,-4.2807,-4.2344,-4.1758,-4.0976,-4.0137,-3.9101,-3.7793,-3.7246,-3.6797,-3.6387,-3.5937,-3.5664,-3.5664,-3.4277,-3.3594,-3.4023,-3.2285,-3.1426,-3.1855,-3.123,-3.0898,-3.0898,-3.0898,-3.0898,-3.0898,-3.0898,-3.0898,-3.0898,-3.0898,-3.0898,-5.3106,-5.6434,-5.9031,-5.9858,-5.9511,-5.855,-5.6994,-5.4399,-5.1143,-4.705,-4.3871,0.0,0.0,0.0,0.0,0.0,0.0,0.0,-5.0375,-5.2664,-5.3799,0.0,-5.4222,0.0,-5.3664,-5.4799,-5.5241,0.0,-5.4645,-5.4761,-5.4511,-5.5626,-5.6088,-5.5703,-5.5703,-5.5703,-5.5703,-5.4761,-5.4126,-5.376,-5.2433,-5.1606,-5.1202,-5.0856,-5.0164,-4.9202,0.0,-4.8067,-4.7875,-4.6259,-4.6374,-4.7451,-4.6124,-4.5969,-4.6429,-4.6007,-4.5911,-4.6007,-4.6142,-4.6103,-4.6007,-4.6065,-4.6036,-4.6007,-4.616,-4.6191,-4.6191,-4.6289,-4.6308,-4.6308,-4.6308,-4.6308,-4.6308,-4.6308,-4.6308,-4.6308,-4.6308,-4.6308,-4.601,-4.5092,-4.4839,-4.4268,-4.2638,-4.2666,-4.2519,-4.1367,-4.0781,-3.998,-3.8613,-3.7773,-3.7266,-3.7148,-3.6465,-3.5996,-3.5996,-3.5098,-3.459,-3.4687,-3.3359,-3.2461,-3.2207,-3.1738,-3.1289,-3.0918,-3.0898,-3.0898,-3.0898,-3.0898,-3.0898,-3.0898,-3.0898,-3.0898,-5.6282,-5.8473,-5.9838,-6.0473,-5.9281,-5.7223,-5.4456,-5.1106,-4.7193,-4.2323,0.0,-3.7003,-3.4652,0.0,-3.5728,-3.9019,0.0,-4.3948,-4.8874,-5.1029,-5.2683,-5.4318,-5.5299,-5.5818,-5.5703,-5.6492,-5.6626,-5.5761,-5.6511,-5.6299,-5.4741,-5.603,-5.6472,-5.5722,-5.5703,-5.5703,-5.5703,-5.5588,-5.5184,-5.4491,-5.351,-5.2645,-5.1875,-5.1068,-5.0625,-5.0433,-4.8933,0.0,-4.9067,-4.6836,-4.6451,-4.7163,-4.6259,-4.599,-4.6103,-4.6065,-4.6061,-4.6089,-4.6229,-4.6205,-4.6117,-4.6251,-4.6194,-4.6111,-4.6217,-4.626,-4.628,-4.6289,-4.6308,-4.6308,-4.6308,-4.6308,-4.6308,-4.6308,-4.6308,-4.6308,-4.6308,-4.6308,-4.6033,-4.5163,-4.5682,-4.547,-4.293,-4.3144,-4.3117,-4.1445,-4.1191,-4.0937,-4.0176,-3.8652,-3.7851,-3.8379,-3.707,-3.6133,-3.6016,-3.5898,-3.5508,-3.4746,-3.459,-3.3887,-3.2422,-3.2266,-3.1836,-3.1094,-3.1074,-3.1016,-3.0898,-3.1016,-3.1016,-3.0898,-3.0898,-3.0898,-5.8492,-5.98,-6.0435,-5.9877,-5.7915,-5.5128,-5.1183,-4.7171,0.0,0.0,0.0,-3.4768,-3.3548,-3.4517,0.0,-3.9868,0.0,0.0,0.0,0.0,-5.3356,0.0,0.0,0.0,0.0,0.0,0.0,0.0,0.0,-5.6549,-5.5549,-5.5761,-5.5857,-5.5703,-5.5703,-5.5703,-5.5703,-5.503,-5.4645,-5.4472,-5.2895,-5.2049,-5.1875,-5.1068,-5.0298,-4.9606,-4.9317,0.0,-4.8298,-4.7855,-4.8182,-4.8875,-4.8009,-4.7682,-4.7625,-4.7026,-4.6443,-4.594,-4.6084,-4.6111,-4.6104,-4.6134,-4.6051,-4.5964,-4.6086,-4.6143,-4.6157,-4.6273,-4.6308,-4.6308,-4.6308,-4.6308,-4.6308,-4.6308,-4.6308,-4.6308,-4.6308,-4.6308,-4.6249,-4.6078,-4.6095,-4.5568,-4.3763,-4.3559,-4.3078,-4.144,-4.1191,-4.1152,-4.0996,-4.0078,-3.8945,-3.7656,-3.7246,-3.6777,-3.6055,-3.5332,-3.4863,-3.4707,-3.4023,-3.3496,-3.3203,-3.2559,-3.2129,-3.1973,-3.1973,-3.1621,-3.0898,-3.1621,-3.1601,-3.0898,-3.0898,-3.0898,-5.7475,-5.9149,-6.0589,-5.9723,-5.7261,-5.3742,-4.8641,0.0,0.0,0.0,0.0,-3.2328,-3.1845,0.0,0.0,0.0,0.0,0.0,0.0,0.0,0.0,0.0,0.0,0.0,0.0,0.0,0.0,0.0,0.0,-5.6607,-5.5742,-5.5703,-5.5703,-5.5703,-5.5703,-5.5703,-5.5703,-5.5318,-5.4914,-5.4472,-5.3203,-5.2337,-5.1875,-5.1068,-5.0471,-5.0048,-4.9606,0.0,-4.9375,-4.8471,-4.8644,-4.9375,-4.8048,-4.7586,-4.7529,-4.6796,-4.6294,-4.6014,-4.617,-4.6191,-4.6209,-4.619,-4.6113,-4.6028,-4.6163,-4.6208,-4.6208,-4.6284,-4.6308,-4.6308,-4.6308,-4.6308,-4.6308,-4.6308,-4.6308,-4.6308,-4.6308,-4.6308,-4.6289,-4.6211,-4.6201,-4.5791,-4.45,-4.3925,-4.3241,-4.201,-4.1465,-4.1191,-4.1191,-4.084,-3.9902,-3.8164,-3.7168,-3.6445,-3.6035,-3.5625,-3.5371,-3.5371,-3.498,-3.4551,-3.4101,-3.3711,-3.3086,-3.2226,-3.2617,-3.2402,-3.1582,-3.1992,-3.1992,-3.1562,-3.1113,-3.0898,-5.6092,-5.8245,-6.0319,-5.9454,-5.6703,-5.2626,-4.654,-4.1851,0.0,0.0,-3.0887,-3.0365,-3.0482,0.0,0.0,0.0,0.0,0.0,0.0,0.0,0.0,0.0,0.0,0.0,0.0,0.0,0.0,0.0,0.0,0.0,-5.5742,-5.5703,-5.5703,-5.5703,-5.5703,-5.5703,-5.5703,-5.5703,-5.5299,-5.4491,-5.3626,-5.2741,-5.1875,-5.1068,-5.0702,-5.0644,-5.001,0.0,0.0,-4.9221,-4.899,-4.9258,-4.8075,-4.7436,-4.713,-4.6549,-4.6246,-4.6127,-4.6222,-4.6278,-4.6308,-4.6308,-4.6222,-4.6162,-4.627,-4.6308,-4.6308,-4.6308,-4.6308,-4.6308,-4.6308,-4.6308,-4.6308,-4.6308,-4.6308,-4.6308,-4.6308,-4.6308,-4.6269,-4.6152,-4.623,-4.5997,-4.5013,-4.4364,-4.3613,-4.2558,-4.1855,-4.1387,-4.1211,-4.1035,-4.0391,-3.9023,-3.748,-3.6406,-3.6035,-3.5996,-3.5996,-3.5996,-3.5996,-3.5684,-3.5019,-3.4805,-3.4082,-3.2754,-3.3359,-3.3281,-3.2461,-3.2637,-3.2559,-3.2187,-3.168,-3.1348,-5.6261,-5.8223,-5.9415,-5.8607,-5.5838,-5.1587,-4.4941,0.0,0.0,-3.1584,-3.0017,-2.965,-3.0366,-3.0617,0.0,0.0,0.0,0.0,0.0,0.0,0.0,0.0,0.0,0.0,0.0,0.0,0.0,0.0,0.0,0.0,-5.5703,-5.5703,-5.5703,-5.5703,-5.5703,-5.5703,-5.5703,-5.5703,-5.5299,-5.4491,-5.3626,-5.2741,-5.1875,-5.1068,-5.0702,-5.0702,-5.0741,0.0,0.0,-5.051,-4.9952,-4.8661,-4.9304,-4.8582,-4.7192,-4.7114,-4.6687,-4.6102,-4.6108,-4.621,-4.6308,-4.6308,-4.6288,-4.6285,-4.6308,-4.6308,-4.6308,-4.6308,-4.6308,-4.6308,-4.6308,-4.6308,-4.6308,-4.6308,-4.6308,-4.6308,-4.6308,-4.6308,-4.6308,-4.6289,-4.6289,-4.6015,-4.5131,-4.4921,-4.4316,-4.2656,-4.2344,-4.2031,-4.1289,-4.0508,-3.9961,-3.9805,-3.8926,-3.7715,-3.6133,-3.5996,-3.5996,-3.5996,-3.5996,-3.5957,-3.5879,-3.5117,-3.4629,-3.4473,-3.4531,-3.4141,-3.3281,-3.4082,-3.3691,-3.2226,-3.2871,-3.2773,-5.0779,-5.4761,-5.8569,-5.7723,-5.4624,-5.024,-4.4518,0.0,0.0,-3.0684,-2.9126,-2.8623,-2.8943,-2.9455,-3.0306,0.0,0.0,0.0,0.0,0.0,0.0,0.0,0.0,0.0,0.0,0.0,0.0,0.0,0.0,0.0,-5.5703,-5.5703,-5.5703,-5.5703,-5.5703,-5.5703,-5.5703,-5.5703,-5.503,-5.3703,-5.3376,-5.2491,-5.1164,-5.0837,-5.0741,-5.0837,-5.0895,0.0,0.0,-5.0137,-4.9656,-4.8587,-4.8417,-4.7989,-4.7389,-4.6839,-4.6465,-4.6215,-4.6215,-4.6253,-4.6308,-4.6308,-4.6308,-4.6308,-4.6308,-4.6308,-4.6308,-4.6308,-4.6308,-4.6308,-4.6308,-4.6308,-4.6308,-4.6308,-4.6308,-4.6308,-4.6308,-4.6308,-4.6308,-4.6308,-4.6308,-4.6191,-4.584,-4.5351,-4.459,-4.3379,-4.2734,-4.2109,-4.1308,-4.0898,-4.0488,-3.9961,-3.8652,-3.7539,-3.6836,-3.6309,-3.5996,-3.5996,-3.5996,-3.5996,-3.5996,-3.5664,-3.5234,-3.4707,-3.5215,-3.5059,-3.418,-3.4531,-3.4355,-3.3691,-3.3496,-3.3223,-4.5932,-5.101,-5.6011,-5.5645,-5.2604,-4.8433,0.0,0.0,0.0,-3.0053,-2.8435,-2.7718,-2.7962,-2.8496,-2.9193,0.0,0.0,0.0,0.0,0.0,0.0,0.0,0.0,0.0,0.0,0.0,0.0,0.0,0.0,0.0,-5.5703,-5.5703,-5.5703,-5.5703,-5.5742,-5.5761,-5.5761,-5.5818,-5.5011,-5.3317,-5.3318,-5.2433,-5.0837,-5.0837,-5.0721,-5.0567,-5.0606,0.0,0.0,-4.9515,-4.908,-4.8308,-4.7694,-4.7353,-4.7148,-4.6523,-4.6308,-4.6308,-4.6308,-4.6308,-4.6308,-4.6308,-4.6308,-4.6308,-4.6308,-4.6308,-4.6308,-4.6308,-4.6308,-4.6308,-4.6308,-4.6308,-4.6308,-4.6308,-4.6308,-4.6308,-4.6308,-4.6308,-4.6308,-4.6308,-4.6308,-4.6308,-4.6308,-4.5781,-4.5,-4.3867,-4.3183,-4.2402,-4.1348,-4.1191,-4.0957,-4.0351,-3.8965,-3.7851,-3.7344,-3.6738,-3.6269,-3.6016,-3.5996,-3.5996,-3.5996,-3.5996,-3.5703,-3.5098,-3.5684,-3.5703,-3.5078,-3.5078,-3.4941,-3.4687,-3.4336,-3.418,-4.3184,-4.7567,-5.1164,-5.195,-4.9625,-4.6037,0.0,0.0,0.0,-2.9741,-2.8012,-2.7055,-2.7846,-2.8014,-2.8296,-2.9162,-2.9969,0.0,0.0,0.0,0.0,0.0,0.0,0.0,0.0,0.0,0.0,0.0,0.0,0.0,-5.5703,-5.5703,-5.5703,-5.5703,-5.5818,-5.5895,-5.5895,-5.6109,-5.5318,-5.3601,-5.3586,-5.2723,-5.1106,-5.1106,-5.0625,0.0,0.0,0.0,0.0,-4.8845,-4.8398,-4.7617,-4.7597,-4.707,-4.6308,-4.6308,-4.6308,-4.6308,-4.6308,-4.6308,-4.6308,-4.6308,-4.6308,-4.6308,-4.6308,-4.6308,-4.6308,-4.6308,-4.6308,-4.6308,-4.6308,-4.6308,-4.6308,-4.6308,-4.6308,-4.6308,-4.6308,-4.6308,-4.6308,-4.6308,-4.6308,-4.6308,-4.6308,-4.6289,-4.5703,-4.3965,-4.3691,-4.3086,-4.1406,-4.1191,-4.1191,-4.1191,-4.0391,-3.918,-3.7441,-3.7285,-3.6914,-3.6055,-3.5996,-3.5996,-3.5996,-3.5996,-3.5996,-3.5996,-3.5996,-3.5996,-3.5996,-3.5996,-3.5547,-3.4726,-3.5586,-3.5976,-3.6065,-4.0069,-4.3926,-4.4179,-4.2203,-3.9518,-3.6936,0.0,0.0,-2.7976,-2.6754,-2.6049,-2.6241,-2.6788,-2.745,-2.8274,-2.9128,0.0,0.0,0.0,0.0,0.0,0.0,0.0,0.0,0.0,0.0,0.0,0.0,0.0,-5.5838,-5.5415,-5.5376,-5.5818,-5.5876,-5.5692,-5.5234,-5.5292,-5.4444,-5.271,-5.2704,-5.2155,-5.1082,-5.0481,-5.0094,0.0,0.0,0.0,0.0,-4.7983,-4.75,-4.6719,-4.6719,-4.6543,-4.6308,-4.6308,-4.6308,-4.6308,-4.6308,-4.6308,-4.6308,-4.6308,-4.6308,-4.6308,-4.6308,-4.6308,-4.6308,-4.6308,-4.6308,-4.6308,-4.6308,-4.6308,-4.6308,-4.6308,-4.6308,-4.6308,-4.6308,-4.6308,-4.6308,-4.6308,-4.6308,-4.6308,-4.6308,-4.6308,-4.5918,-4.4766,-4.4082,-4.3281,-4.2168,-4.1543,-4.1191,-4.1191,-4.0957,-4.0078,-3.834,-3.7637,-3.6934,-3.6055,-3.5996,-3.5996,-3.5996,-3.5996,-3.5996,-3.5996,-3.5996,-3.5996,-3.5996,-3.5996,-3.5859,-3.5605,-3.5879,-3.5996,0.0,-3.4493,-3.791,-3.8568,-3.7146,0.0,0.0,0.0,0.0,0.0,-2.5692,-2.5195,-2.5447,-2.5943,-2.6579,-2.7404,-2.8266,0.0,0.0,0.0,0.0,0.0,0.0,0.0,0.0,0.0,0.0,0.0,0.0,0.0,-5.5532,-5.5127,-5.4977,-5.5107,-5.5105,-5.4902,-5.4478,-5.4538,-5.3858,-5.2448,-5.2116,-5.1538,-5.0725,-4.9861,-4.9328,0.0,0.0,0.0,0.0,-4.7109,-4.6797,-4.6308,-4.6308,-4.6308,-4.6308,-4.6308,-4.6308,-4.6308,-4.6308,-4.6308,-4.6308,-4.6308,-4.6308,-4.6308,-4.6308,-4.6308,-4.6308,-4.6308,-4.6308,-4.6308,-4.6308,-4.6308,-4.6308,-4.6308,-4.6308,-4.6308,-4.6308,-4.6308,-4.6308,-4.6308,-4.6308,-4.6308,-4.6308,-4.6308,-4.5898,-4.4687,-4.4043,-4.3281,-4.2109,-4.1504,-4.1191,-4.1191,-4.1191,-4.0625,-3.9219,-3.8281,-3.7422,-3.6543,-3.6172,-3.6152,-3.6484,-3.6484,-3.6484,-3.6484,-3.6484,-3.6328,-3.5996,-3.5996,-3.5996,-3.5996,-3.5996,-3.5996,0.0,0.0,0.0,0.0,0.0,0.0,0.0,0.0,0.0,0.0,0.0,0.0,0.0,-2.5459,-2.579,-2.6664,0.0,0.0,0.0,0.0,0.0,0.0,0.0,0.0,0.0,0.0,0.0,0.0,0.0,0.0,-5.4852,-5.4769,-5.4425,-5.3738,-5.3659,-5.3663,-5.3725,-5.3858,-5.3476,-5.2598,-5.1797,-5.0976,-5.0176,-4.9297,-4.8418,0.0,0.0,0.0,0.0,-4.6308,-4.6308,-4.6308,-4.6308,-4.6308,-4.6308,-4.6308,-4.6308,-4.6308,-4.6308,-4.6308,-4.6308,-4.6308,-4.6308,-4.6308,-4.6308,-4.6308,-4.6308,-4.6308,-4.6308,-4.6308,-4.6308,-4.6308,-4.6308,-4.6308,-4.6308,-4.6308,-4.6308,-4.6308,-4.6308,-4.6308,-4.6308,-4.6308,-4.6308,-4.6308,-4.5742,-4.4121,-4.3828,-4.3203,-4.1582,-4.1328,-4.1269,-4.1211,-4.1191,-4.0879,-4.0059,-3.9199,-3.832,-3.7441,-3.6621,-3.6543,-3.7363,-3.7383,-3.7383,-3.7383,-3.7383,-3.6934,-3.5996,-3.6055,-3.6055,-3.5996,-3.5996,-3.5996,-2.2894,0.0,-2.5464,-2.6558,0.0,0.0,0.0,0.0,0.0,0.0,0.0,0.0,0.0,0.0,0.0,0.0,0.0,0.0,0.0,0.0,0.0,0.0,0.0,0.0,0.0,0.0,0.0,0.0,0.0,-5.4281,-5.4072,-5.3527,-5.3131,-5.2967,-5.231,-5.2279,-5.2957,-5.2982,-5.2578,-5.1699,-5.1504,-5.0976,-5.0176,-4.9297,-4.8418,0.0,0.0,0.0,-4.6308,-4.6308,-4.6308,-4.6308,-4.6308,-4.6308,-4.6308,-4.6308,-4.6308,-4.6308,-4.6308,-4.6308,-4.6308,-4.6308,-4.6308,-4.6308,-4.6308,-4.6308,-4.6308,-4.6308,-4.6308,-4.6308,-4.6308,-4.6308,-4.6308,-4.6308,-4.6308,-4.6308,-4.6308,-4.6308,-4.6308,-4.6308,-4.6308,-4.6308,-4.6308,-4.6308,-4.6152,-4.5742,-4.5117,-4.4316,-4.3242,-4.2539,-4.1875,-4.1269,-4.1191,-4.1113,-4.0918,-4.0098,-3.9219,-3.8359,-3.8105,-3.8086,-3.8281,-3.8281,-3.8281,-3.8281,-3.8281,-3.7539,-3.5996,-3.668,-3.6641,-3.5996,-3.5996,-3.5996,-2.0868,-2.1597,-2.2516,-2.3857,-2.3876,-2.3586,0.0,0.0,0.0,0.0,0.0,0.0,0.0,0.0,0.0,0.0,0.0,0.0,0.0,0.0,0.0,0.0,0.0,0.0,0.0,0.0,0.0,0.0,0.0,-5.3724,-5.3316,-5.2925,-5.2524,-5.2119,-5.1292,-5.1086,-5.1543,-5.1543,-5.1113,-5.0254,-4.9844,-4.9433,-4.8984,-4.8105,-4.7441,0.0,0.0,0.0,-4.6308,-4.6308,-4.6308,-4.6308,-4.6308,-4.6308,-4.6308,-4.6308,-4.6308,-4.6308,-4.6308,-4.6308,-4.6308,-4.6308,-4.6308,-4.6308,-4.6308,-4.6308,-4.6308,-4.6308,-4.6308,-4.6308,-4.6308,-4.6308,-4.6308,-4.6308,-4.6308,-4.6308,-4.6308,-4.6308,-4.6308,-4.6308,-4.6308,-4.6308,-4.6308,-4.6308,-4.6152,-4.5762,-4.5293,-4.4687,-4.3808,-4.2949,-4.2226,-4.1797,-4.1426,-4.1191,-4.1191,-4.0762,-4.0117,-3.9258,-3.8828,-3.8789,-3.918,-3.9199,-3.9199,-3.9199,-3.8809,-3.8144,-3.7187,-3.7266,-3.7051,-3.6582,-3.6191,-3.5996,-2.0337,-2.0931,-2.1959,-2.3667,-2.4072,-2.3893,0.0,0.0,0.0,0.0,0.0,0.0,0.0,0.0,0.0,0.0,0.0,0.0,0.0,0.0,0.0,0.0,0.0,0.0,0.0,0.0,0.0,0.0,0.0,-5.3281,-5.2539,-5.25,-5.2109,-5.123,-5.0566,-5.0078,-4.9805,-4.9941,-4.9629,-4.8887,-4.8144,-4.7734,-4.7578,-4.6836,-4.6426,-4.6308,0.0,0.0,-4.6308,-4.6308,-4.6308,-4.6308,-4.6308,-4.6308,-4.6308,-4.6308,-4.6308,-4.6308,-4.6308,-4.6308,-4.6308,-4.628,-4.6284,-4.6308,-4.6289,-4.6289,-4.6308,-4.6308,-4.6308,-4.6308,-4.6308,-4.6308,-4.6308,-4.6308,-4.6308,-4.6308,-4.6308,-4.6308,-4.6308,-4.6308,-4.6308,-4.6308,-4.6308,-4.6308,-4.6055,-4.5312,-4.5195,-4.4883,-4.4004,-4.3242,-4.2754,-4.2617,-4.1875,-4.1387,-4.1387,-4.1269,-4.0879,-4.0156,-3.9414,-3.9336,-4.0078,-4.0098,-4.0039,-3.9902,-3.9316,-3.8867,-3.8594,-3.7988,-3.7559,-3.7285,-3.6543,-3.6133,-2.0458,-2.1104,-2.1994,-2.2968,-2.3229,-2.3423,0.0,0.0,0.0,0.0,0.0,0.0,0.0,0.0,0.0,0.0,0.0,0.0,0.0,0.0,0.0,0.0,0.0,0.0,0.0,0.0,0.0,0.0,0.0,-5.1738,-5.1601,-5.1601,-5.123,-5.041,-5.0254,-4.9492,-4.8008,-4.873,-4.9023,-4.8906,-4.8769,-4.8301,-4.7598,-4.7461,-4.6992,-4.6308,0.0,-4.6308,-4.6308,-4.6308,-4.6308,-4.6308,-4.6308,-4.6308,-4.6308,-4.6308,-4.6308,-4.6308,-4.6308,-4.6308,-4.6284,-4.6166,-4.6216,-4.6289,-4.6172,-4.6211,-4.6308,-4.6308,-4.6308,-4.6308,-4.6308,-4.6308,-4.6308,-4.6308,-4.6308,-4.6308,-4.6308,-4.6308,-4.6308,-4.6308,-4.6308,-4.6308,-4.6308,-4.6308,-4.625,-4.6113,-4.6094,-4.5781,-4.4902,-4.4687,-4.4316,-4.3574,-4.2734,-4.2226,-4.2226,-4.1582,-4.1133,-4.1016,-4.0879,-4.0859,-4.0996,-4.0996,-4.0644,-3.9902,-4.0488,-4.0078,-3.8594,-3.9219,-3.873,-3.7305,-3.7168,-3.6719,-2.0545,-2.1518,-2.2703,-2.3547,-2.3779,-2.3915,0.0,0.0,0.0,0.0,0.0,0.0,0.0,0.0,0.0,0.0,0.0,0.0,0.0,0.0,0.0,0.0,0.0,0.0,0.0,0.0,0.0,0.0,0.0,0.0,-5.1387,-5.0996,-5.0586,-5.0215,-4.9297,-4.8418,-4.7617,-4.7539,-4.75,-4.75,-4.75,-4.7285,-4.6894,-4.6894,-4.668,-4.6308,0.0,-4.6308,-4.6308,-4.6308,-4.6308,-4.6308,-4.6308,-4.6308,-4.6308,-4.6308,-4.6308,-4.6308,-4.6308,-4.6308,-4.6287,-4.6242,-4.6258,-4.6294,-4.6221,-4.625,-4.6308,-4.6308,-4.6308,-4.6308,-4.6308,-4.6308,-4.6308,-4.6308,-4.6308,-4.6308,-4.6308,-4.6308,-4.6308,-4.6308,-4.6308,-4.6308,-4.6308,-4.6308,-4.6308,-4.6308,-4.6308,-4.6152,-4.5742,-4.4883,-4.4316,-4.4394,-4.2812,-4.1933,-4.2363,-4.166,-4.1191,-4.1191,-4.1191,-4.1191,-4.1191,-4.1191,-4.1016,-4.0605,-4.0996,-4.0801,-4.0,-3.9922,-3.9492,-3.8672,-3.7734,-3.709,-2.0591,-2.1817,-2.3261,-2.3937,0.0,-2.4963,-2.5971,0.0,0.0,0.0,0.0,0.0,0.0,0.0,0.0,0.0,0.0,0.0,0.0,0.0,0.0,0.0,0.0,0.0,0.0,0.0,0.0,0.0,0.0,0.0,-5.0781,-5.0234,-4.9805,-4.9609,-4.8301,-4.75,-4.7305,-4.6621,-4.6308,-4.6308,-4.6308,-4.6308,-4.6308,-4.6308,-4.6308,-4.6308,-4.6308,-4.6308,-4.6308,-4.6308,-4.6308,-4.6308,-4.6308,-4.6308,-4.6308,-4.6308,-4.6308,-4.6308,-4.6308,-4.6308,-4.6289,-4.6269,-4.6267,-4.6286,-4.6267,-4.6278,-4.6308,-4.6308,-4.6308,-4.6308,-4.6308,-4.6308,-4.6308,-4.6308,-4.6308,-4.6308,-4.6308,-4.6308,-4.6308,-4.6308,-4.6308,-4.6308,-4.6308,-4.6308,-4.6308,-4.6308,-4.6308,-4.6308,-4.6308,-4.5137,-4.4551,-4.5234,-4.3183,-4.1875,-4.2109,-4.1543,-4.1191,-4.1191,-4.1191,-4.1191,-4.1191,-4.1191,-4.1191,-4.1191,-4.1191,-4.1191,-4.1191,-4.0527,-4.0098,-3.9863,-3.832,-3.75,-2.0605,-2.1824,-2.3116,-2.3183,0.0,0.0,-3.0634,0.0,0.0,0.0,0.0,0.0,0.0,0.0,0.0,0.0,0.0,0.0,0.0,0.0,0.0,0.0,0.0,0.0,0.0,0.0,0.0,0.0,0.0,0.0,-4.9082,-4.9023,-4.8613,-4.7812,-4.7676,-4.7207,-4.6406,-4.6328,-4.6308,-4.6308,-4.6308,-4.6308,-4.6308,-4.6308,-4.6308,-4.6308,-4.6308,-4.6308,-4.6308,-4.6308,-4.6308,-4.6308,-4.6308,-4.6308,-4.6308,-4.6308,-4.6308,-4.6308,-4.6308,-4.6308,-4.6289,-4.6152,-4.619,-4.6287,-4.6145,-4.6199,-4.6308,-4.6308,-4.6308,-4.6308,-4.6308,-4.6308,-4.6308,-4.6308,-4.6308,-4.6308,-4.6308,-4.6308,-4.6308,-4.6308,-4.6308,-4.6308,-4.6308,-4.6308,-4.6308,-4.6308,-4.6308,-4.6308,-4.6308,-4.6191,-4.6133,-4.6191,-4.459,-4.291,-4.1406,-4.123,-4.1191,-4.1191,-4.1191,-4.1191,-4.1191,-4.1191,-4.1191,-4.1191,-4.1191,-4.1191,-4.1191,-4.1133,-4.0684,-3.9883,-3.8945,-3.8066,-2.216,-2.3415,-2.4711,-2.4727,0.0,0.0,0.0,0.0,0.0,0.0,0.0,0.0,0.0,0.0,0.0,0.0,0.0,0.0,0.0,0.0,0.0,0.0,0.0,0.0,0.0,0.0,0.0,0.0,0.0,0.0,-4.8867,-4.8398,-4.7949,-4.7617,-4.707,-4.6621,-4.6308,-4.6308,-4.6308,-4.6308,-4.6308,-4.6308,-4.6308,-4.6308,-4.6308,-4.6308,-4.6308,-4.6308,-4.6308,-4.6308,-4.6308,-4.6308,-4.6308,-4.6308,-4.6308,-4.6308,-4.6308,-4.6308,-4.6308,-4.6308,-4.6289,-4.623,-4.6269,-4.6287,-4.6245,-4.6261,-4.6308,-4.6308,-4.6308,-4.6308,-4.6308,-4.6308,-4.6308,-4.6308,-4.6308,-4.6308,-4.6308,-4.6308,-4.6308,-4.6308,-4.6308,-4.6308,-4.6308,-4.6308,-4.6308,-4.6308,-4.6308,-4.6308,-4.6308,-4.582,-4.5488,-4.5488,-4.3926,-4.2422,-4.1308,-4.1191,-4.1191,-4.1191,-4.1191,-4.1191,-4.1191,-4.1191,-4.1191,-4.1191,-4.1191,-4.1191,-4.1191,-4.1191,-4.1035,-4.0684,-3.9805,-3.8945,-2.3093,-2.4169,-2.5364,0.0,0.0,0.0,0.0,0.0,0.0,0.0,0.0,0.0,0.0,0.0,0.0,0.0,0.0,0.0,0.0,0.0,0.0,0.0,0.0,0.0,0.0,0.0,0.0,0.0,0.0,0.0,0.0,-4.7519,-4.7187,-4.7187,-4.6601,-4.6308,-4.6308,-4.6308,-4.6308,-4.6308,-4.6016,-4.6035,-4.6308,-4.6308,-4.6308,-4.6308,-4.6308,-4.6308,-4.6308,-4.6308,-4.6308,-4.6308,-4.6308,-4.6133,-4.5918,-4.6191,-4.6133,-4.5937,-4.6191,-4.6308,-4.6308,-4.6308,-4.6113,-4.5898,-4.5898,-4.5898,-4.5898,-4.5898,-4.5898,-4.5957,-4.623,-4.6308,-4.6308,-4.6308,-4.6308,-4.6308,-4.6308,-4.6308,-4.6308,-4.6308,-4.6308,-4.6308,-4.6308,-4.6308,-4.6308,-4.6308,-4.6308,-4.6308,-4.6308,-4.5547,-4.4785,-4.4238,-4.3105,-4.207,-4.1269,-4.1191,-4.1191,-4.1191,-4.1191,-4.1191,-4.1191,-4.1191,-4.1191,-4.1191,-4.1191,-4.1191,-4.1191,-4.1191,-4.1191,-4.1172,-4.0312,-3.9434,-2.312,-2.3759,0.0,0.0,0.0,0.0,0.0,0.0,0.0,0.0,0.0,0.0,0.0,0.0,0.0,0.0,0.0,0.0,0.0,0.0,0.0,0.0,0.0,0.0,0.0,0.0,0.0,0.0,0.0,0.0,0.0,-4.6308,-4.6308,-4.6308,-4.6308,-4.6308,-4.6308,-4.6289,-4.6289,-4.6289,-4.5391,-4.5449,-4.6308,-4.6289,-4.6289,-4.6308,-4.6289,-4.6289,-4.6308,-4.6289,-4.6289,-4.6308,-4.6289,-4.5762,-4.5098,-4.5976,-4.5742,-4.5117,-4.5976,-4.6289,-4.6289,-4.6289,-4.5683,-4.498,-4.498,-4.498,-4.5,-4.498,-4.498,-4.5195,-4.6055,-4.6289,-4.6289,-4.6308,-4.6308,-4.6308,-4.6308,-4.6308,-4.6308,-4.6308,-4.6308,-4.6308,-4.6308,-4.6308,-4.6308,-4.6308,-4.6308,-4.6308,-4.6289,-4.5527,-4.4316,-4.2598,-4.2383,-4.207,-4.1269,-4.1191,-4.1191,-4.1191,-4.1191,-4.1191,-4.1191,-4.1191,-4.1191,-4.1191,-4.1191,-4.1191,-4.1191,-4.1191,-4.1191,-4.1172,-4.0293,-3.9414,-2.4757,0.0,0.0,0.0,0.0,0.0,0.0,0.0,0.0,0.0,0.0,0.0,0.0,0.0,0.0,0.0,0.0,0.0,0.0,0.0,0.0,0.0,0.0,0.0,0.0,0.0,0.0,0.0,0.0,0.0,0.0,-4.6308,-4.6308,-4.6308,-4.6308,-4.6308,-4.6308,-4.5683,-4.5391,-4.5371,-4.4492,-4.4863,-4.6289,-4.5664,-4.5723,-4.6269,-4.5644,-4.5723,-4.625,-4.5644,-4.5742,-4.623,-4.5625,-4.5234,-4.5039,-4.5293,-4.5215,-4.4941,-4.459,-4.4863,-4.5273,-4.4668,-4.4297,-4.4082,-4.4082,-4.4512,-4.4863,-4.4258,-4.4531,-4.4922,-4.4551,-4.4922,-4.5547,-4.6152,-4.6308,-4.6308,-4.6308,-4.6308,-4.6308,-4.6308,-4.6308,-4.6308,-4.6308,-4.6308,-4.6308,-4.6308,-4.6308,-4.6074,-4.5469,-4.4629,-4.3652,-4.2519,-4.1894,-4.1465,-4.1211,-4.1191,-4.1191,-4.1191,-4.1191,-4.1191,-4.1191,-4.1191,-4.1191,-4.1191,-4.1191,-4.1191,-4.1191,-4.0586,-4.0293,-4.0254,-3.9299,-3.8394,-2.5035,0.0,0.0,0.0,0.0,0.0,0.0,0.0,0.0,0.0,0.0,0.0,0.0,0.0,0.0,0.0,0.0,0.0,0.0,0.0,0.0,0.0,0.0,0.0,0.0,0.0,0.0,0.0,0.0,0.0,0.0,-4.5976,-4.5937,-4.6289,-4.5957,-4.5781,-4.5781,-4.4922,-4.4473,-4.4473,-4.3594,-4.3926,-4.5254,-4.4726,-4.4766,-4.5234,-4.4707,-4.4785,-4.5234,-4.4707,-4.4785,-4.5215,-4.4687,-4.4277,-4.4004,-4.4355,-4.4258,-4.3945,-4.3769,-4.4043,-4.4394,-4.3867,-4.3476,-4.3183,-4.3183,-4.3555,-4.3867,-4.332,-4.3555,-4.4004,-4.418,-4.4082,-4.4277,-4.5488,-4.5781,-4.5879,-4.623,-4.5762,-4.5371,-4.5723,-4.5781,-4.5781,-4.5781,-4.5781,-4.5781,-4.5781,-4.5488,-4.4941,-4.4082,-4.3516,-4.2851,-4.2012,-4.1484,-4.1191,-4.1191,-4.1191,-4.1191,-4.1191,-4.1191,-4.1191,-4.1191,-4.1191,-4.1191,-4.1191,-4.1191,-4.1191,-4.1191,-4.0278,-3.9822,-3.9803,-3.8811,-3.7904,0.0,0.0,0.0,0.0,0.0,0.0,0.0,0.0,0.0,0.0,0.0,0.0,0.0,0.0,0.0,0.0,0.0,0.0,0.0,0.0,0.0,0.0,0.0,0.0,0.0,0.0,0.0,0.0,0.0,0.0,0.0,-4.5312,-4.5234,-4.6035,-4.5293,-4.4883,-4.4883,-4.4023,-4.3574,-4.3574,-4.2695,-4.2715,-4.3476,-4.3555,-4.3574,-4.3594,-4.3672,-4.3652,-4.3574,-4.3574,-4.3633,-4.3691,-4.3613,-4.3105,-4.25,-4.3281,-4.3086,-4.25,-4.3223,-4.3516,-4.3574,-4.3496,-4.2949,-4.2285,-4.2285,-4.2344,-4.2383,-4.2305,-4.2344,-4.2754,-4.4258,-4.3535,-4.2793,-4.4394,-4.4824,-4.5098,-4.5898,-4.4824,-4.3926,-4.4726,-4.4941,-4.5,-4.5,-4.5078,-4.5098,-4.5019,-4.4258,-4.3398,-4.2519,-4.2402,-4.209,-4.1289,-4.1191,-4.1191,-4.1191,-4.1191,-4.1191,-4.1191,-4.1191,-4.1191,-4.1191,-4.1191,-4.1191,-4.1191,-4.1113,-4.1074,-4.1074,-3.9994,-3.9455,-3.945,-3.8491,-3.7628,0.0,0.0,0.0,0.0,0.0,0.0,0.0,0.0,0.0,0.0,0.0,0.0,0.0,0.0,0.0,0.0,0.0,0.0,0.0,0.0,0.0,0.0,0.0,0.0,0.0,0.0,0.0,0.0,0.0,0.0,-4.4258,-4.4082,-4.4062,-4.4258,-4.4082,-4.3984,-4.3984,-4.3125,-4.2676,0.0,-4.1855,-4.1562,-4.1758,-4.2383,-4.2676,-4.2715,-4.3398,-4.3301,-4.2676,-4.2676,-4.3086,-4.3633,-4.2949,-4.2578,-4.2422,-4.2617,-4.2558,-4.2344,-4.1894,-4.2148,-4.2578,-4.1933,-4.1601,-4.1465,-4.1465,-4.1894,-4.2266,-4.1641,-4.1914,-4.2344,-4.207,-4.2207,-4.248,-4.2871,-4.3476,-4.4023,-4.4219,-4.3965,-4.3769,-4.3945,-4.4531,-4.5,-4.5,-4.5566,-4.5781,-4.5098,-4.4258,-4.3398,-4.2519,-4.2402,-4.209,-4.1289,-4.1191,-4.1191,-4.1191,-4.1191,-4.1191,-4.1191,-4.1191,-4.1191,-4.1191,-4.1191,-4.1191,-4.1191,-4.0527,-4.0176,-4.0176,-3.8539,-3.7737,-3.7698,-3.6672,-3.6068,0.0,0.0,0.0,0.0,0.0,0.0,0.0,0.0,0.0,0.0,0.0,0.0,0.0,0.0,0.0,0.0,0.0,0.0,0.0,0.0,0.0,0.0,0.0,0.0,0.0,0.0,0.0,0.0,0.0,-4.3262,-4.3672,-4.3301,-4.3262,-4.3691,-4.3301,-4.3086,-4.3086,-4.2246,-4.1836,-4.1816,-4.1406,-4.1191,-4.1211,-4.1621,-4.1836,-4.1855,-4.2305,-4.2246,-4.1836,-4.1836,-4.209,-4.2461,-4.1992,-4.1836,-4.1836,-4.1836,-4.1836,-4.1777,-4.1348,-4.1465,-4.1758,-4.1348,-4.1191,-4.1191,-4.1191,-4.1484,-4.1738,-4.1328,-4.1504,-4.1816,-4.1777,-4.1797,-4.1914,-4.2305,-4.2754,-4.3183,-4.3613,-4.3066,-4.2617,-4.3008,-4.3437,-4.3769,-4.3769,-4.4121,-4.4141,-4.3301,-4.2793,-4.2344,-4.1875,-4.1836,-4.166,-4.123,-4.1191,-4.1191,-4.1191,-4.1191,-4.1191,-4.1191,-4.1191,-4.1191,-4.1191,-4.1135,-4.1125,-4.1191,-4.0332,-3.9871,-3.9805,-3.7995,-3.7085,-3.703,-3.6021,-3.5565,0.0,0.0,0.0,0.0,0.0,0.0,0.0,0.0,0.0,0.0,0.0,0.0,0.0,0.0,0.0,0.0,0.0,0.0,0.0,0.0,0.0,0.0,0.0,0.0,0.0,0.0,0.0,0.0,0.0,-4.2187,-4.3203,-4.2305,-4.2148,-4.3027,-4.2207,-4.1738,-4.1738,-4.1074,-4.0742,-4.0742,-4.0742,-4.0742,-4.0742,-4.0742,-4.0918,-4.1191,-4.1035,-4.1055,-4.1191,-4.1035,-4.1055,-4.1191,-4.1191,-4.1191,-4.1191,-4.1191,-4.1191,-4.1191,-4.1191,-4.1191,-4.1172,-4.1016,-4.1074,-4.1172,-4.1016,-4.1074,-4.1191,-4.1191,-4.1191,-4.1348,-4.2012,-4.1699,-4.1367,-4.2031,-4.2187,-4.2383,-4.3105,-4.2187,-4.1406,-4.2051,-4.2305,-4.2441,-4.2598,-4.25,-4.2168,-4.1504,-4.1289,-4.1191,-4.1191,-4.1191,-4.1191,-4.1191,-4.1191,-4.1191,-4.1191,-4.1191,-4.1191,-4.1191,-4.1191,-4.119,-4.1175,-4.1059,-4.1036,-4.113,-4.0148,-3.9565,-3.9451,-3.7638,-3.6726,-3.667,-3.5872,-3.5493,0.0,0.0,0.0,0.0,0.0,0.0,0.0,0.0,0.0,0.0,0.0,0.0,0.0,0.0,0.0,0.0,0.0,0.0,0.0,0.0,0.0,0.0,0.0,0.0,0.0,0.0,0.0,0.0,-4.0039,-3.9824,-4.1445,-3.998,-3.9512,-4.0371,-3.9551,-3.9101,-3.9101,-3.9004,-3.8945,-3.8945,-3.8945,-3.8945,-3.8945,-3.8945,-3.9766,-4.1152,-4.0391,-4.0508,-4.1133,-4.0391,-4.0527,-4.1191,-4.1191,-4.1191,-4.1191,-4.1191,-4.1191,-4.1191,-4.1191,-4.1191,-4.1074,-4.0312,-4.0586,-4.1055,-4.0293,-4.0605,-4.1191,-4.1191,-4.1191,-4.1211,-4.1328,-4.1289,-4.123,-4.1328,-4.1367,-4.1387,-4.1504,-4.1367,-4.123,-4.1348,-4.1914,-4.2637,-4.3398,-4.2891,-4.2363,-4.2266,-4.1641,-4.1191,-4.1191,-4.1191,-4.1191,-4.1191,-4.1191,-4.1191,-4.1191,-4.1191,-4.1191,-4.1191,-4.1191,-4.1148,-4.1036,-4.1007,-4.0949,-4.0861,-3.9302,-3.8501,-3.8471,-3.6682,-3.5791,-3.5776,-3.5603,-3.5493,0.0,0.0,0.0,0.0,0.0,0.0,0.0,0.0,0.0,0.0,0.0,0.0,0.0,0.0,0.0,0.0,0.0,0.0,0.0,0.0,0.0,0.0,0.0,0.0,0.0,0.0,0.0,0.0,-3.9023,-3.8926,-3.9707,-3.9023,-3.8789,-3.916,-3.8809,-3.8594,-3.8594,-3.8594,-3.8594,-3.8594,-3.8594,-3.8594,-3.8594,-3.8594,-3.9023,-3.9726,-3.9336,-3.9351,-3.9602,-3.9305,-3.9355,-3.9648,-3.9707,-3.9746,-3.9746,-3.9746,-3.9746,-3.9746,-3.9746,-3.9746,-3.9687,-3.9297,-3.9766,-4.0391,-4.0019,-4.0508,-4.1191,-4.1191,-4.1191,-4.1191,-4.1191,-4.1191,-4.1191,-4.1191,-4.1191,-4.1191,-4.1191,-4.1191,-4.1191,-4.1191,-4.1484,-4.1855,-4.2226,-4.2363,-4.2246,-4.1797,-4.1816,-4.1719,-4.1269,-4.1191,-4.1191,-4.1191,-4.1191,-4.1191,-4.1191,-4.1191,-4.1191,-4.1191,-4.1134,-4.105,-4.1001,-4.0889,-4.0562,-4.0023,-3.8897,-3.8504,-3.8911,-3.7166,-3.6281,-3.6219,-3.6199,-3.593,0.0,0.0,0.0,0.0,0.0,0.0,0.0,0.0,0.0,0.0,0.0,0.0,0.0,0.0,0.0,0.0,0.0,0.0,0.0,0.0,0.0,0.0,0.0,0.0,0.0,0.0,0.0,0.0,-3.8184,-3.8047,-3.8262,-3.7851,-3.7617,-3.7617,-3.7617,-3.75,-3.7285,-3.7285,-3.75,-3.7949,-3.7715,-3.7715,-3.7949,-3.7914,-3.7917,-3.7936,-3.8151,-3.8311,-3.8389,-3.8248,-3.8261,-3.8391,-3.8496,-3.8555,-3.8555,-3.8594,-3.8594,-3.8594,-3.8594,-3.8594,-3.8555,-3.834,-3.8867,-3.957,-3.957,-4.0176,-4.0918,-4.1133,-4.1191,-4.1191,-4.1191,-4.1191,-4.1191,-4.1191,-4.1191,-4.1191,-4.1191,-4.1191,-4.1269,-4.1465,-4.1348,-4.1269,-4.1465,-4.1836,-4.1894,-4.1289,-4.1719,-4.1875,-4.1289,-4.1191,-4.1191,-4.1191,-4.1191,-4.1191,-4.1191,-4.1177,-4.1152,-4.1152,-4.1014,-4.0935,-4.0924,-4.0773,-4.0389,-3.9677,-3.8945,-3.8618,-3.8715,-3.7488,-3.6738,-3.6411,-3.6642,-3.6295,0.0,0.0,0.0,0.0,0.0,0.0,0.0,0.0,0.0,0.0,0.0,0.0,0.0,0.0,0.0,0.0,0.0,0.0,0.0,0.0,0.0,0.0,0.0,0.0,0.0,0.0,0.0,0.0,-3.707,-3.6504,-3.7324,-3.5801,-3.4902,-3.4902,-3.4902,-3.4512,-3.3672,-3.3672,-3.4492,-3.6133,-3.5293,-3.5332,-3.6132,-3.6075,-3.6036,-3.6093,-3.6897,-3.77,-3.8342,-3.7436,-3.7568,-3.8299,-3.8371,-3.8418,-3.8437,-3.8555,-3.8594,-3.8594,-3.8594,-3.8594,-3.8457,-3.7637,-3.7969,-3.8672,-3.8672,-3.9277,-4.0137,-4.0976,-4.1191,-4.1191,-4.1191,-4.1191,-4.1191,-4.1191,-4.1191,-4.1191,-4.1191,-4.1191,-4.1426,-4.2187,-4.1719,-4.1445,-4.2207,-4.1738,-4.125,-4.1211,-4.123,-4.125,-4.1211,-4.1191,-4.1191,-4.1191,-4.1191,-4.1191,-4.1191,-4.1081,-4.1007,-4.1007,-4.0886,-4.078,-4.0731,-4.0716,-4.062,-4.0466,-3.9662,-3.845,-3.6834,-3.6867,-3.6444,-3.5584,-3.6483,-3.6386,0.0,0.0,0.0,0.0,0.0,0.0,0.0,0.0,0.0,0.0,0.0,0.0,0.0,0.0,0.0,0.0,0.0,0.0,0.0,0.0,0.0,0.0,0.0,0.0,0.0,0.0,0.0,0.0,0.0,-3.5059,-3.4805,-3.4199,-3.3867,-3.3867,-3.3867,-3.3711,-3.3398,-3.3398,-3.3711,-3.4336,-3.4004,-3.4316,-3.5156,-3.5098,-3.5359,-3.5911,-3.6098,-3.6329,-3.6593,-3.6367,-3.6428,-3.6643,-3.6794,-3.6854,-3.6875,-3.6914,-3.6934,-3.6934,-3.6934,-3.6934,-3.6875,-3.6562,-3.7051,-3.7871,-3.8437,-3.9219,-4.0078,-4.0957,-4.1191,-4.1191,-4.1191,-4.1191,-4.1191,-4.1191,-4.1191,-4.1191,-4.1191,-4.1191,-4.1445,-4.2246,-4.1758,-4.1465,-4.2266,-4.2168,-4.1797,-4.1289,-4.1641,-4.1777,-4.1269,-4.1191,-4.1191,-4.1191,-4.1191,-4.1172,-4.1082,-4.1029,-4.0947,-4.087,-4.0789,-4.0745,-4.0696,-4.062,-4.0331,-3.9792,-3.9484,-3.8988,-3.8373,-3.7868,-3.7142,-3.6276,-3.6622,-3.6315,0.0,0.0,0.0,0.0,0.0,0.0,0.0,0.0,0.0,0.0,0.0,0.0,0.0,0.0,0.0,0.0,0.0,0.0,0.0,0.0,0.0,0.0,0.0,0.0,0.0,0.0,0.0,0.0,0.0,0.0,-3.3066,-3.3008,-3.2983,-3.292,-3.2689,-3.2812,-3.3359,-3.279,-3.2783,-3.3368,-3.3044,-3.3348,-3.4183,-3.4139,-3.441,-3.4982,-3.5084,-3.5315,-3.5622,-3.5738,-3.5757,-3.568,-3.5834,-3.5902,-3.5903,-3.5953,-3.5934,-3.5906,-3.5976,-3.5996,-3.5976,-3.5996,-3.6387,-3.707,-3.8242,-3.9004,-3.9648,-4.0527,-4.0976,-4.1133,-4.084,-4.0976,-4.1191,-4.1191,-4.1191,-4.1191,-4.1191,-4.1191,-4.1445,-4.2246,-4.1758,-4.1465,-4.2266,-4.2187,-4.1816,-4.1289,-4.1641,-4.1797,-4.1269,-4.1191,-4.1191,-4.1191,-4.1191,-4.1148,-4.1022,-4.0947,-4.0889,-4.0773,-4.0677,-4.0639,-4.0639,-4.06,-4.0331,-3.9773,-3.9769,-3.946,-3.8854,-3.833,-3.7464,-3.6315,-3.6622,-3.6315,0.0,0.0,0.0,0.0,0.0,0.0,0.0,0.0,0.0,0.0,0.0,0.0,0.0,0.0,0.0,0.0,0.0,0.0,0.0,0.0,0.0,0.0,0.0,0.0,0.0,0.0,0.0,0.0,-3.4609,-3.3867,-3.2207,-3.209,-3.2026,-3.1885,-3.1187,-3.1562,-3.3125,-3.1464,-3.1484,-3.3157,-3.226,-3.2305,-3.3161,-3.3091,-3.3089,-3.3147,-3.3885,-3.4718,-3.5565,-3.5603,-3.5603,-3.5622,-3.568,-3.5699,-3.5721,-3.5857,-3.5812,-3.5735,-3.5927,-3.5957,-3.5918,-3.5976,-3.5996,-3.6328,-3.8047,-3.8555,-3.875,-3.9648,-4.0508,-4.0976,-4.0156,-4.0566,-4.1191,-4.1191,-4.1191,-4.1191,-4.1191,-4.1191,-4.1445,-4.2246,-4.1758,-4.1465,-4.2266,-4.1738,-4.1191,-4.1191,-4.1191,-4.1191,-4.1191,-4.1191,-4.1191,-4.1191,-4.1191,-4.1148,-4.1012,-4.0885,-4.0773,-4.0696,-4.0581,-4.0489,-4.0489,-4.062,-4.062,-4.0466,-4.059,-3.9758,-3.7969,-3.8108,-3.7261,-3.5526,-3.6439,-3.6367,-2.3201,0.0,0.0,0.0,0.0,0.0,0.0,0.0,0.0,0.0,0.0,0.0,0.0,0.0,0.0,0.0,0.0,0.0,0.0,0.0,0.0,0.0,0.0,0.0,0.0,0.0,0.0,0.0,-3.2318,-3.1455,-3.0314,-2.9606,-2.9225,-2.9175,-2.8985,-2.9091,-2.9526,-2.9063,-2.9375,-3.0487,-3.0207,-3.0839,-3.226,-3.2189,-3.2487,-3.3147,-3.3885,-3.4372,-3.4699,-3.5391,-3.568,-3.568,-3.5795,-3.5795,-3.5726,-3.585,-3.5872,-3.586,-3.5962,-3.5981,-3.5976,-3.5996,-3.5996,-3.6211,-3.7324,-3.7656,-3.7969,-3.9473,-4.0078,-4.0351,-4.0742,-4.1016,-4.1191,-4.1191,-4.1191,-4.1191,-4.1191,-4.1191,-4.1445,-4.2246,-4.1758,-4.1465,-4.2266,-4.1738,-4.1191,-4.1191,-4.1191,-4.1191,-4.1191,-4.1191,-4.1191,-4.1191,-4.1191,-4.1149,-4.1012,-4.0873,-4.0773,-4.0696,-4.0581,-4.0489,-4.0489,-4.0543,-4.0304,-3.9716,-3.9741,-3.8945,-3.7286,-3.7805,-3.7175,-3.5526,-3.5776,-3.5757,0.0,0.0,0.0,0.0,0.0,0.0,-2.43,-2.4894,-2.5291,0.0,0.0,0.0,0.0,0.0,0.0,0.0,0.0,0.0,0.0,0.0,0.0,0.0,0.0,0.0,0.0,-3.2363,-3.2008,-3.118,-3.0622,-2.9922,-2.8965,-2.8396,-2.808,-2.8054,-2.8086,-2.8097,-2.8066,-2.8054,-2.8305,-2.8821,-2.9118,-2.9794,-3.0741,-3.1064,-3.1487,-3.2018,-3.2814,-3.3199,-3.3333,-3.4241,-3.5046,-3.5718,-3.5853,-3.5815,-3.5718,-3.5853,-3.5853,-3.5828,-3.5956,-3.5988,-3.5958,-3.5992,-3.5996,-3.623,-3.7461,-3.7598,-3.7598,-3.8965,-3.9101,-3.9101,-4.0332,-4.0664,-4.0566,-4.0195,-4.0664,-4.1094,-4.0742,-4.0937,-4.1348,-4.1816,-4.1523,-4.1348,-4.1816,-4.1504,-4.1191,-4.1191,-4.1191,-4.1191,-4.1191,-4.1191,-4.1191,-4.1191,-4.1152,-4.105,-4.0925,-4.0818,-4.0716,-4.062,-4.0543,-4.0489,-4.0489,-4.0562,-4.0352,-3.9862,-3.9947,-3.9162,-3.7506,-3.7525,-3.6853,-3.5493,-3.5493,-3.5493,0.0,0.0,0.0,0.0,0.0,0.0,-2.2764,-2.3549,-2.4139,-2.4237,0.0,0.0,0.0,0.0,0.0,0.0,0.0,0.0,0.0,0.0,0.0,0.0,0.0,0.0,-3.0602,-3.0602,-3.029,-2.9496,-2.9284,-2.8772,-2.7846,-2.7778,-2.7769,-2.7699,-2.7769,-2.7769,-2.7699,-2.7699,-2.7757,-2.7853,-2.8516,-2.8909,-2.9121,-2.991,-3.0302,-3.0436,-3.1314,-3.1737,-3.1872,-3.2735,-3.4077,-3.5565,-3.5694,-3.5661,-3.5584,-3.5815,-3.5751,-3.5626,-3.5909,-3.5953,-3.5927,-3.5974,-3.5996,-3.6289,-3.7832,-3.7773,-3.7344,-3.8203,-3.7969,-3.7793,-3.9355,-3.9824,-3.9687,-3.8809,-3.9922,-4.0937,-3.9961,-4.0527,-4.1172,-4.1074,-4.1133,-4.1191,-4.1191,-4.1191,-4.1191,-4.1191,-4.1191,-4.1191,-4.1191,-4.1191,-4.1191,-4.1185,-4.1072,-4.0957,-4.08,-4.0746,-4.0658,-4.0543,-4.0508,-4.0489,-4.0489,-4.062,-4.0581,-4.0389,-4.0389,-3.9573,-3.7919,-3.7147,-3.632,-3.5493,-3.5493,-3.5493,0.0,0.0,0.0,0.0,0.0,0.0,-2.1844,-2.2195,-2.251,0.0,0.0,0.0,0.0,0.0,0.0,0.0,0.0,0.0,0.0,0.0,0.0,0.0,0.0,0.0,-2.8803,-2.876,-2.867,-2.8483,-2.7701,-2.6853,-2.5957,-2.588,-2.5842,-2.5832,-2.5842,-2.5842,-2.5832,-2.5832,-2.6178,-2.6871,-2.7024,-2.7794,-2.9102,-2.9275,-2.9737,-3.0436,-3.1314,-3.1749,-3.1857,-3.274,-3.3672,-3.4597,-3.4706,-3.4693,-3.4691,-3.5584,-3.5451,-3.4936,-3.5718,-3.5992,-3.5979,-3.5995,-3.5996,-3.6055,-3.6406,-3.6387,-3.6445,-3.7305,-3.7949,-3.8418,-3.8769,-3.9375,-3.9687,-3.8809,-3.9922,-4.0762,-3.9199,-4.0098,-4.0996,-4.0293,-4.0723,-4.1191,-4.1191,-4.1191,-4.1191,-4.1191,-4.1191,-4.1191,-4.1191,-4.1191,-4.1166,-4.1044,-4.1017,-4.0939,-4.08,-4.0742,-4.0696,-4.0658,-4.0562,-4.0489,-4.0489,-4.0543,-4.0254,-3.9619,-3.8383,-3.7228,-3.6188,-3.5968,-3.5738,-3.5493,-3.5493,-3.5493,0.0,0.0,0.0,-2.0516,0.0,0.0,0.0,-2.1488,-2.1908,-2.228,0.0,0.0,0.0,0.0,0.0,0.0,0.0,0.0,0.0,0.0,0.0,0.0,0.0,0.0,-2.6907,-2.6861,-2.6842,-2.6805,-2.6333,-2.5842,-2.539,-2.5322,-2.5303,-2.5303,-2.5303,-2.5303,-2.5303,-2.5303,-2.5514,-2.5967,-2.639,-2.7044,-2.7871,-2.8717,-2.9333,-2.9794,-3.0679,-3.1083,-3.1191,-3.1614,-3.2326,-3.3205,-3.4173,-3.4243,-3.3916,-3.4939,-3.5035,-3.4724,-3.5187,-3.5644,-3.5996,-3.5996,-3.5996,-3.6074,-3.6523,-3.6641,-3.6738,-3.7187,-3.7305,-3.7402,-3.7832,-3.8281,-3.8496,-3.8066,-3.9277,-4.0195,-3.8887,-3.9629,-4.043,-3.998,-4.0254,-4.0547,-4.0547,-4.0547,-4.0547,-4.0547,-4.0547,-4.0703,-4.1133,-4.1139,-4.1063,-4.1012,-4.0908,-4.0812,-4.0754,-4.0658,-4.06,-4.06,-4.0543,-4.0489,-4.0489,-4.0489,-4.0159,-3.9412,-3.7808,-3.6775,-3.6299,-3.583,-3.5584,-3.5493,-3.5493,-3.5493,0.0,0.0,0.0,0.0,0.0,-2.0506,0.0,0.0,0.0,0.0,0.0,0.0,0.0,0.0,0.0,0.0,0.0,0.0,0.0,0.0,0.0,0.0,0.0,0.0,0.0,-2.549,-2.5446,-2.538,-2.539,-2.537,-2.5303,-2.5303,-2.5303,-2.5303,-2.5303,-2.5303,-2.5303,-2.5303,-2.5303,-2.5303,-2.6005,-2.6447,-2.6659,-2.8189,-2.8978,-2.9159,-3.0044,-3.0467,-3.0525,-3.0524,-3.0967,-3.1819,-3.3468,-3.3678,-3.3154,-3.4105,-3.4355,-3.4258,-3.459,-3.5156,-3.5781,-3.5957,-3.5996,-3.6133,-3.6836,-3.7051,-3.7051,-3.7051,-3.6543,-3.6152,-3.6875,-3.7168,-3.7266,-3.709,-3.8379,-3.9355,-3.832,-3.8926,-3.9648,-3.9648,-3.9648,-3.9766,-4.0098,-4.0019,-3.9902,-3.9902,-3.9902,-4.0156,-4.0859,-4.0984,-4.0985,-4.0947,-4.0793,-4.0696,-4.0658,-4.0562,-4.0489,-4.0489,-4.0508,-4.045,-4.0296,-4.0162,-3.972,-3.8937,-3.7668,-3.6892,-3.665,-3.593,-3.5565,-3.5493,-3.5493,-3.5493,0.0,0.0,0.0,0.0,-2.0506,0.0,0.0,0.0,-2.0549,-2.0547,0.0,0.0,0.0,0.0,0.0,0.0,0.0,0.0,0.0,0.0,0.0,0.0,0.0,0.0,0.0,-2.5447,-2.538,-2.5332,-2.5303,-2.5303,-2.5303,-2.5303,-2.5303,-2.5303,-2.5303,-2.5303,-2.5303,-2.5303,-2.5303,-2.5303,-2.5399,-2.5851,-2.664,-2.7651,-2.8497,-2.9248,-3.016,-3.0583,-3.0587,-3.0579,-3.0681,-3.0941,-3.1915,-3.2231,-3.2263,-3.3207,-3.3105,-3.2695,-3.418,-3.4766,-3.4961,-3.5742,-3.5996,-3.6016,-3.6113,-3.6152,-3.6152,-3.6152,-3.6074,-3.6016,-3.6113,-3.6719,-3.7109,-3.6328,-3.748,-3.8301,-3.6641,-3.7598,-3.875,-3.875,-3.875,-3.9238,-4.0781,-4.041,-3.9902,-3.9902,-3.9902,-3.9941,-4.0039,-4.0606,-4.0947,-4.0831,-4.0754,-4.0658,-4.0543,-4.0508,-4.0489,-4.0489,-4.062,-4.0335,-3.9569,-3.8942,-3.8175,-3.7201,-3.7063,-3.6579,-3.5757,-3.5603,-3.5526,-3.5493,-3.5493,-3.5493,0.0,0.0,0.0,0.0,0.0,0.0,-2.051,0.0,-2.0379,0.0,0.0,0.0,0.0,0.0,0.0,0.0,-2.0827,0.0,0.0,0.0,0.0,0.0,0.0,0.0,0.0,0.0,0.0,0.0,-2.5361,-2.5361,-2.5361,-2.5313,-2.5303,-2.5303,-2.5303,-2.5303,-2.5303,-2.5303,-2.5303,-2.5303,-2.5341,-2.5563,-2.5947,-2.7412,-2.825,-2.8601,-2.9478,-3.0144,-3.0614,-3.0143,-3.0297,-3.0864,-3.121,-3.1352,-3.147,-3.2376,-3.248,-3.2363,-3.3535,-3.4277,-3.4844,-3.5723,-3.5996,-3.5996,-3.5996,-3.5996,-3.5996,-3.5996,-3.5996,-3.5996,-3.5996,-3.6269,-3.6582,-3.6719,-3.7305,-3.7656,-3.6914,-3.7324,-3.7851,-3.7851,-3.8242,-3.8984,-4.0234,-3.9297,-3.8398,-3.8398,-3.8398,-3.8737,-3.9668,-4.0024,-4.0339,-4.0693,-4.0235,-3.9854,-3.9796,-3.9373,-3.9315,-3.9831,-3.9992,-3.968,-3.8786,-3.8502,-3.7885,-3.693,-3.6935,-3.6469,-3.5545,-3.5526,-3.5493,-3.5493,-3.5493,-3.5493,-2.5118,0.0,0.0,0.0,0.0,0.0,0.0,0.0,0.0,0.0,0.0,0.0,0.0,0.0,0.0,0.0,0.0,-1.9896,0.0,0.0,0.0,0.0,0.0,0.0,0.0,0.0,0.0,-2.4918,-2.5014,-2.512,-2.5351,-2.5332,-2.5303,-2.5303,-2.5303,-2.5303,-2.5303,-2.5303,-2.5303,-2.5322,-2.539,-2.5408,-2.549,-2.7296,-2.7995,-2.7847,-2.9172,-2.9997,-3.0372,-3.0042,-3.0294,-3.0903,-3.0903,-3.0911,-3.0976,-3.1601,-3.1836,-3.1992,-3.3047,-3.4121,-3.5156,-3.5781,-3.5996,-3.5996,-3.5996,-3.5996,-3.5996,-3.5996,-3.5996,-3.5996,-3.5996,-3.5996,-3.6152,-3.6797,-3.6934,-3.6934,-3.6934,-3.6934,-3.7012,-3.7246,-3.7617,-3.8242,-3.9355,-3.8691,-3.8008,-3.8008,-3.8008,-3.8417,-3.9543,-3.9823,-4.0134,-4.0669,-4.01,-3.9696,-3.9711,-3.8965,-3.8681,-3.9104,-3.8984,-3.8644,-3.8013,-3.7792,-3.7436,-3.6933,-3.6691,-3.6353,-3.5872,-3.5641,-3.5493,-3.5493,-3.5493,-3.5493,0.0,0.0,0.0,-2.3082,0.0,0.0,0.0,0.0,-2.1313,0.0,0.0,0.0,0.0,0.0,0.0,0.0,0.0,0.0,0.0,0.0,0.0,0.0,0.0,0.0,0.0,0.0,-2.3014,-2.3887,-2.4004,-2.4408,-2.5253,-2.5293,-2.5303,-2.5303,-2.5303,-2.5303,-2.5303,-2.5303,-2.5322,-2.5409,-2.5409,-2.5429,-2.5556,-2.7368,-2.775,-2.7084,-2.9715,-3.039,-2.9706,-3.0527,-3.0878,-3.0898,-3.0898,-3.0898,-3.0898,-3.0937,-3.0937,-3.1172,-3.2832,-3.4512,-3.5957,-3.5996,-3.5996,-3.5996,-3.5996,-3.5996,-3.5996,-3.5996,-3.5996,-3.5996,-3.5996,-3.5996,-3.6016,-3.6035,-3.6035,-3.6035,-3.6035,-3.6035,-3.6289,-3.7148,-3.6641,-3.6621,-3.8359,-3.9297,-3.9824,-3.9824,-3.9824,-3.9786,-3.9711,-4.0331,-4.077,-4.0793,-4.0716,-4.0673,-4.0757,-4.001,-3.9234,-3.8481,-3.7625,-3.7198,-3.7225,-3.6484,-3.6358,-3.6988,-3.6166,-3.6117,-3.6843,-3.593,-3.5493,-3.5493,-3.5493,-3.5493,0.0,0.0,-2.5658,-2.4775,0.0,0.0,0.0,0.0,0.0,0.0,0.0,0.0,0.0,0.0,0.0,0.0,0.0,0.0,0.0,0.0,0.0,0.0,0.0,0.0,0.0,0.0,0.0,-2.223,-2.2796,-2.3535,-2.4457,-2.4466,-2.4697,-2.5284,-2.5303,-2.5322,-2.537,-2.537,-2.5409,-2.5466,-2.5505,-2.5533,-2.5619,-2.6846,-2.7557,-2.7872,-2.8786,-2.9668,-3.0449,-3.0156,-3.0339,-3.078,-3.0864,-3.0859,-3.0781,-3.0879,-3.0898,-3.1133,-3.2812,-3.4531,-3.5996,-3.5996,-3.5996,-3.5996,-3.5996,-3.5996,-3.5996,-3.5996,-3.5996,-3.5996,-3.5996,-3.5996,-3.5996,-3.5996,-3.5996,-3.5996,-3.5996,-3.5996,-3.6094,-3.6387,-3.668,-3.7051,-3.7637,-3.8457,-3.9043,-3.9043,-3.9043,-3.9195,-3.9648,-3.9406,-3.9419,-3.9935,-3.8955,-3.8257,-3.8277,-3.8119,-3.792,-3.7687,-3.7405,-3.6973,-3.6426,-3.7168,-3.7161,-3.6299,-3.6977,-3.6914,-3.604,-3.568,-3.5493,-3.5512,-3.6065,-3.6295,-2.691,-2.6688,0.0,-2.5591,-2.5241,0.0,-2.3597,0.0,0.0,0.0,0.0,0.0,0.0,0.0,0.0,0.0,0.0,0.0,0.0,-1.748,0.0,0.0,0.0,0.0,0.0,0.0,-2.0612,-2.1301,-2.1876,-2.2748,0.0,0.0,-2.4399,-2.5264,-2.5322,-2.537,-2.5409,-2.5415,-2.5473,-2.5543,-2.5582,-2.5616,-2.5686,-2.69,-2.7588,-2.7842,-2.8762,-2.9608,-3.0316,-3.0062,-3.025,-3.0706,-3.0808,-3.0819,-3.0781,-3.0879,-3.1289,-3.1894,-3.2695,-3.4101,-3.5547,-3.5547,-3.5547,-3.5605,-3.5918,-3.5996,-3.5996,-3.5996,-3.5996,-3.5996,-3.5996,-3.5996,-3.5996,-3.5996,-3.5996,-3.5996,-3.5996,-3.5996,-3.5996,-3.5996,-3.6445,-3.6934,-3.7246,-3.7773,-3.8242,-3.8555,-3.8594,-3.875,-3.918,-3.8742,-3.8597,-3.9131,-3.817,-3.7384,-3.7127,-3.7187,-3.7112,-3.6855,-3.6836,-3.6719,-3.6465,-3.7168,-3.748,-3.7324,-3.7311,-3.7054,-3.6554,-3.6122,-3.593,-3.5949,-3.6776,-3.7161]}]]